[[{"header":{"parameterUnit":"m.s-1","parameterCategory":1,"la1":30.6,"la2":28.766,"lo1":-90.7593,"lo2":-88.6598,"dx":0.0162,"dy":0.0183,"nx":116,"ny":114,"refTime":"2023-01-01T06:00:00:Z","depth":0,"parameterNumber":2,"parameterNumberName":"U-component_of_WINDS"},"data":[0.0,0.0,0.0,0.0,0.0,0.0,0.0,0.0,0.0,0.0,0.0,0.0,0.0,0.0,0.0,0.0,0.0,0.0,0.0,0.0,0.0,0.0,0.0,0.0,0.0,0.0,0.0,0.0,0.0,0.0,0.0,0.0,0.0,0.0,0.0,0.0,0.0,0.0,0.0,0.0,0.0,0.0,0.0,0.0,0.0,0.0,0.0,0.0,0.0,0.0,0.0,0.0,0.0,0.0,0.0,0.0,0.0,0.0,0.0,0.0,0.0,0.0,0.0,0.0,0.0,0.0,0.0,0.0,0.0,0.0,0.0,0.0,0.0,0.0,0.0,0.0,0.0,0.0,0.0,0.0,0.0,0.0,0.0,0.0,0.0,0.0,0.0,0.0,0.0,0.0,0.0,0.0,0.0,0.0,0.0,0.0,0.0,0.0,0.0,0.0,0.0,0.0,0.0,0.0,0.0,0.0,0.0,0.0,0.0,0.0,0.0,0.0,0.0,0.0,0.0,0.0,0.0,0.0,0.0,0.0,0.0,0.0,0.0,0.0,0.0,0.0,0.0,0.0,0.0,0.0,0.0,0.0,0.0,0.0,0.0,0.0,0.0,0.0,0.0,0.0,0.0,0.0,0.0,0.0,0.0,0.0,0.0,0.0,0.0,0.0,0.0,0.0,0.0,0.0,0.0,0.0,0.0,0.0,0.0,0.0,0.0,0.0,0.0,0.0,0.0,0.0,0.0,0.0,0.0,0.0,0.0,0.0,0.0,0.0,0.0,0.0,0.0,0.0,0.0,0.0,0.0,0.0,0.0,0.0,0.0,0.0,0.0,0.0,0.0,0.0,0.0,0.0,0.0,0.0,0.0,0.0,0.0,0.0,0.0,0.0,0.0,0.0,0.0,0.0,0.0,0.0,0.0,0.0,0.0,0.0,0.0,0.0,0.0,0.0,0.0,0.0,0.0,0.0,0.0,0.0,0.0,0.0,0.0,0.0,0.0,0.0,0.0,0.0,0.0,0.0,0.0,0.0,0.0,0.0,0.0,0.0,0.0,0.0,0.0,0.0,0.0,0.0,0.0,0.0,0.0,0.0,0.0,0.0,0.0,0.0,0.0,0.0,0.0,0.0,0.0,0.0,0.0,0.0,0.0,0.0,0.0,0.0,0.0,0.0,0.0,0.0,0.0,0.0,0.0,0.0,0.0,0.0,0.0,0.0,0.0,0.0,0.0,0.0,0.0,0.0,0.0,0.0,0.0,0.0,0.0,0.0,0.0,0.0,0.0,0.0,0.0,0.0,0.0,0.0,0.0,0.0,0.0,0.0,0.0,0.0,0.0,0.0,0.0,0.0,0.0,0.0,0.0,0.0,0.0,0.0,0.0,0.0,0.0,0.0,0.0,0.0,0.0,0.0,0.0,0.0,0.0,0.0,0.0,0.0,0.0,0.0,0.0,0.0,0.0,0.0,0.0,0.0,0.0,0.0,0.0,0.0,0.0,0.0,0.0,0.0,0.0,0.0,0.0,0.0,0.0,0.0,0.0,0.0,0.0,0.0,0.0,0.0,0.0,0.0,0.0,0.0,0.0,0.0,0.0,0.0,0.0,0.0,0.0,0.0,0.0,0.0,0.0,0.0,0.0,0.0,0.0,0.0,0.0,0.0,0.0,0.0,0.0,0.0,0.0,0.0,0.0,0.0,0.0,0.0,0.0,0.0,0.0,0.0,0.0,0.0,0.0,0.0,0.0,0.0,0.0,0.0,0.0,0.0,0.0,0.0,0.0,0.0,0.0,0.0,0.0,0.0,0.0,0.0,0.0,0.0,0.0,0.0,0.0,0.0,0.0,0.0,0.0,0.0,0.0,0.0,0.0,0.0,0.0,0.0,0.0,0.0,0.0,0.0,0.0,0.0,0.0,0.0,0.0,0.0,0.0,0.0,0.0,0.0,0.0,0.0,0.0,0.0,0.0,0.0,0.0,0.0,0.0,0.0,0.0,0.0,0.0,0.0,0.0,0.0,0.0,0.0,0.0,0.0,0.0,0.0,0.0,0.0,0.0,0.0,0.0,0.0,0.0,0.0,0.0,0.0,0.0,0.0,0.0,0.0,0.0,0.0,0.0,0.0,0.0,0.0,0.0,0.0,0.0,0.0,0.0,0.0,0.0,0.0,0.0,0.0,0.0,0.0,0.0,0.0,0.0,0.0,0.0,0.0,0.0,0.0,0.0,0.0,0.0,0.0,0.0,0.0,0.0,0.0,0.0,0.0,0.0,0.0,0.0,0.0,0.0,0.0,0.0,0.0,0.0,0.0,0.0,0.0,0.0,0.0,0.0,0.0,0.0,0.0,0.0,0.0,0.0,0.0,0.0,0.0,0.0,0.0,0.0,0.0,0.0,0.0,0.0,0.0,0.0,0.0,0.0,0.0,0.0,0.0,0.0,0.0,0.0,0.0,0.0,0.0,0.0,0.0,0.0,0.0,0.0,0.0,0.0,0.0,0.0,0.0,0.0,0.0,0.0,0.0,0.0,0.0,0.0,0.0,0.0,0.0,0.0,0.0,0.0,0.0,0.0,0.0,0.0,0.0,0.0,0.0,0.0,0.0,0.0,0.0,0.0,0.0,0.0,0.0,0.0,0.0,0.0,0.0,0.0,0.0,0.0,0.0,0.0,0.0,0.0,0.0,0.0,0.0,0.0,0.0,0.0,0.0,0.0,0.0,0.0,0.0,0.0,0.0,0.0,0.0,0.0,0.0,0.0,0.0,0.0,0.0,0.0,0.0,0.0,0.0,0.0,0.0,0.0,0.0,0.0,0.0,0.0,0.0,0.0,0.0,0.0,0.0,0.0,0.0,0.0,0.0,0.0,0.0,0.0,0.0,0.0,0.0,0.0,0.0,0.0,0.0,0.0,0.0,0.0,0.0,0.0,0.0,0.0,0.0,0.0,0.0,0.0,0.0,0.0,0.0,0.0,0.0,0.0,0.0,0.0,0.0,0.0,0.0,0.0,0.0,0.0,0.0,0.0,0.0,0.0,0.0,0.0,0.0,0.0,0.0,0.0,0.0,0.0,0.0,0.0,0.0,0.0,0.0,0.0,0.0,0.0,0.0,0.0,0.0,0.0,0.0,0.0,0.0,0.0,0.0,0.0,0.0,0.0,0.0,0.0,0.0,0.0,0.0,0.0,0.0,0.0,0.0,0.0,0.0,0.0,0.0,0.0,0.0,0.0,0.0,0.0,0.0,0.0,0.0,0.0,0.0,0.0,0.0,0.0,0.0,0.0,0.0,0.0,0.0,0.0,0.0,0.0,0.0,0.0,0.0,0.0,0.0,0.0,0.0,0.0,0.0,0.0,0.0,0.0,0.0,0.0,0.0,0.0,0.0,0.0,0.0,0.0,0.0,0.0,0.0,0.0,0.0,0.0,0.0,0.0,0.0,0.0,0.0,0.0,0.0,0.0,0.0,0.0,0.0,0.0,0.0,0.0,0.0,0.0,0.0,0.0,0.0,0.0,0.0,0.0,0.0,0.0,0.0,0.0,0.0,0.0,0.0,0.0,0.0,0.0,0.0,0.0,0.0,0.0,0.0,0.0,0.0,0.0,0.0,0.0,0.0,0.0,0.0,0.0,0.0,0.0,0.0,0.0,0.0,0.0,0.0,0.0,0.0,0.0,0.0,0.0,0.0,0.0,0.0,0.0,0.0,0.0,0.0,0.0,0.0,0.0,0.0,0.0,0.0,0.0,0.0,0.0,0.0,0.0,0.0,0.0,0.0,0.0,0.0,0.0,0.0,0.0,0.0,0.0,0.0,0.0,0.0,0.0,0.0,0.0,0.0,0.0,0.0,0.0,0.0,0.0,0.0,0.0,0.0,0.0,0.0,0.0,0.0,0.0,0.0,0.0,0.0,0.0,0.0,0.0,0.0,0.0,0.0,0.0,0.0,0.0,0.0,0.0,0.0,0.0,0.0,0.0,0.0,0.0,0.0,0.0,0.0,0.0,0.0,0.0,0.0,0.0,0.0,0.0,0.0,0.0,0.0,0.0,0.0,0.0,0.0,0.0,0.0,0.0,0.0,0.0,0.0,0.0,0.0,0.0,0.0,0.0,0.0,0.0,0.0,0.0,0.0,0.0,0.0,0.0,0.0,0.0,0.0,0.0,0.0,0.0,0.0,0.0,0.0,0.0,0.0,0.0,0.0,0.0,0.0,0.0,0.0,0.0,0.0,0.0,0.0,0.0,0.0,0.0,0.0,0.0,0.0,0.0,0.0,0.0,0.0,0.0,0.0,0.0,0.0,0.0,0.0,0.0,0.0,0.0,0.0,0.0,0.0,0.0,0.0,0.0,0.0,0.0,0.0,0.0,0.0,0.0,0.0,0.0,0.0,0.0,0.0,0.0,0.0,0.0,0.0,0.0,0.0,0.0,0.0,0.0,0.0,0.0,0.0,0.0,0.0,0.0,0.0,0.0,0.0,0.0,0.0,0.0,0.0,0.0,0.0,0.0,0.0,0.0,0.0,0.0,0.0,0.0,0.0,0.0,0.0,0.0,0.0,0.0,0.0,0.0,0.0,0.0,0.0,0.0,0.0,0.0,0.0,0.0,0.0,0.0,0.0,0.0,0.0,0.0,0.0,0.0,0.0,0.0,0.0,0.0,0.0,0.0,0.0,0.0,0.0,0.0,0.0,0.0,0.0,0.0,0.0,0.0,0.0,0.0,0.0,0.0,0.0,0.0,0.0,0.0,0.0,0.0,0.0,0.0,0.0,0.0,0.0,0.0,0.0,0.0,0.0,0.0,0.0,0.0,0.0,0.0,0.0,0.0,0.0,0.0,0.0,0.0,0.0,0.0,0.0,0.0,0.0,0.0,0.0,0.0,0.0,0.0,0.0,0.0,0.0,0.0,0.0,0.0,0.0,0.0,0.0,0.0,0.0,0.0,0.0,0.0,0.0,0.0,0.0,0.0,0.0,0.0,0.0,0.0,0.0,0.0,0.0,0.0,0.0,0.0,0.0,0.0,0.0,0.0,0.0,0.0,0.0,0.0,0.0,0.0,0.0,0.0,0.0,0.0,0.0,0.0,0.0,0.0,0.0,0.0,0.0,0.0,0.0,0.0,0.0,0.0,0.0,0.0,0.0,0.0,0.0,0.0,0.0,0.0,0.0,0.0,0.0,0.0,0.0,0.0,0.0,0.0,0.0,0.0,0.0,0.0,0.0,0.0,0.0,0.0,0.0,0.0,0.0,0.0,0.0,0.0,0.0,0.0,0.0,0.0,0.0,0.0,0.0,0.0,0.0,0.0,0.0,0.0,0.0,0.0,0.0,0.0,0.0,0.0,0.0,0.0,0.0,0.0,0.0,0.0,0.0,0.0,0.0,0.0,0.0,0.0,0.0,0.0,0.0,0.0,0.0,0.0,0.0,0.0,0.0,0.0,0.0,0.0,0.0,0.0,0.0,0.0,0.0,0.0,0.0,0.0,0.0,0.0,0.0,0.0,0.0,0.0,0.0,0.0,0.0,0.0,0.0,0.0,0.0,0.0,0.0,0.0,0.0,0.0,0.0,0.0,0.0,0.0,0.0,0.0,0.0,0.0,0.0,0.0,0.0,0.0,0.0,0.0,0.0,0.0,0.0,0.0,0.0,0.0,0.0,0.0,0.0,0.0,0.0,0.0,0.0,0.0,0.0,0.0,0.0,0.0,0.0,0.0,0.0,0.0,0.0,0.0,0.0,0.0,0.0,0.0,0.0,0.0,0.0,0.0,0.0,0.0,0.0,0.0,0.0,0.0,0.0,0.0,0.0,0.0,0.0,0.0,0.0,0.0,0.0,0.0,0.0,0.0,0.0,0.0,0.0,0.0,0.0,0.0,0.0,0.0,0.0,0.0,0.0,0.0,0.0,0.0,0.0,0.0,0.0,0.0,0.0,0.0,0.0,0.0,0.0,0.0,0.0,0.0,0.0,0.0,0.0,0.0,0.0,0.0,0.0,0.0,0.0,0.0,0.0,0.0,0.0,0.0,0.0,0.0,0.0,0.0,0.0,0.0,0.0,0.0,0.0,0.0,0.0,0.0,0.0,0.0,0.0,0.0,0.0,0.0,0.0,0.0,0.0,0.0,0.0,-4.7934,-4.7901,0.0,0.0,0.0,0.0,0.0,0.0,0.0,0.0,0.0,0.0,0.0,0.0,0.0,0.0,0.0,0.0,0.0,0.0,0.0,0.0,0.0,0.0,0.0,0.0,0.0,0.0,0.0,0.0,0.0,0.0,0.0,0.0,0.0,0.0,0.0,0.0,-4.9198,-4.9686,-4.9686,-5.0293,-5.1397,-5.094,-5.1338,-5.2491,0.0,0.0,0.0,0.0,0.0,0.0,0.0,0.0,0.0,0.0,0.0,0.0,0.0,0.0,0.0,0.0,0.0,0.0,0.0,0.0,0.0,0.0,0.0,0.0,0.0,0.0,0.0,0.0,0.0,0.0,0.0,0.0,0.0,0.0,0.0,0.0,0.0,0.0,0.0,0.0,0.0,0.0,0.0,0.0,0.0,0.0,0.0,0.0,0.0,0.0,0.0,0.0,0.0,0.0,0.0,0.0,0.0,0.0,0.0,0.0,0.0,0.0,0.0,0.0,0.0,0.0,0.0,0.0,0.0,0.0,-4.7702,-4.7837,0.0,0.0,0.0,0.0,0.0,0.0,0.0,0.0,0.0,0.0,0.0,0.0,0.0,0.0,0.0,0.0,0.0,0.0,0.0,0.0,0.0,0.0,0.0,-5.2234,-5.3203,-5.3203,-5.3335,-5.3702,0.0,0.0,0.0,0.0,0.0,0.0,-5.0335,-5.0042,-5.0127,-5.0606,-5.0735,-5.1536,-5.2905,-5.3598,-5.4313,-5.4957,-5.3741,0.0,0.0,0.0,0.0,0.0,0.0,0.0,0.0,0.0,0.0,0.0,0.0,0.0,0.0,0.0,0.0,0.0,0.0,0.0,0.0,0.0,0.0,0.0,0.0,0.0,0.0,0.0,0.0,0.0,0.0,0.0,0.0,0.0,0.0,0.0,0.0,0.0,0.0,0.0,0.0,0.0,0.0,0.0,0.0,0.0,0.0,0.0,0.0,0.0,0.0,0.0,0.0,0.0,0.0,0.0,0.0,0.0,0.0,0.0,0.0,0.0,0.0,0.0,-4.7612,-4.7959,-4.7959,-4.7959,-4.7536,-4.685,-4.7613,-4.7915,-4.7812,-4.731,0.0,0.0,0.0,0.0,0.0,0.0,0.0,0.0,0.0,0.0,0.0,0.0,0.0,0.0,0.0,0.0,0.0,0.0,0.0,-5.0802,-5.0802,-5.2234,-5.3203,-5.3203,-5.3849,-5.4289,-5.4399,0.0,0.0,0.0,0.0,-5.2852,-5.2731,-5.1447,-5.173,-5.3814,-5.4501,-5.5288,-5.6181,-5.6295,-5.676,-5.7406,-5.4486,-5.3532,-5.3941,0.0,0.0,0.0,0.0,0.0,0.0,0.0,0.0,0.0,0.0,0.0,0.0,0.0,0.0,0.0,0.0,0.0,0.0,0.0,0.0,0.0,0.0,0.0,0.0,0.0,0.0,0.0,0.0,0.0,0.0,0.0,0.0,0.0,0.0,0.0,0.0,0.0,0.0,0.0,0.0,0.0,-4.777,-4.7872,0.0,0.0,0.0,0.0,0.0,0.0,0.0,0.0,0.0,0.0,0.0,0.0,0.0,-4.5587,-4.609,-4.6265,-4.6399,-4.6399,-4.7063,-4.7437,-4.7437,-4.7437,-4.7352,-4.7224,-4.7352,0.0,-4.6882,-4.6788,0.0,0.0,0.0,0.0,0.0,0.0,0.0,0.0,0.0,0.0,0.0,0.0,0.0,0.0,0.0,0.0,0.0,0.0,0.0,0.0,0.0,-5.3298,-5.4546,-5.4546,-5.5684,-5.6418,-5.6418,-5.6014,0.0,0.0,-5.4289,-5.3288,-5.2054,-5.218,-5.3006,-5.4535,-5.53,-5.5822,-5.6184,-5.6164,-5.6575,-5.7251,-5.5849,-5.5412,-5.5632,-5.4136,0.0,0.0,0.0,0.0,0.0,0.0,0.0,0.0,0.0,0.0,0.0,0.0,0.0,0.0,0.0,0.0,0.0,0.0,0.0,0.0,0.0,0.0,0.0,0.0,0.0,0.0,0.0,0.0,0.0,0.0,0.0,0.0,0.0,0.0,0.0,0.0,0.0,0.0,0.0,-4.9458,-4.9627,-5.0913,-4.9687,-4.8959,0.0,0.0,0.0,0.0,0.0,0.0,0.0,0.0,0.0,-4.5722,-4.5186,-4.5223,-4.6011,-4.5842,-4.6142,-4.686,-4.68,-4.713,-4.7848,-4.7848,-4.8057,-4.8416,-4.8416,-4.832,-4.8055,-4.6932,-4.7025,-4.784,0.0,0.0,0.0,0.0,-4.6811,-4.622,0.0,0.0,0.0,0.0,0.0,0.0,0.0,0.0,0.0,0.0,0.0,0.0,-5.2527,-5.4766,-5.6198,-5.6198,-5.7483,-5.8217,-5.7997,-5.7629,-5.6859,-5.5669,-5.4854,-5.3766,-5.2287,-5.3912,-5.4983,-5.5446,-5.6393,-5.6833,-5.6833,-5.663,-5.6867,-5.7376,-5.7193,-5.7097,-5.7007,-5.5994,-5.3876,-5.1038,0.0,0.0,0.0,0.0,0.0,0.0,0.0,0.0,0.0,0.0,0.0,0.0,0.0,0.0,0.0,0.0,0.0,0.0,0.0,0.0,0.0,0.0,0.0,0.0,0.0,0.0,0.0,0.0,0.0,0.0,0.0,0.0,0.0,0.0,0.0,0.0,0.0,-5.056,-5.0259,-5.2162,-5.0043,-4.8707,0.0,0.0,0.0,0.0,0.0,0.0,-4.6935,-4.6253,-4.5822,-4.5813,-4.5343,-4.5633,-4.68,-4.6322,-4.6651,-4.7788,-4.7309,-4.7578,-4.858,-4.858,-4.885,-4.9299,-4.9299,-4.9299,-4.9209,-4.7668,-4.748,-4.807,-4.7579,-4.7272,-4.715,-4.7303,-4.6811,-4.6142,0.0,0.0,0.0,0.0,0.0,0.0,0.0,0.0,0.0,0.0,0.0,-5.4216,-5.4252,-5.6418,-5.7886,-5.7886,-5.8657,-5.8841,-5.8033,-5.8694,-5.8033,-5.5684,-5.494,-5.4833,-5.5339,-5.7655,-5.8465,-5.7712,-5.9167,-5.9877,-5.9877,-5.9167,-5.8825,-5.8863,-5.8155,-5.7841,-5.7761,-5.6304,-5.5161,-5.4094,-5.1185,0.0,0.0,0.0,0.0,0.0,0.0,0.0,0.0,0.0,0.0,0.0,0.0,0.0,0.0,0.0,0.0,0.0,0.0,0.0,0.0,0.0,0.0,0.0,0.0,0.0,0.0,0.0,0.0,0.0,0.0,0.0,0.0,0.0,0.0,0.0,0.0,0.0,0.0,-4.9239,-4.8595,0.0,0.0,0.0,0.0,-4.8105,-4.7903,-4.7486,-4.6764,-4.6436,-4.6274,-4.6244,-4.683,-4.7489,-4.8177,-4.8147,-4.8476,-4.9209,-4.9179,-4.9209,-4.9269,-4.9269,-4.9269,-4.9299,-4.9299,-4.9299,-4.9299,-4.9209,-4.9149,-4.9239,-4.9164,-4.8775,-4.8295,-4.8925,-4.8745,-4.8237,0.0,0.0,0.0,0.0,0.0,-5.46,-5.3188,-5.2779,-5.2549,-5.2369,-5.3555,-5.4803,-5.5831,-5.8107,-5.9538,-5.9538,-6.075,-6.119,-6.0382,-5.9612,-5.8584,-5.7189,-5.6397,-5.6587,-5.7845,-5.8148,-5.8663,-5.9302,-5.9844,-6.0114,-6.008,-5.9844,-5.9471,-5.8998,-5.8727,-5.8334,-5.7872,-5.7326,-5.6133,-5.4529,-5.3414,-5.1217,0.0,0.0,0.0,0.0,0.0,0.0,0.0,0.0,0.0,0.0,0.0,0.0,0.0,0.0,0.0,0.0,0.0,0.0,0.0,0.0,0.0,0.0,0.0,0.0,0.0,0.0,0.0,0.0,0.0,0.0,0.0,0.0,0.0,0.0,0.0,0.0,0.0,-5.1165,-4.926,0.0,-4.8632,-4.8264,-4.7722,-4.6977,-4.7258,-4.7364,-4.711,-4.7014,-4.677,-4.6279,-4.6518,-4.698,-4.7638,-4.7249,-4.7788,-4.9299,-4.888,-4.9075,-4.9883,-4.9883,-5.0122,-5.0511,-5.0511,-5.0511,-5.0511,-5.0511,-5.0032,-4.9299,-4.9299,-4.9179,-4.9,-4.9209,-4.9179,-4.9,0.0,0.0,0.0,-5.5703,-5.547,-5.4943,-5.3823,-5.3428,-5.3516,-5.4301,-5.5354,-5.6748,-5.8621,-6.0786,-6.1961,-6.1667,-6.2622,-6.2658,-6.1263,-6.0199,-5.9134,-5.8033,-5.8253,-5.8772,-5.9538,-5.9769,-6.0203,-6.0892,-6.0892,-6.0892,-6.0858,-6.0622,-6.0114,-5.937,-5.937,-5.8964,-5.8287,-5.8524,-5.7509,-5.5649,-5.4905,-5.2942,-5.0439,0.0,0.0,0.0,0.0,0.0,0.0,0.0,0.0,0.0,0.0,0.0,0.0,0.0,0.0,0.0,0.0,0.0,0.0,0.0,0.0,0.0,0.0,0.0,0.0,0.0,0.0,0.0,0.0,0.0,0.0,0.0,0.0,0.0,0.0,-4.9607,-4.9336,-5.1267,-4.9336,-4.8232,-4.899,-4.8386,-4.7698,-4.704,-4.7399,-4.7429,-4.701,-4.7189,-4.701,-4.6309,-4.6741,-4.7309,-4.7967,-4.7758,-4.8416,-4.9912,-4.9494,-4.9733,-5.0524,-5.0524,-5.0764,-5.1229,-5.1229,-5.1229,-5.1229,-5.1229,-5.069,-4.9912,-4.9912,-4.9912,-4.9912,-4.9912,-4.9912,-4.9912,0.0,-5.5703,-5.5703,-5.5703,-5.5703,-5.5423,-5.4625,-5.4538,-5.509,-5.6647,-5.8253,-6.0138,-6.256,-6.431,-6.5007,-6.42,-6.4127,-6.3099,-6.0639,-6.0419,-5.9722,-5.8143,-6.0395,-6.1298,-6.0528,-6.2666,-6.3311,-6.2381,-6.2381,-6.2381,-6.2381,-6.167,-6.0926,-6.0148,-6.0148,-5.9742,-5.9099,-5.981,-5.9268,-5.778,-5.5581,-5.4262,-5.3315,0.0,0.0,0.0,0.0,0.0,0.0,0.0,0.0,0.0,0.0,0.0,0.0,0.0,0.0,0.0,0.0,0.0,0.0,0.0,0.0,0.0,0.0,0.0,0.0,0.0,0.0,0.0,0.0,0.0,0.0,0.0,0.0,0.0,-4.9396,-4.8329,-4.7818,-4.912,-4.8686,-4.8566,-4.9209,-4.9269,-4.9,-4.8297,-4.8267,-4.7698,-4.6369,-4.695,-4.701,-4.6339,-4.7578,-4.8566,-4.9299,-4.9883,-5.0495,-5.1229,-5.1229,-5.1229,-5.1229,-5.1229,-5.1229,-5.1229,-5.1229,-5.1229,-5.1229,-5.1229,-5.1259,-5.1259,-5.1229,-5.1229,-5.1229,-5.1229,-5.1229,-5.1229,-5.5703,-5.5703,-5.5703,-5.5703,-5.5703,-5.5543,-5.4988,-5.5163,-5.6021,-5.786,-5.9241,-6.1006,-6.3466,-6.4677,-6.5228,-6.5007,-6.4971,-6.4163,-6.223,-6.1043,-6.0199,-5.9758,-6.2,-6.3154,-6.2868,-6.3414,-6.3293,-6.2381,-6.2381,-6.2381,-6.2381,-6.2178,-6.167,-6.096,-6.096,-6.052,-5.981,-6.0013,-5.9877,-5.9336,-5.7645,-5.6224,-5.4938,0.0,0.0,0.0,0.0,0.0,0.0,0.0,0.0,0.0,0.0,0.0,0.0,0.0,0.0,0.0,0.0,0.0,0.0,0.0,0.0,0.0,0.0,0.0,0.0,0.0,0.0,0.0,0.0,0.0,0.0,0.0,-4.701,-4.7829,-4.7981,-4.8036,-4.8147,-4.8506,-4.885,-4.894,-4.8566,-4.8566,-4.8297,-4.7638,-4.7578,-4.7429,-4.704,-4.7219,-4.7219,-4.704,-4.7399,-4.8117,-4.9299,-4.9434,-5.0092,-5.1229,-5.1229,-5.1229,-5.1229,-5.1229,-5.1229,-5.1229,-5.1229,-5.1229,-5.1259,-5.1738,-5.1947,-5.1887,-5.1409,-5.1229,-5.1229,-5.1229,-5.1229,-5.1229,-5.5703,-5.5703,-5.5703,-5.5703,-5.5703,-5.5566,-5.516,-5.5466,-5.6657,-5.9309,-6.0402,-6.2108,-6.5264,-6.6035,-6.6182,-6.5852,-6.5191,-6.409,-6.2401,-6.1741,-6.1887,-6.2915,-6.4585,-6.533,-6.4907,-6.4453,-6.3793,-6.2969,-6.2581,-6.255,-6.2854,-6.2516,-6.2178,-6.1772,-6.1772,-6.1332,-6.0622,-6.0926,-6.1061,-6.0892,-5.9099,-5.7679,-5.6461,-5.5006,-5.3213,-5.1497,-5.1526,-5.0855,-5.0057,-5.0919,0.0,0.0,0.0,0.0,0.0,0.0,0.0,0.0,0.0,0.0,0.0,0.0,0.0,0.0,0.0,0.0,0.0,0.0,0.0,0.0,0.0,0.0,0.0,0.0,-4.7848,-4.8566,-4.8177,-4.8446,-4.8686,-4.8686,-4.909,-4.9179,-4.8745,-4.8686,-4.8416,-4.7758,-4.7728,-4.7608,-4.7309,-4.7818,-4.7997,-4.7728,-4.8775,-4.9583,-5.0092,-5.0631,-5.1289,-5.2037,-5.2037,-5.2037,-5.2037,-5.2037,-5.2037,-5.2037,-5.2037,-5.2037,-5.2067,-5.2456,-5.2606,-5.2546,0.0,0.0,0.0,0.0,-5.1439,-5.1229,-5.5742,-5.5703,-5.5703,-5.5703,-5.5703,-5.5577,-5.5212,-5.5601,-5.7195,-6.0815,-6.1641,-6.3407,-6.7342,-6.7784,-6.75,-6.6696,-6.5228,-6.3649,-6.1998,-6.2658,-6.4127,-6.6402,-6.7357,-6.7468,-6.6686,-6.574,-6.4844,-6.3962,-6.309,-6.2956,-6.3497,-6.2821,-6.2482,-6.2381,-6.2381,-6.2042,-6.1467,-6.211,-6.2381,-6.2212,-6.0114,-5.8761,-5.7848,-5.6292,-5.4207,-5.2293,-5.3345,-5.2165,-5.0212,-5.1329,0.0,0.0,0.0,0.0,0.0,0.0,0.0,0.0,0.0,0.0,0.0,0.0,0.0,0.0,0.0,0.0,0.0,0.0,0.0,0.0,0.0,0.0,0.0,0.0,-4.8566,-4.9419,-4.9419,-4.9479,-4.9479,-4.9329,-4.9389,-4.9359,-4.9209,-4.9269,-4.903,-4.8327,-4.8356,-4.8147,-4.7549,-4.8716,0.0,0.0,0.0,-5.1858,-5.1319,-5.2486,-5.3114,-5.3174,-5.3174,-5.3174,-5.3174,-5.3174,-5.3174,-5.3174,-5.3174,-5.3174,-5.3204,-5.3264,-5.3294,-5.3234,-5.2576,-5.2665,-5.3114,-5.2516,-5.1947,-5.1439,-5.5972,-5.5703,-5.5703,-5.5703,-5.5703,-5.5692,-5.5588,-5.6511,-5.8441,-6.1788,-6.3182,-6.4982,-6.802,-6.8357,-6.8124,-6.752,-6.6586,-6.5338,-6.3723,-6.4383,-6.5338,-6.6439,-6.7907,-6.8564,-6.8311,-6.7344,-6.6427,-6.5558,-6.4664,-6.3937,-6.3531,-6.3362,-6.2956,-6.2381,-6.2381,-6.2313,-6.2178,-6.2347,-6.2381,-6.2313,-6.1264,-6.0013,-5.8558,-5.6494,-5.4843,-5.3746,-5.4892,-5.3971,-5.2554,-5.4253,-5.3619,-5.23,-5.3551,-5.2672,0.0,0.0,0.0,0.0,0.0,0.0,0.0,0.0,0.0,0.0,0.0,0.0,0.0,0.0,0.0,0.0,0.0,0.0,0.0,-4.888,-4.9553,-5.0016,-5.0016,-5.0511,-5.0451,-4.9449,-4.9733,-4.9643,-4.8566,-4.9,-4.903,-4.8327,-4.882,-4.906,-4.894,-4.9613,-4.9956,-4.9807,-5.087,-5.1588,-5.2007,-5.2247,-5.2665,-5.3174,-5.3174,0.0,-5.3174,-5.3174,-5.3174,-5.3174,-5.3174,-5.3174,-5.3234,-5.3773,-5.4012,-5.3952,-5.3264,-5.3084,-5.3174,-5.3025,-5.2905,-5.2785,-5.7242,-5.7011,-5.7011,-5.7011,-5.7011,-5.7011,-5.7011,-5.7685,-5.9235,-6.214,-6.3224,-6.4745,-6.7353,-6.7031,-6.6546,-6.6248,-6.526,-6.4494,-6.4127,-6.5228,-6.6439,-6.765,-6.8458,-6.8879,-6.8874,-6.7914,-6.7183,-6.667,-6.5365,-6.4527,-6.4038,-6.3294,-6.2956,-6.2922,-6.255,-6.2381,-6.2381,-6.2381,-6.2381,-6.2313,-6.1603,-6.0858,-5.9945,-5.8084,-5.6251,-5.4774,-5.5866,-5.5077,-5.3713,-5.5194,-5.4938,-5.416,-5.4905,-5.3984,-5.2485,0.0,0.0,0.0,0.0,0.0,0.0,0.0,0.0,0.0,0.0,0.0,0.0,0.0,0.0,-4.8775,-4.8775,0.0,-4.9763,-4.9763,-5.0301,-5.0674,-5.0674,-5.1289,-5.1109,-4.9509,-4.9853,-4.9687,-4.8416,-4.894,-4.9299,-4.9254,-4.9254,-4.9449,-4.9733,-5.069,-5.1079,-5.0704,-5.2336,-5.3204,-5.3204,-5.3533,-5.3862,-5.4192,-5.4192,-5.4192,-5.4192,-5.4192,-5.4192,-5.4192,-5.4192,-5.4192,-5.4221,-5.4551,-5.47,-5.467,-5.4311,-5.3773,-5.3234,-5.3563,-5.3473,-5.3174,-5.8896,-5.8781,-5.8665,-5.8357,-5.8319,-5.8319,-5.8319,-5.8821,-5.9998,-6.2337,-6.3215,-6.4401,-6.6484,-6.5735,-6.4892,-6.4376,-6.3688,-6.3539,-6.4053,-6.5742,-6.7393,-6.8862,-6.8898,-6.8972,-6.9119,-6.8269,-6.7752,-6.7573,-6.611,-6.5127,-6.4631,-6.3441,-6.3135,-6.3503,-6.2931,-6.2774,-6.2893,-6.2702,-6.2659,-6.2586,-6.1816,-6.1434,-6.1163,-5.9945,-5.7997,-5.6073,-5.708,-5.6281,-5.4878,-5.5802,-5.6055,-5.5884,-5.5638,-5.4922,-5.3924,-5.2589,-5.135,0.0,0.0,0.0,0.0,0.0,0.0,0.0,0.0,-4.9464,-4.9494,-4.9613,-5.0062,-5.0272,-4.9733,-5.0511,-5.1003,-5.0465,-5.0823,-5.1259,-5.1379,-5.1858,-5.1618,-5.0078,-5.0301,-5.0046,-4.8775,-4.9254,-4.9853,-5.0345,-5.0062,-5.0122,-5.078,-5.1947,-5.2336,-5.1828,-5.4012,-5.494,-5.4401,-5.491,-5.5179,-5.5179,-5.5179,-5.5179,-5.5179,-5.5179,-5.5179,-5.5179,-5.5179,-5.5179,-5.5179,-5.5179,-5.5179,-5.5179,-5.5179,-5.4521,-5.3623,-5.4192,-5.4042,-5.3563,-6.055,-6.0512,-6.005,-5.855,-5.8319,-5.8319,-5.8319,-5.9592,-6.1233,-6.2989,-6.4616,-6.5757,-6.6293,-6.6231,-6.5159,-6.278,-6.407,-6.4751,-6.4127,-6.6256,-6.7944,-6.8862,-6.8898,-6.9229,-6.9963,-6.9037,-6.8548,-6.8526,-6.7538,-6.6249,-6.4781,-6.4608,-6.4228,-6.3675,-6.3572,-6.4007,-6.4665,-6.3864,-6.3537,-6.3464,-6.2634,-6.1873,-6.1298,-6.1129,-5.9834,-5.8283,-5.9367,-5.8557,-5.7093,-5.7517,-5.7205,-5.652,-5.5501,-5.5051,-5.4835,-5.4574,-5.3551,-5.2513,-5.261,-5.1349,-4.9717,-4.8686,-4.8939,-4.9584,0.0,-5.0076,-5.0255,-5.087,-5.105,-5.1079,-5.102,-5.1109,-5.1199,-5.1109,-5.1169,-5.1439,-5.2007,-5.2157,-5.2127,-5.1887,-5.1947,-5.1468,-5.0106,-5.0554,-5.102,-5.1063,-5.1588,-5.2157,-5.2815,-5.3563,-5.3952,-5.3892,-5.473,-5.5149,-5.5089,-5.5149,-5.5179,-5.5179,-5.5179,-5.5179,-5.5179,-5.5179,-5.5179,-5.5179,-5.5179,-5.5179,-5.5179,-5.5179,-5.5179,-5.5179,-5.5179,-5.5089,-5.497,-5.5059,-5.5029,-5.497,-6.1562,-6.1562,-6.1331,-6.0627,-6.0089,-5.9742,-5.9742,-6.0358,-6.1396,-6.3077,-6.3512,-6.4116,-6.5172,-6.4206,-6.2572,-6.0397,-6.2672,-6.3983,-6.3381,-6.6072,-6.7834,-6.8201,-6.8201,-6.8568,-6.9376,-6.9003,-6.8777,-6.8687,-6.7868,-6.6823,-6.5549,-6.5128,-6.4742,-6.4461,-6.4461,-6.4631,-6.4966,-6.4597,-6.4148,-6.3683,-6.3314,-6.2685,-6.1941,-6.1941,-6.147,-6.0717,-6.0266,-5.9342,0.0,-5.8984,-5.8693,-5.8079,-5.8039,-5.6803,-5.5495,-5.5839,-5.4264,-5.2469,-5.26,-5.1738,-5.0614,-5.0122,-5.0212,-5.0481,-5.0704,-5.0764,-5.0853,-5.1169,-5.1229,-5.1229,-5.1229,-5.1528,-5.1798,-5.1798,-5.2127,-5.2456,-5.2725,-5.3114,-5.3354,-5.3354,-5.3713,-5.3264,-5.1558,-5.1977,-5.2546,-5.2935,-5.2845,-5.3054,-5.3743,-5.4042,-5.4221,-5.4221,-5.485,-5.5179,-5.5179,-5.5179,-5.5179,-5.5179,-5.5179,-5.5179,-5.5179,-5.5179,-5.5179,-5.5179,-5.5179,-5.5179,-5.5179,-5.5179,-5.5179,-5.5179,-5.5179,-5.5179,-5.5179,-5.5179,-5.5179,-5.5179,-6.2101,-6.2293,-6.2358,-6.2139,-6.1601,-6.1166,-6.1166,-6.1166,-6.1743,-6.3435,-6.3166,-6.3166,-6.4128,-6.2331,-6.0501,-5.9214,-6.1595,-6.3126,-6.3001,-6.5735,-6.7467,-6.7687,-6.7687,-6.7944,-6.8568,-6.8568,-6.8511,-6.844,-6.7889,-6.7106,-6.6147,-6.5643,-6.5394,-6.5394,-6.5394,-6.5522,-6.5743,-6.549,-6.4868,-6.4042,-6.3827,-6.3199,-6.2381,-6.2381,-6.2245,-6.1941,-6.0825,-5.9945,-5.9336,-5.9438,-5.9133,-5.8687,-5.8694,-5.7503,-5.626,-5.6819,-5.5328,-5.3295,-5.2222,-5.1708,-5.1409,-5.105,-5.1079,-5.1229,-5.1229,-5.1229,-5.1259,-5.1439,-5.1498,-5.1558,-5.1738,-5.2157,-5.2486,-5.2486,-5.2875,-5.3234,-5.3443,-5.3892,-5.4281,-5.4461,-5.491,-5.461,-5.3174,-5.3294,-5.3683,-5.4162,-5.3743,-5.3773,-5.4431,-5.4491,-5.4491,-5.4491,-5.494,-5.5179,-5.5179,-5.5179,-5.5179,-5.5179,-5.5179,-5.5179,-5.5179,-5.5179,-5.5179,-5.5179,-5.5179,-5.5179,-5.5179,-5.5179,-5.5179,-5.5179,-5.5179,-5.5179,-5.5179,-5.5179,-5.5179,-5.5179,-6.2101,-6.2743,-6.3012,-6.2255,-6.2101,-6.2062,-6.2062,-6.2062,-6.2678,-6.4359,-6.4551,-6.4205,-6.3435,-6.1412,-6.0141,-6.0074,-6.1469,-6.2671,-6.3409,-6.541,-6.688,-6.765,-6.7687,-6.7714,-6.7751,-6.7724,-6.7724,-6.7734,-6.7697,-6.7238,-6.641,-6.6374,-6.6374,-6.6374,-6.6374,-6.6823,-6.7542,-6.67,-6.5811,-6.49,-6.4042,-6.3199,-6.2381,-6.2381,-6.1941,-6.1332,-6.1298,-6.0757,-5.9844,-5.8423,-5.7949,-5.7634,-5.5824,-5.6126,-5.7225,-5.757,-5.727,-5.6025,-5.2248,-5.1708,-5.1858,-5.0554,-5.0704,-5.1229,-5.1229,-5.1229,-5.1409,-5.2037,-5.2187,-5.2366,-5.2995,-5.3144,-5.3144,-5.3144,-5.3174,-5.3414,-5.4072,-5.4192,-5.4431,-5.5089,-5.5179,-5.5179,-5.5089,-5.4551,-5.4192,-5.4221,-5.4192,-5.4461,-5.5119,-5.5149,-5.5149,-5.5149,-5.5179,-5.5179,-5.5179,-5.5179,-5.5179,-5.5179,-5.5179,-5.5179,-5.5179,-5.5179,-5.5179,-5.5179,-5.5179,-5.5179,-5.5179,-5.5179,-5.5179,-5.5179,-5.5179,-5.5179,-5.5179,-5.5179,-5.5179,-5.5179,-6.3012,-6.3589,-6.4089,-6.382,-6.282,-6.2293,-6.282,-6.2435,-6.2474,-6.3589,-6.4243,0.0,0.0,0.0,0.0,0.0,-6.1864,-6.2523,-6.2699,-6.4884,-6.6371,-6.6869,-6.7393,-6.7687,-6.7687,-6.7687,-6.7687,-6.7687,-6.7687,-6.7542,-6.7258,-6.7258,-6.7258,-6.7258,-6.7258,-6.7433,-6.7687,-6.7405,-6.6729,-6.5904,-6.5621,-6.4599,-6.3308,-6.3789,-6.2859,-6.1231,0.0,-5.9708,-5.8558,-5.8051,-5.7577,-5.7169,-5.6972,-5.6778,-5.6464,-5.598,-5.575,-5.5146,-5.3062,-5.2366,-5.1977,-5.1109,-5.1003,-5.1229,-5.1229,-5.1229,-5.1409,-5.2067,-5.2187,-5.2396,-5.3054,-5.3563,-5.3862,-5.3862,-5.4221,-5.461,-5.482,-5.485,-5.494,-5.5149,-5.5918,-5.6085,-5.528,-5.4999,-5.5219,-5.601,-5.5318,-5.531,-5.6347,-5.5651,-5.5179,-5.5179,-5.5179,-5.5179,-5.5179,-5.5179,-5.5179,-5.5179,-5.5179,-5.5179,-5.5179,-5.5179,-5.5179,-5.5179,-5.5179,-5.5179,-5.5179,-5.5179,-5.5179,-5.5179,-5.5179,-5.5179,-5.5179,-5.5179,-5.5179,-5.5179,0.0,-6.5166,-6.5782,-6.5166,-6.3935,0.0,0.0,0.0,0.0,0.0,0.0,0.0,0.0,0.0,0.0,0.0,0.0,-6.2753,-6.3218,-6.4417,-6.5464,-6.6284,-6.6644,-6.6696,-6.6402,-6.6402,-6.6549,-6.6843,-6.6843,-6.7136,-6.7687,-6.7687,-6.7687,-6.7687,-6.7687,-6.7687,-6.7687,-6.7687,-6.753,-6.7198,-6.662,-6.5847,-6.4952,-6.428,-6.294,0.0,-5.9824,-5.8524,-5.7408,-5.69,-5.6562,-5.6494,-5.6968,-5.7338,-5.7285,-5.5649,-5.5507,-5.5532,-5.3688,-5.2875,-5.2456,-5.2037,-5.1738,-5.1618,-5.1858,-5.1738,-5.194,-5.3287,-5.3212,-5.326,-5.4346,-5.4567,-5.464,-5.488,-5.5269,-5.5538,-5.5538,-5.5538,-5.5448,-5.5209,-5.5869,-5.6035,-5.528,-5.5179,-5.567,-5.6896,-5.628,-5.6183,-5.6943,-5.625,-5.5651,-5.5179,-5.5179,-5.5179,-5.5179,-5.5179,-5.5179,-5.5179,-5.5179,-5.5179,-5.5179,-5.5179,-5.5179,-5.5179,-5.5179,-5.5179,-5.5179,-5.5179,-5.5179,-5.5179,-5.5179,-5.5179,-5.5179,-5.5179,-5.5179,-5.5179,0.0,0.0,-6.7898,0.0,0.0,0.0,0.0,0.0,0.0,0.0,0.0,0.0,0.0,0.0,0.0,0.0,0.0,0.0,-6.48,-6.4008,-6.4227,-6.5806,-6.5521,-6.4949,-6.4163,-6.4177,-6.4556,-6.5301,-6.5301,-6.6109,-6.7614,-6.7614,-6.765,-6.7687,-6.7687,-6.7687,-6.7687,-6.7687,-6.8106,-6.8553,-6.7005,-6.676,-6.6979,-6.3939,-6.2266,-6.1259,-5.8929,-5.7548,-5.6633,-5.521,-5.5209,-5.5817,-5.5886,-5.7814,-5.9497,-5.6617,-5.6798,-5.7211,-5.4144,-5.335,-5.3301,-5.3223,-5.2744,-5.2522,-5.32,-5.2888,-5.3149,-5.5658,-5.5206,-5.4933,-5.6772,-5.6183,-5.5591,-5.617,-5.626,-5.6209,-5.6188,-5.6188,-5.5897,-5.5269,-5.5229,-5.528,-5.5179,-5.5229,-5.5769,-5.6991,-5.6991,-5.6943,-5.7086,-5.7039,-5.6493,-5.5431,-5.5381,-5.5381,-5.528,-5.5229,-5.5179,-5.5179,-5.5179,-5.5179,-5.5179,-5.5179,-5.5179,-5.5179,-5.5179,-5.5179,-5.5179,-5.5179,-5.5179,-5.5179,-5.5179,-5.5179,-5.5179,-5.5179,-5.5179,-5.5179,0.0,0.0,0.0,0.0,0.0,0.0,0.0,0.0,0.0,0.0,0.0,0.0,0.0,0.0,0.0,0.0,0.0,0.0,-6.3215,-6.3546,-6.3842,-6.413,-6.4983,-6.5299,-6.4997,-6.5336,-6.5447,-6.5301,-6.5301,-6.5815,-6.6806,-6.6806,-6.7136,-6.7687,-6.7687,-6.7687,-6.7687,-6.7687,-6.7469,-6.7049,-6.6647,-6.6162,-6.5674,-6.5426,-6.4127,-6.2242,-6.1016,-5.9357,-5.7568,-5.6572,-5.6731,-5.7442,-5.8017,-5.8693,-5.9174,-5.8675,-5.8754,-5.8517,-5.5953,-5.5298,-5.4969,-5.3537,-5.3763,-5.4468,-5.5191,-5.5499,-5.6125,-5.7833,-5.748,-5.7186,-5.8187,-5.8085,-5.7637,-5.6902,-5.6787,-5.6476,-5.557,-5.5448,-5.5388,-5.5209,-5.5986,-5.6183,-5.528,-5.5986,-5.7039,-5.8268,-5.6686,-5.6445,-5.8268,-5.748,-5.7245,-5.7854,-5.7854,-5.7465,-5.6541,-5.5651,-5.5179,-5.5179,-5.5179,-5.5179,-5.5179,-5.5179,-5.5179,-5.5179,-5.5179,-5.5179,-5.5179,-5.5179,-5.5179,-5.5179,-5.5179,-5.5179,-5.5179,-5.5179,-5.5179,-5.5179,0.0,0.0,0.0,0.0,0.0,0.0,0.0,0.0,0.0,0.0,0.0,0.0,0.0,0.0,0.0,0.0,0.0,0.0,0.0,-6.2794,-6.2962,-6.4142,-6.393,-6.352,-6.2983,-6.3016,-6.3558,-6.462,-6.3477,-6.429,-6.6815,-6.5731,-6.5299,-6.5558,-6.5558,-6.5558,-6.5558,-6.5962,-6.6476,0.0,0.0,-6.682,-6.7193,-6.6198,-6.498,-6.3601,-6.2052,-6.0634,-5.9383,-5.8945,-5.8592,-5.8524,-5.9268,-5.9742,-5.9919,-5.9595,-5.9729,-5.9647,-5.8137,-5.7728,-5.7557,-5.6838,-5.6887,-5.7207,-5.727,-5.7529,-5.802,-5.8983,-5.8666,-5.851,-5.9414,-5.917,-5.8683,-5.831,-5.8201,-5.7807,-5.661,-5.6442,-5.6103,-5.531,-5.5769,-5.5967,-5.528,-5.5819,-5.6735,-5.79,-5.7229,-5.7574,-5.9478,-5.8947,-5.8677,-5.8812,-5.8812,-5.8223,-5.7039,-5.5819,-5.5179,-5.5179,-5.5179,-5.5179,-5.5179,-5.5179,-5.5179,-5.5179,-5.5179,-5.5179,-5.5179,-5.5179,-5.5179,-5.5179,-5.5179,-5.5179,-5.5179,-5.5179,-5.5179,-5.5179,0.0,0.0,0.0,0.0,0.0,0.0,0.0,0.0,0.0,0.0,-6.3051,-6.3782,-6.4512,-6.5397,0.0,0.0,0.0,0.0,0.0,0.0,-6.1957,-6.4394,-6.2645,-6.1158,-6.0066,-5.9686,-6.0706,-6.3258,-6.105,-6.2219,-6.6491,-6.4279,-6.3104,-6.278,-6.278,-6.278,-6.2853,-6.3723,-6.5301,-6.7173,-6.6586,-6.765,-6.932,0.0,-6.5374,-6.5062,-6.2525,-6.1595,-6.1456,-6.1337,-6.0486,-5.9573,-6.0216,-6.0892,-6.1239,-6.0189,-6.0399,-6.0882,-6.0308,-6.0219,-6.0399,-6.0885,-6.0656,-6.0135,-5.937,-5.9278,-5.9459,-5.9804,-5.951,-5.9469,-6.0628,-5.9957,-5.9407,-5.9839,-5.989,-5.9479,-5.8292,-5.7987,-5.7266,-5.5611,-5.528,-5.528,-5.5401,-5.5451,-5.6017,-5.7386,-5.8451,-5.9478,-6.0544,-6.0586,-6.0204,-5.9302,-5.9125,-5.8451,-5.7245,-5.6035,-5.5381,-5.5179,-5.5381,-5.5381,-5.5179,-5.5381,-5.5451,-5.5451,-5.5451,-5.5451,-5.5451,-5.5451,-5.533,-5.5179,-5.5179,-5.5179,-5.5179,-5.5179,-5.528,-5.5451,0.0,0.0,0.0,0.0,0.0,0.0,0.0,0.0,0.0,0.0,-6.4282,-6.4436,0.0,0.0,0.0,0.0,0.0,0.0,0.0,0.0,0.0,-6.142,-6.1676,-6.1355,-6.0351,-6.0663,-6.0907,-6.0977,-6.0549,-6.1101,-6.256,-6.2131,-6.2242,-6.278,-6.278,-6.278,-6.2853,-6.3723,-6.4347,-6.4751,-6.5301,-6.6145,-6.7063,-6.6489,0.0,0.0,-6.3391,-6.2436,-6.2251,-6.1571,-6.1535,-6.1806,-6.1941,-6.2076,-6.2139,-6.1981,-6.2407,-6.2736,-6.1683,-6.1808,-6.208,-6.1198,-6.1665,-6.2147,-6.1349,-6.1509,-6.1803,-6.1902,-6.1339,-6.1092,-6.1929,-6.1951,-6.1473,-6.0581,-6.0453,-6.0022,-5.8824,-5.7809,-5.7019,-5.6735,-5.5819,-5.5601,-5.659,-5.6656,-5.7621,-5.9827,-6.0161,-6.0374,-6.0586,-6.0586,-6.0953,-6.1756,-6.0828,-5.9697,-5.8496,-5.7323,-5.6183,-5.5179,-5.6232,-5.6183,-5.5229,-5.6232,-5.6656,-5.6656,-5.6656,-5.6656,-5.6656,-5.6656,-5.6085,-5.5179,-5.5179,-5.5179,-5.5179,-5.5179,-5.5819,-5.6656,0.0,0.0,0.0,0.0,0.0,0.0,0.0,-6.5282,-6.559,-6.6474,-6.6974,-6.6744,-6.5436,-6.6013,-6.6167,0.0,0.0,0.0,0.0,0.0,0.0,-6.1657,-6.1316,-6.0837,-6.0189,-5.976,-6.0283,-6.1852,0.0,-6.012,-6.2412,-6.084,-6.0172,-6.0309,-6.0309,-6.0309,-6.0346,-6.119,-6.2291,-6.3503,-6.4347,-6.5668,-6.71,-6.71,0.0,0.0,-6.5088,-6.4021,-6.3093,-6.2687,-6.2506,-6.2381,-6.2381,-6.2381,-6.2482,-6.2854,-6.3226,-6.3546,-6.3726,-6.4036,-6.4276,-6.409,-6.4451,-6.4361,-6.249,-6.2529,-6.255,-6.096,-6.0994,-6.14,-6.1772,-6.2144,-6.2189,-6.1635,-6.1554,-6.1152,-5.9913,-5.9258,-5.8419,-5.715,-5.7039,-5.7039,-5.6991,-5.7574,-5.8677,-6.0459,-6.0586,-6.087,-6.148,-6.1554,-6.1797,-6.2381,-6.1235,-6.0332,-5.974,-5.7946,-5.6704,-5.6134,-5.6704,-5.6735,-5.6183,-5.7418,-5.7946,-5.79,-5.7245,-5.6991,-5.6943,-5.6299,-5.572,-5.5179,-5.5179,-5.5601,-5.6134,-5.6134,-5.6896,-5.7946,0.0,0.0,0.0,0.0,0.0,0.0,0.0,-6.7128,-6.7513,-6.9013,-6.9821,-6.9398,-6.7205,-6.7359,-6.6974,0.0,0.0,0.0,0.0,0.0,0.0,0.0,0.0,0.0,-5.9834,0.0,0.0,-6.2352,-5.9668,0.0,0.0,0.0,0.0,0.0,-5.851,-5.851,-5.8584,-5.9391,-6.0909,0.0,0.0,-6.5705,-6.7751,0.0,0.0,0.0,0.0,-6.5743,-6.4463,-6.4077,-6.3425,-6.2697,-6.2697,-6.2542,-6.2584,-6.3497,-6.3768,-6.4038,-6.5324,-6.5797,-6.6068,-6.6677,-6.6812,-6.6034,-6.3057,-6.2854,-6.2448,-5.9607,-5.9979,-6.0926,-6.1231,-6.1772,-6.2212,-6.2347,-6.2381,-6.207,-6.1119,-6.0787,-5.987,-5.7993,-5.8405,-5.8542,-5.7854,-5.8632,-5.9697,-6.0912,-6.0995,-6.1399,-6.2341,-6.2381,-6.2381,-6.2381,-6.148,-6.087,-6.0586,-5.869,-5.7668,-5.7386,-5.7668,-5.7621,-5.7434,-5.8632,-5.917,-5.9125,-5.8177,-5.7761,-5.7714,-5.6735,-5.6183,-5.5967,-5.5967,-5.6541,-5.7386,-5.7386,-5.8177,-5.917,0.0,0.0,0.0,0.0,0.0,0.0,0.0,-6.9513,-7.0783,-7.1706,-7.1898,-7.1591,-7.0552,-6.986,-6.8744,0.0,0.0,0.0,0.0,0.0,0.0,0.0,0.0,0.0,0.0,0.0,0.0,-5.9555,-6.0685,0.0,0.0,0.0,0.0,0.0,0.0,-6.0199,-6.0236,-6.1043,0.0,0.0,0.0,0.0,0.0,0.0,0.0,0.0,0.0,-6.7389,-6.6998,-6.5412,-6.4288,-6.3574,-6.3574,-6.3011,-6.2651,-6.4072,-6.4512,-6.4681,-6.5459,-6.6203,-6.6745,-6.6779,-6.6812,-6.6034,-6.3057,-6.2448,-6.1839,-5.9505,-5.9133,-5.9641,-6.1028,-6.1366,-6.1603,-6.2279,-6.2381,-6.2341,-6.2263,-6.1317,-6.0501,-6.0289,-5.939,-5.917,-6.0204,-6.0374,-6.0953,-6.215,-6.2263,-6.2302,-6.2381,-6.2381,-6.2381,-6.2381,-6.2302,-6.1716,-6.0586,-6.0374,-5.9697,-5.8632,-5.974,-5.9697,-5.8677,-5.987,-6.0417,-6.0417,-6.0332,-6.0289,-6.0289,-6.0161,-5.9478,-5.8451,-5.8451,-5.8542,-5.8632,-5.8632,-5.939,-6.0417,0.0,0.0,0.0,0.0,0.0,0.0,-6.9744,-7.0052,-7.086,-7.2745,-7.2976,-7.286,-7.2514,-7.2168,-7.0898,-6.8129,0.0,0.0,0.0,0.0,0.0,0.0,0.0,0.0,0.0,0.0,-6.2058,-6.2521,-6.1874,0.0,0.0,0.0,0.0,0.0,0.0,-6.0419,-6.0419,-6.075,0.0,0.0,0.0,0.0,0.0,0.0,0.0,0.0,0.0,0.0,-6.7492,-6.6823,-6.5655,-6.4462,-6.4384,-6.4117,-6.3943,-6.4477,-6.4918,-6.5425,-6.617,-6.6576,-6.6812,-6.6812,-6.6474,-6.5493,-6.2956,-6.2042,-6.1095,-5.8795,-5.9032,-5.9844,-6.0452,-6.1332,-6.2042,-6.2347,-6.2381,-6.2381,-6.2381,-6.1991,-6.1399,-6.0703,-6.0828,-6.087,-6.0628,-6.1276,-6.1877,-6.2341,-6.2381,-6.2381,-6.2381,-6.2381,-6.2381,-6.2381,-6.2381,-6.215,-6.1676,-6.0953,-6.0374,-5.987,-6.0374,-6.0332,-5.9913,-6.1119,-6.1676,-6.1635,-6.0912,-6.0586,-6.0544,-5.9827,-5.9214,-5.8812,-5.8812,-5.9258,-5.987,-5.987,-6.0628,-6.1676,0.0,0.0,0.0,0.0,0.0,-6.9552,-7.0706,-7.0629,-7.1168,-7.3245,-7.3283,-7.3206,-7.3476,-7.3053,-7.186,-6.9706,-6.8513,0.0,0.0,0.0,0.0,0.0,0.0,0.0,0.0,0.0,-6.3996,-6.4887,-6.3911,-6.3321,0.0,0.0,-6.1594,-6.1117,0.0,0.0,0.0,0.0,0.0,-6.3319,0.0,0.0,0.0,0.0,0.0,0.0,0.0,0.0,0.0,0.0,0.0,-6.5756,-6.5686,-6.5229,-6.4813,-6.4903,-6.529,-6.5865,-6.6609,-6.6812,-6.6812,-6.6812,-6.6237,-6.5121,-6.2888,-6.1839,-6.0655,-5.8355,-5.8896,-5.9844,-6.0047,-6.1163,-6.2144,-6.2347,-6.2381,-6.2381,-6.2381,-6.2381,-6.207,-6.1235,-6.1877,-6.207,-6.1201,-6.1877,-6.2381,-6.2381,-6.2381,-6.2381,-6.2381,-6.2381,-6.2381,-6.2381,-6.2381,-6.2381,-6.2381,-6.1554,-6.1119,-6.1119,-6.1119,-6.1119,-6.116,-6.203,-6.2381,-6.2341,-6.148,-6.1119,-6.1036,-6.0204,-5.987,-5.987,-5.987,-6.0374,-6.1119,-6.1119,-6.1676,-6.2381,0.0,0.0,0.0,0.0,0.0,0.0,-7.0898,-7.1629,-7.2476,-7.3399,-7.2745,-7.2552,-7.3399,-7.1975,-7.1245,-7.2091,-7.0629,0.0,0.0,0.0,0.0,0.0,0.0,0.0,0.0,0.0,-6.5301,-6.5301,-6.6843,-6.6806,-6.5264,-6.5264,-6.4383,-6.278,0.0,0.0,0.0,0.0,-6.4053,0.0,0.0,0.0,-6.9082,0.0,0.0,0.0,0.0,0.0,0.0,0.0,0.0,0.0,0.0,-6.6303,-6.4916,-6.5515,-6.5662,-6.5865,-6.6609,-6.6812,-6.6812,-6.6812,-6.6237,-6.5121,-6.2888,-6.1839,-6.0655,-5.8355,-5.849,-5.9235,-5.9979,-6.0757,-6.1535,-6.2279,-6.2381,-6.2381,-6.2381,-6.2381,-6.2381,-6.2381,-6.2381,-6.2381,-6.2381,-6.2381,-6.2381,-6.2381,-6.2381,-6.2381,-6.2381,-6.2381,-6.2381,-6.2381,-6.2381,-6.2381,-6.2381,-6.2381,-6.2381,-6.2381,-6.2381,-6.2381,-6.2381,-6.2381,-6.2381,-6.2381,-6.2381,-6.2381,-6.2381,-6.2381,-6.2341,-6.2341,-6.2341,-6.2381,-6.2381,-6.2381,-6.2381,-6.2381,0.0,0.0,0.0,0.0,0.0,0.0,0.0,-7.1129,-7.1629,-7.2514,-7.236,-7.2514,-7.3399,-7.2476,-7.1898,-7.2168,0.0,0.0,0.0,0.0,0.0,0.0,0.0,0.0,0.0,-6.6806,-6.721,-6.776,-6.7724,-6.743,-6.6916,-6.6366,-6.5558,-6.4505,-6.4505,-6.4505,0.0,-6.4824,0.0,0.0,0.0,-6.7357,-6.8201,0.0,0.0,0.0,0.0,0.0,0.0,0.0,0.0,0.0,0.0,0.0,0.0,-6.5102,-6.529,-6.5865,-6.6609,-6.6812,-6.6677,-6.617,-6.5493,-6.4377,-6.2144,-6.1028,-5.9979,-5.8254,-5.8896,-5.981,-6.0047,-6.1163,-6.211,-6.2347,-6.2381,-6.2381,-6.2381,-6.2381,-6.2381,-6.2381,-6.2381,-6.2381,-6.2381,-6.2381,-6.2381,-6.2381,-6.2381,-6.2381,-6.2381,-6.2381,-6.2381,-6.2381,-6.2381,-6.2381,-6.2381,-6.2381,-6.2381,-6.2381,-6.2381,-6.2381,-6.2381,-6.2381,-6.2381,-6.2381,-6.2381,-6.2381,-6.2381,-6.2381,-6.2381,-6.2381,-6.2381,-6.2381,-6.2381,-6.2381,-6.2381,-6.2381,0.0,0.0,0.0,0.0,0.0,0.0,0.0,-7.0898,-7.1091,-7.1629,-7.1706,-7.2052,-7.2899,-7.2245,-7.1822,-7.2168,0.0,0.0,0.0,0.0,0.0,0.0,0.0,0.0,-6.7687,-6.7687,-6.8238,-6.9339,-6.8862,-6.8605,-6.8568,-6.7797,-6.6806,-6.5742,-6.5448,-6.5301,0.0,-6.6292,0.0,0.0,-6.7614,-6.7797,-6.7797,0.0,0.0,0.0,0.0,0.0,0.0,0.0,0.0,0.0,0.0,0.0,0.0,0.0,-6.4801,-6.5155,-6.6474,-6.6812,-6.6643,-6.5865,-6.4918,-6.37,-6.1738,-6.0452,-5.9336,-5.8152,-5.9066,-6.0114,-6.0114,-6.1366,-6.2381,-6.2381,-6.2381,-6.2381,-6.2381,-6.2381,-6.2381,-6.2381,-6.2381,-6.2381,-6.2381,-6.2381,-6.2381,-6.2381,-6.2381,-6.2381,-6.2381,-6.2381,-6.2381,-6.2381,-6.2381,-6.2381,-6.2381,-6.2381,-6.2381,-6.2381,-6.2381,-6.2381,-6.2381,-6.2381,-6.2381,-6.2381,-6.2381,-6.2381,0.0,-6.2381,-6.2381,-6.2381,-6.2381,-6.2381,-6.2381,-6.2381,-6.2381,-6.2381,0.0,0.0,0.0,0.0,0.0,0.0,0.0,-7.0898,-7.0898,-7.0898,-7.0898,-7.1206,-7.2014,-7.136,-7.1245,-7.2052,0.0,0.0,0.0,0.0,0.0,0.0,0.0,0.0,-6.7687,-6.7787,-6.8531,-7.011,-7.0146,-7.0183,-7.0183,-6.9412,-6.8201,-6.6623,-6.5888,-6.5521,-6.5632,-6.7871,-6.8385,-6.7834,-6.9339,-6.9009,0.0,0.0,0.0,0.0,0.0,0.0,0.0,0.0,0.0,0.0,0.0,0.0,0.0,0.0,0.0,0.0,0.0,-6.6576,-6.6406,-6.5628,-6.441,-6.299,-6.1467,-6.0047,0.0,-5.8051,-5.9032,-6.0047,-6.008,-6.1298,-6.2347,-6.2381,-6.2381,-6.2381,-6.2381,-6.2381,-6.2415,-6.2448,-6.2415,-6.2415,-6.2448,-6.2415,-6.2381,-6.2381,-6.2381,-6.2381,-6.2381,-6.2381,-6.2381,-6.2381,-6.2381,-6.2381,-6.2381,-6.2381,-6.2381,-6.2381,-6.2381,-6.2381,-6.2381,-6.2381,-6.2381,-6.2381,-6.2381,-6.2381,-6.2381,-6.2381,-6.2381,-6.2381,-6.2381,-6.2381,-6.2381,-6.2381,-6.2381,-6.2381,0.0,0.0,0.0,0.0,0.0,0.0,0.0,0.0,0.0,0.0,-7.0898,-7.0975,-7.1168,-7.1014,-7.0975,0.0,0.0,0.0,0.0,0.0,0.0,0.0,0.0,0.0,-6.7687,-6.8311,-6.9082,-7.011,-7.0734,-7.1027,-7.1027,-7.0844,-6.9889,-6.8348,-6.8164,-6.7724,-6.7173,-6.7724,-6.7871,-6.7724,-6.8091,-6.8017,0.0,0.0,0.0,0.0,-6.8458,-6.9449,0.0,0.0,0.0,0.0,0.0,0.0,0.0,0.0,-6.3656,-6.3632,-6.414,0.0,-6.4106,-6.3362,-6.2482,-6.1434,0.0,-5.9268,-5.8795,-5.8051,-5.8626,-5.9438,-6.0013,-6.0892,-6.1738,-6.2313,-6.2381,-6.2381,-6.2381,-6.2381,-6.2618,-6.3193,-6.2753,-6.2618,-6.3193,-6.2719,-6.2381,-6.2381,-6.2381,-6.2381,-6.2381,-6.2381,-6.2381,-6.2381,-6.2381,-6.2381,-6.2381,-6.2381,-6.2381,-6.2381,-6.2381,-6.2381,-6.2381,-6.2381,-6.2381,-6.2381,-6.2381,-6.2381,-6.2381,-6.2381,-6.2381,-6.2381,-6.2381,-6.2381,-6.2381,-6.2381,-6.2381,-6.2381,0.0,0.0,0.0,0.0,0.0,0.0,0.0,0.0,0.0,0.0,0.0,0.0,0.0,0.0,0.0,0.0,0.0,0.0,0.0,0.0,0.0,0.0,0.0,-6.7687,-6.7687,-6.8495,-6.9302,-7.011,-7.0917,-7.1505,-7.1835,-7.1439,-7.066,-6.9412,-6.8678,-6.7907,-6.721,-6.8311,-6.8385,-6.7787,-6.8495,0.0,0.0,0.0,0.0,0.0,-6.7687,-6.8495,0.0,-7.0403,-7.0324,-6.9529,0.0,0.0,0.0,0.0,-6.299,-6.2922,-6.2584,-6.3226,-6.3768,-6.2651,-6.1839,-6.0994,-5.9776,-5.8998,-5.8389,-5.7983,-5.849,-5.9235,-5.9979,-6.1028,-6.1941,-6.2313,-6.2685,-6.2888,-6.2888,-6.2888,-6.3057,-6.3463,-6.3159,-6.2922,-6.299,-6.2618,-6.2381,-6.2381,-6.2381,-6.2381,-6.2381,-6.2381,-6.2381,-6.2381,-6.2381,-6.2381,-6.2381,-6.2381,-6.2381,-6.2381,-6.2381,-6.2381,-6.2381,-6.2381,-6.2381,-6.2381,-6.2381,-6.2381,-6.2381,-6.2381,-6.2381,-6.2381,-6.2381,-6.2381,-6.2381,-6.2381,-6.2618,-6.2888,0.0,0.0,0.0,0.0,0.0,0.0,0.0,0.0,0.0,0.0,0.0,0.0,0.0,0.0,0.0,0.0,0.0,0.0,0.0,0.0,0.0,0.0,-6.8238,-6.7871,-6.7871,-6.8678,-6.9486,-7.0293,-7.1101,-7.1835,-7.2496,-7.1798,-7.0917,-6.9853,-6.8348,-6.7247,-6.6623,-6.8788,-6.8935,-6.7824,-6.9155,0.0,0.0,0.0,0.0,0.0,0.0,0.0,0.0,-7.011,-7.0288,-6.9565,-6.7639,0.0,0.0,0.0,0.0,0.0,-6.1434,-6.2753,-6.3869,-6.2279,-6.14,-6.0757,-5.9945,-5.8795,-5.7881,-5.7881,-5.849,-5.9235,-5.9979,-6.1264,-6.2313,-6.2516,-6.3091,-6.3463,-6.3362,-6.3328,-6.3396,-6.3497,-6.3429,-6.3125,-6.2618,-6.2448,-6.2381,-6.2381,-6.2381,-6.2448,-6.255,-6.2448,-6.2482,-6.2719,-6.2516,-6.2448,-6.255,-6.2448,-6.2381,-6.2381,-6.2381,-6.2381,-6.2381,-6.2381,-6.2381,-6.2381,-6.2381,-6.2381,-6.2381,-6.2381,-6.2381,-6.2381,-6.2381,-6.2381,-6.2415,-6.2516,-6.2956,-6.3531,0.0,0.0,0.0,0.0,0.0,0.0,0.0,0.0,0.0,0.0,0.0,0.0,0.0,0.0,0.0,0.0,0.0,0.0,0.0,0.0,0.0,-6.8862,-6.8788,-6.8715,-6.8715,-6.9486,-7.033,-7.1138,-7.1945,-7.2386,-7.2496,-7.2386,-7.1174,-6.9045,-6.8091,-6.7247,-6.6549,-6.7614,-6.7934,-6.7724,-6.7944,0.0,0.0,0.0,0.0,0.0,0.0,0.0,0.0,-6.7136,-6.84,-6.9349,-6.6325,0.0,0.0,0.0,0.0,0.0,-6.1163,-6.2009,-6.2212,-6.008,-5.9438,-5.9167,-5.8389,-5.8051,-5.7881,-5.7881,-5.849,-5.9235,-5.9979,-6.0858,-6.1873,-6.3125,-6.3429,-6.3294,-6.2651,-6.255,-6.2787,-6.3429,-6.2956,-6.2753,-6.3294,-6.2753,-6.2381,-6.2381,-6.2381,-6.2651,-6.3294,-6.2753,-6.2956,-6.4208,-6.3024,-6.2685,-6.3328,-6.2719,-6.2381,-6.2381,-6.2381,-6.2381,-6.2381,-6.2381,-6.2381,-6.2381,-6.2381,-6.2381,-6.2381,-6.2381,-6.2381,-6.2381,-6.2381,-6.2381,-6.2482,-6.3125,-6.3429,-6.3599,0.0,0.0,0.0,0.0,0.0,0.0,0.0,0.0,0.0,0.0,0.0,0.0,0.0,0.0,0.0,0.0,0.0,0.0,0.0,0.0,-6.9263,-6.8898,-6.9743,-7.0,-6.9559,-7.033,-7.0954,-7.1293,-7.2532,-7.2936,-7.2496,-7.2055,-7.0807,-6.8898,-6.8495,-6.765,-6.6549,-6.7357,-6.7687,-6.7687,0.0,0.0,0.0,0.0,0.0,0.0,0.0,0.0,0.0,0.0,-6.7445,-6.8228,-6.5791,0.0,0.0,0.0,0.0,0.0,-6.0182,-6.0588,-6.0892,-5.9877,-6.052,-6.1366,-6.0994,-6.0622,-6.0216,-5.981,-6.0013,-6.0351,-6.0689,-6.1366,-6.2245,-6.3328,-6.3193,-6.2922,-6.299,-6.299,-6.3125,-6.3463,-6.3193,-6.2956,-6.2922,-6.2584,-6.255,-6.2956,-6.299,-6.3328,-6.4072,-6.3768,-6.3903,-6.458,-6.3937,-6.3768,-6.4106,-6.3768,-6.3193,-6.2381,-6.2381,-6.2381,-6.2381,-6.2381,-6.2381,-6.2381,-6.2381,-6.2381,-6.2381,-6.2381,-6.2381,-6.2381,-6.2381,-6.2618,-6.3125,-6.4275,-6.4681,-6.4783,0.0,0.0,0.0,0.0,0.0,0.0,0.0,0.0,0.0,0.0,0.0,0.0,0.0,0.0,0.0,0.0,0.0,0.0,0.0,-6.9956,-6.9978,-6.9219,-7.0367,-7.0844,-7.0403,-7.0991,-7.1505,-7.1872,-7.2899,-7.3083,-7.2496,-7.1688,-7.044,-6.8898,-6.8898,-6.8017,-6.6549,-6.7357,-6.7687,-6.7687,0.0,0.0,0.0,0.0,0.0,0.0,0.0,0.0,0.0,0.0,0.0,0.0,0.0,0.0,0.0,-6.1953,-6.1061,-6.0588,-5.9776,-5.981,-6.0182,-6.0554,-6.1569,-6.2618,-6.3125,-6.2516,-6.1806,-6.1603,-6.1704,-6.1772,-6.1603,-6.2144,-6.2787,-6.3193,-6.2922,-6.2787,-6.3193,-6.326,-6.326,-6.326,-6.326,-6.3024,-6.2448,-6.255,-6.2888,-6.3463,-6.3666,-6.4106,-6.4816,-6.4681,-6.4749,-6.5121,-6.4783,-6.4681,-6.485,-6.4681,-6.4038,-6.2922,-6.2922,-6.2922,-6.2922,-6.2922,-6.2922,-6.2922,-6.2922,-6.2821,-6.2651,-6.2651,-6.2651,-6.2651,-6.2651,-6.3226,-6.4174,-6.5256,-6.5797,-6.6034,0.0,0.0,0.0,0.0,0.0,0.0,0.0,0.0,0.0,0.0,0.0,0.0,0.0,0.0,0.0,0.0,0.0,0.0,-6.9333,-6.893,-6.9076,-6.9954,-7.011,-7.0513,-7.1183,-7.1256,-7.2055,-7.3523,-7.2899,-7.2569,-7.2496,-7.1688,-7.044,-6.8898,-6.8898,-6.8017,-6.6549,-6.7357,-6.7687,-6.7687,-6.7687,0.0,0.0,0.0,0.0,0.0,0.0,0.0,0.0,0.0,0.0,0.0,0.0,0.0,-6.3612,-6.1801,-6.0283,-5.9471,-6.0791,-6.0622,-6.0452,-6.1873,-6.0757,-5.9877,-6.2009,-6.1332,-6.0655,-6.2042,-6.2854,-6.3125,-6.2448,-6.2922,-6.3226,-6.2584,-6.3024,-6.3193,-6.255,-6.2482,-6.2482,-6.2482,-6.2482,-6.2448,-6.2381,-6.3024,-6.3463,-6.3531,-6.414,-6.485,-6.5561,-6.4952,-6.5222,-6.6609,-6.5324,-6.4918,-6.5595,-6.4952,-6.4546,-6.4444,-6.4444,-6.4444,-6.4444,-6.4444,-6.4444,-6.4444,-6.4444,-6.4038,-6.3429,-6.3429,-6.3429,-6.3429,-6.3429,-6.4309,-6.5527,-6.5662,-6.6136,-6.6745,0.0,0.0,0.0,0.0,0.0,0.0,0.0,0.0,0.0,0.0,0.0,0.0,0.0,0.0,0.0,0.0,0.0,0.0,-6.9333,-6.9267,-6.9521,-7.0064,-7.0587,-7.1211,-7.2055,-7.2532,-7.3083,-7.3707,-7.3377,-7.323,-7.323,-7.2422,-7.1211,-6.9633,-6.9633,-6.8752,-6.7247,-6.7577,-6.7687,-6.7687,-6.7687,-6.7026,0.0,0.0,0.0,0.0,0.0,0.0,0.0,0.0,-6.4248,-6.4578,-6.3243,-6.289,-6.2552,-6.0476,-5.9776,-5.9607,-5.9268,-5.9641,-6.025,-6.0825,-6.0689,-6.1028,-6.326,-6.3328,-6.3057,-6.3632,-6.4343,-6.4512,-6.3294,-6.3328,-6.326,-6.2516,-6.2618,-6.2719,-6.2415,-6.2381,-6.2381,-6.2381,-6.2381,-6.2381,-6.2381,-6.3057,-6.37,-6.414,-6.4884,-6.5595,-6.6339,-6.6136,-6.6237,-6.6779,-6.6271,-6.6102,-6.6373,-6.6102,-6.5967,-6.5967,-6.5053,-6.4613,-6.4613,-6.4613,-6.4613,-6.4613,-6.4613,-6.4444,-6.4174,-6.4174,-6.4174,-6.4241,-6.4681,-6.5189,-6.5764,-6.6203,-6.6576,-6.6812,0.0,0.0,0.0,0.0,0.0,0.0,0.0,0.0,0.0,0.0,0.0,0.0,0.0,0.0,0.0,0.0,0.0,0.0,-6.9085,-6.9228,-6.9558,-7.0064,-7.0624,-7.1431,-7.2496,-7.3303,-7.3707,-7.3707,-7.3707,-7.356,-7.3303,-7.2753,-7.1798,-7.0477,-7.022,-6.9339,-6.8054,-6.7797,-6.7687,-6.7687,-6.7687,-6.721,0.0,0.0,0.0,0.0,0.0,0.0,0.0,0.0,-6.3156,-6.2982,-6.2411,-6.2022,-6.1446,-5.9817,-5.9877,-6.0216,-5.893,-5.9336,-6.0216,-6.0689,-6.0858,-6.1569,-6.4038,-6.441,-6.4444,-6.5155,-6.5324,-6.5019,-6.4038,-6.3463,-6.299,-6.2482,-6.2381,-6.2381,-6.2381,-6.2381,-6.2381,-6.2381,-6.2381,-6.2482,-6.2719,-6.3429,-6.4174,-6.4884,-6.5628,-6.6271,-6.6779,-6.6812,-6.6812,-6.6812,-6.6812,-6.6812,-6.6812,-6.6812,-6.6812,-6.6812,-6.5797,-6.529,-6.529,-6.529,-6.529,-6.529,-6.529,-6.5155,-6.4952,-6.4952,-6.4952,-6.5019,-6.5764,-6.6034,-6.6102,-6.6609,-6.6812,-6.6812,0.0,0.0,0.0,0.0,0.0,0.0,0.0,0.0,0.0,0.0,0.0,0.0,0.0,0.0,0.0,0.0,0.0,0.0,-6.8544,-6.8474,-6.8964,-7.0027,-7.0073,-7.0844,-7.2459,-7.3266,-7.367,-7.3707,-7.367,-7.3266,-7.2496,-7.2496,-7.2055,-7.1219,-7.0477,-6.9633,-6.8825,-6.8017,-6.7687,-6.7687,-6.7687,-6.721,-6.6402,0.0,0.0,0.0,0.0,0.0,0.0,0.0,-6.299,-6.186,-6.331,-6.2184,-6.0289,-6.0143,-6.0655,-6.1095,-6.0283,-6.008,-6.0452,-6.1975,-6.1231,-6.0926,-6.3903,-6.4038,-6.414,-6.6339,-6.5628,-6.4613,-6.4613,-6.3396,-6.2415,-6.2381,-6.2381,-6.2381,-6.2381,-6.2381,-6.2381,-6.2381,-6.2381,-6.2685,-6.3429,-6.4174,-6.4918,-6.5628,-6.6373,-6.6812,-6.6812,-6.6812,-6.6812,-6.6812,-6.6812,-6.6812,-6.6812,-6.6812,-6.6812,-6.6812,-6.6812,-6.6812,-6.6812,-6.6812,-6.6812,-6.6812,-6.6812,-6.6406,-6.5696,-6.5696,-6.5696,-6.5764,-6.6508,-6.6812,-6.6812,-6.6812,-6.6812,-6.6812,0.0,0.0,0.0,0.0,0.0,0.0,0.0,0.0,0.0,0.0,0.0,0.0,0.0,0.0,0.0,0.0,0.0,0.0,-6.7738,-6.7321,-6.7715,-6.9192,-6.9265,-7.0257,-7.2459,-7.2716,-7.312,-7.3707,-7.312,-7.2716,-7.2496,-7.1945,-7.1248,-7.044,-7.022,-6.9009,-6.721,-6.6953,-6.6843,-6.6843,-6.6843,-6.7026,-6.7173,0.0,0.0,0.0,0.0,0.0,0.0,0.0,0.0,0.0,-6.145,-6.1188,-6.0591,-5.8395,-5.8693,-5.9404,-5.8118,-5.9336,-6.0791,-6.0182,-6.1637,-6.3362,-6.3734,-6.3666,-6.4005,-6.5662,-6.5256,-6.4613,-6.4613,-6.3835,-6.299,-6.2482,-6.2381,-6.2381,-6.2381,-6.2381,-6.2381,-6.2381,-6.2854,-6.326,-6.3497,-6.4647,-6.5459,-6.5662,-6.6373,-6.6812,-6.6812,-6.6812,-6.6812,-6.6812,-6.6812,-6.6812,-6.6812,-6.6812,-6.6812,-6.6812,-6.6812,-6.6812,-6.6812,-6.6812,-6.6812,-6.6812,-6.6812,-6.6677,-6.6474,-6.6474,-6.6474,-6.6508,-6.6711,-6.6812,-6.6812,-6.6812,-6.6812,-6.6812,0.0,0.0,0.0,0.0,0.0,0.0,0.0,0.0,-6.8614,-6.8935,-6.8235,-6.7904,0.0,0.0,0.0,-6.8999,-6.919,-6.864,-6.7085,-6.6968,-6.754,-6.8862,-6.9229,-7.0367,-7.2459,-7.2202,-7.2275,-7.2753,-7.2275,-7.1872,-7.1541,-7.1394,-7.1064,-7.055,-7.022,-6.9119,-6.7393,-6.6769,-6.6512,-6.6512,-6.6512,-6.6769,-6.7063,0.0,0.0,0.0,0.0,0.0,0.0,0.0,0.0,0.0,-6.099,-6.0455,-5.968,-5.8126,-5.8524,-5.9302,-5.8727,-6.0148,-6.1637,-6.1332,-6.2482,-6.37,-6.3531,-6.3971,-6.4613,-6.5493,-6.4884,-6.4174,-6.4174,-6.3565,-6.2922,-6.2448,-6.2381,-6.2381,-6.2381,-6.2381,-6.2381,-6.2381,-6.3057,-6.3632,-6.3903,-6.5019,-6.5797,-6.6102,-6.6542,-6.6812,-6.6812,-6.6812,-6.6812,-6.6812,-6.6812,-6.6812,-6.6812,-6.6812,-6.6812,-6.6812,-6.6812,-6.6812,-6.6812,-6.6812,-6.6812,-6.6812,-6.6812,-6.6812,-6.6812,-6.6812,-6.6812,-6.6812,-6.6812,-6.6812,-6.6812,-6.6812,-6.6812,-6.6812,0.0,0.0,0.0,0.0,0.0,0.0,0.0,-6.8773,-6.844,-6.8511,-6.8021,-6.7915,0.0,0.0,0.0,-6.8487,-6.8913,-6.8443,-6.6628,-6.7173,-6.7944,-6.8752,-6.9706,-7.0917,-7.2459,-7.1725,-7.1256,-7.1211,-7.1109,-7.0734,-7.011,-7.0844,-7.1211,-7.1174,-7.0367,-6.9486,-6.8568,-6.688,-6.6219,-6.6256,-6.6182,-6.6256,-6.6292,-6.5521,0.0,0.0,0.0,0.0,0.0,0.0,0.0,0.0,-6.1554,-5.9969,-5.8286,-5.8753,-5.9478,-6.025,-6.0926,-6.1772,-6.2821,-6.4174,-6.3531,-6.2753,-6.3362,-6.4546,-6.5493,-6.5493,-6.4444,-6.3531,-6.3531,-6.2888,-6.2381,-6.2381,-6.2381,-6.2381,-6.2381,-6.2381,-6.2415,-6.2482,-6.3159,-6.3903,-6.4647,-6.5358,-6.6068,-6.6779,-6.6812,-6.6812,-6.6812,-6.6812,-6.6812,-6.6812,-6.6812,-6.6812,-6.6812,-6.6812,-6.6812,-6.6812,-6.6812,-6.6812,-6.6812,-6.6812,-6.6812,-6.6812,-6.6812,-6.6812,-6.6812,-6.6812,-6.6812,-6.6812,-6.6812,-6.6812,-6.6812,-6.6812,-6.6812,-6.6812,0.0,0.0,0.0,0.0,0.0,0.0,-6.859,-6.821,-6.7996,-6.844,-6.8021,-6.7767,-6.7863,-6.8344,0.0,-6.7904,-6.8344,-6.8057,-6.6602,-6.6659,-6.71,-6.7907,-6.9926,-7.1505,-7.2496,-7.1725,-7.0991,-7.0367,-6.9743,-6.9669,-7.011,-7.0293,-7.0367,-7.033,-6.9522,-6.8348,-6.688,-6.4567,-6.398,-6.4567,-6.387,-6.4383,-6.5485,-6.464,-6.4237,0.0,0.0,0.0,0.0,0.0,0.0,0.0,-6.1767,-6.076,-5.9597,-5.8529,-5.9105,-6.0013,-5.9607,-6.1366,-6.3362,-6.3666,-6.3937,-6.4005,-6.3599,-6.3768,-6.3971,-6.3971,-6.3734,-6.3531,-6.3531,-6.2888,-6.2381,-6.2381,-6.2381,-6.2381,-6.2381,-6.2381,-6.2618,-6.3193,-6.3903,-6.4647,-6.5392,-6.6136,-6.6643,-6.6812,-6.6812,-6.6812,-6.6812,-6.6812,-6.6812,-6.6812,-6.6812,-6.6812,-6.6812,-6.6812,-6.6812,-6.6812,-6.6812,-6.6812,-6.6812,-6.6812,-6.6812,-6.6812,-6.6812,-6.6812,-6.6812,-6.6812,-6.6812,-6.6812,-6.6812,-6.6812,-6.6812,-6.6812,-6.6812,-6.6812,0.0,0.0,0.0,0.0,0.0,0.0,0.0,0.0,-6.8225,-6.8109,-6.7852,-6.7687,-6.7687,-6.8161,0.0,0.0,-6.8185,-6.795,-6.6602,-6.6843,-6.7614,-6.8788,-7.0807,-7.1908,-7.1945,-7.1138,-7.033,-6.9522,-6.8348,-6.8164,-6.8935,-6.8935,-6.8935,-6.8898,-6.8128,-6.6843,-6.5228,-6.3539,-6.3062,-6.3429,-6.2989,-6.3294,-6.4053,-6.3649,-6.3246,-6.2879,-6.2842,0.0,0.0,0.0,0.0,0.0,0.0,0.0,-5.9741,-5.9245,-5.9077,-5.9268,-6.0351,-6.1772,-6.3057,-6.3429,-6.3802,-6.3903,-6.3159,-6.2956,-6.2956,-6.2956,-6.2956,-6.2956,-6.2956,-6.2651,-6.2381,-6.2381,-6.2381,-6.2381,-6.2381,-6.2685,-6.3091,-6.3463,-6.4478,-6.5256,-6.5662,-6.6373,-6.6812,-6.6812,-6.6812,-6.6812,-6.6812,-6.6812,-6.6812,-6.6812,-6.6812,-6.6812,-6.6812,-6.6812,-6.6812,-6.6812,-6.6812,-6.6812,-6.6812,-6.6812,-6.6812,-6.6812,-6.6812,-6.6812,-6.6812,-6.6812,-6.6812,-6.6812,-6.6812,-6.6812,-6.6812,-6.6812,-6.7015,-6.7354,0.0,0.0,0.0,0.0,0.0,0.0,0.0,0.0,0.0,-6.7797,-6.7687,-6.7687,-6.7687,-6.7986,-6.7975,0.0,0.0,0.0,-6.6355,-6.6916,-6.8054,-6.9816,-7.1027,-7.1541,-7.1293,-7.0257,-6.9376,-6.8678,-6.7063,-6.6769,-6.7687,-6.754,-6.7577,-6.7677,-6.6549,-6.5338,-6.4016,-6.2732,-6.223,-6.234,-6.223,-6.223,-6.2401,-6.2401,-6.1961,-6.1484,-6.2291,-6.2695,-6.2915,-6.3613,0.0,0.0,0.0,0.0,-5.9779,-6.02,-5.946,-5.9016,-6.1337,-6.2381,-6.2956,-6.37,-6.3903,-6.3666,-6.2787,-6.2584,-6.255,-6.2415,-6.2381,-6.2381,-6.2381,-6.2381,-6.2381,-6.2381,-6.2381,-6.2381,-6.2381,-6.3024,-6.3565,-6.37,-6.4884,-6.573,-6.5865,-6.644,-6.6812,-6.6812,-6.6812,-6.6812,-6.6812,-6.6812,-6.6812,-6.6812,-6.6812,-6.6812,-6.6812,-6.6812,-6.6812,-6.6812,-6.6812,-6.6812,-6.6812,-6.6812,-6.6812,-6.6812,-6.6812,-6.6812,-6.6812,-6.6812,-6.6812,-6.6812,-6.6812,-6.6812,-6.6846,-6.6948,-6.7387,-6.7929,0.0,0.0,0.0,0.0,0.0,0.0,0.0,0.0,0.0,0.0,-6.7687,-6.7687,-6.7687,-6.7143,-6.6728,-6.6659,-6.6077,-6.5662,-6.5485,0.0,0.0,-6.8972,-6.8605,-6.9265,-7.1284,-6.9155,-6.7944,-6.7834,-6.6256,-6.6219,-6.7677,-6.699,-6.7026,-6.7577,-6.5375,-6.431,-6.3906,-6.0933,-6.0065,-6.0676,-5.9955,-6.0126,-6.0713,-6.0713,-6.0639,-6.0676,-6.1484,-6.2218,-6.2817,-6.2952,-6.3392,0.0,0.0,0.0,-6.1178,-6.0564,-6.0655,-6.0872,-6.051,-6.2313,-6.4478,-6.5222,-6.5392,-6.5053,-6.3666,-6.3362,-6.3193,-6.2516,-6.2381,-6.2381,-6.2381,-6.2381,-6.2381,-6.2381,-6.2381,-6.2381,-6.2381,-6.3024,-6.3768,-6.4377,-6.5189,-6.5933,-6.6609,-6.6745,-6.6812,-6.6812,-6.6812,-6.6812,-6.6812,-6.6812,-6.6812,-6.6812,-6.6812,-6.6812,-6.6812,-6.6812,-6.6812,-6.6812,-6.6812,-6.6812,-6.6812,-6.6812,-6.6812,-6.6812,-6.6812,-6.6812,-6.6812,-6.6812,-6.6812,-6.6812,-6.6812,-6.6812,-6.688,-6.7523,-6.7827,-6.7996,0.0,0.0,0.0,0.0,0.0,0.0,0.0,0.0,0.0,0.0,0.0,-6.7687,-6.7687,-6.699,-6.6512,-6.6512,-6.5778,-6.5118,-6.464,-6.5485,-6.6439,-6.7504,-6.8091,-6.8641,-6.9265,-6.8238,-6.7247,-6.6366,-6.4714,-6.5191,-6.7677,-6.5448,-6.5375,-6.688,-6.398,-6.2438,-6.1887,-5.9538,-5.8731,-5.9024,-5.8657,-5.9281,-6.0346,-5.9905,-6.0309,-6.1006,-6.0456,-6.0786,-6.152,-6.1998,-6.2365,-6.2695,-6.2805,0.0,0.0,0.0,-6.0985,-6.1004,-6.1834,-6.3281,-6.4783,-6.5493,-6.5392,-6.4816,-6.3768,-6.3193,-6.2787,-6.2448,-6.2381,-6.2381,-6.2381,-6.2381,-6.2381,-6.2381,-6.2381,-6.2516,-6.2956,-6.3666,-6.441,-6.5121,-6.5865,-6.644,-6.6779,-6.6812,-6.6812,-6.6812,-6.6812,-6.6812,-6.6812,-6.6812,-6.6812,-6.6812,-6.6812,-6.6812,-6.6812,-6.6812,-6.6812,-6.6812,-6.6812,-6.6812,-6.6812,-6.6812,-6.6812,-6.6812,-6.6812,-6.6812,-6.6812,-6.6812,-6.7049,-6.7421,-6.7421,-6.7692,-6.8132,-6.847,-6.8842,-6.9248,0.0,0.0,0.0,0.0,0.0,0.0,0.0,0.0,0.0,0.0,0.0,-6.7467,-6.7677,0.0,0.0,0.0,-6.4971,-6.4016,-6.3209,-6.4273,-6.5228,-6.5852,-6.7026,-6.7577,-6.7393,-6.7173,-6.6402,-6.5007,-6.3539,-6.4494,-6.7614,-6.4787,-6.4757,-6.6912,-6.3247,-6.1128,-6.0285,-5.8469,-5.7797,-5.8033,-5.8217,-5.9024,-6.0126,-6.0102,-6.086,-6.1704,-6.0309,-6.0199,-6.0786,-6.141,-6.1594,-6.1704,-6.2328,-6.2084,0.0,0.0,0.0,-6.0843,-6.2787,-6.3878,-6.4542,-6.5261,-6.5181,-6.4699,-6.3706,-6.3091,-6.2685,-6.2685,-6.2685,-6.2719,-6.2922,-6.2651,-6.2381,-6.2381,-6.255,-6.2854,-6.3429,-6.4309,-6.5087,-6.5628,-6.6339,-6.6812,-6.6812,-6.6812,-6.6812,-6.6812,-6.6812,-6.6812,-6.6812,-6.6812,-6.6812,-6.6812,-6.6812,-6.6812,-6.6812,-6.6812,-6.6812,-6.6812,-6.6812,-6.6812,-6.6812,-6.6812,-6.6812,-6.6812,-6.6812,-6.6914,-6.7083,-6.7083,-6.7523,-6.8199,-6.8199,-6.8571,-6.9113,-6.9316,-6.9722,-7.0229,0.0,0.0,0.0,0.0,0.0,0.0,0.0,0.0,0.0,0.0,0.0,-6.6843,-6.7614,-6.6292,-6.5081,-6.4273,-6.2732,-6.1447,-6.0639,-6.0676,-6.1777,-6.4127,-6.431,0.0,-6.6512,-6.5815,-6.5007,-6.4163,-6.3246,-6.4494,-6.765,-6.5962,-6.6399,-6.8383,-6.3718,-6.1168,-6.0224,-5.788,-5.7327,-5.807,-5.8817,-5.9184,-5.9515,-6.1753,-6.2633,-6.2658,-6.1777,-6.1484,-6.152,-6.1594,-6.1594,-6.1594,-6.163,-6.1606,-6.1457,0.0,0.0,0.0,-6.2252,-6.3244,-6.3965,-6.4587,-6.5299,-6.542,-6.3866,-6.3497,-6.3463,-6.3463,-6.3463,-6.3666,-6.4377,-6.3328,-6.2381,-6.2381,-6.299,-6.3463,-6.3497,-6.4749,-6.5662,-6.5696,-6.6339,-6.6812,-6.6812,-6.6812,-6.6812,-6.6812,-6.6812,-6.6812,-6.6812,-6.6812,-6.6812,-6.6812,-6.6812,-6.6812,-6.6812,-6.6812,-6.6812,-6.6812,-6.6812,-6.6812,-6.6812,-6.6812,-6.6812,-6.6812,-6.6812,-6.7218,-6.7827,-6.7827,-6.8301,-6.9045,-6.9045,-6.9079,-6.918,-6.9857,-7.0161,-7.0297,0.0,0.0,0.0,0.0,0.0,0.0,0.0,0.0,0.0,0.0,0.0,0.0,0.0,-6.5962,-6.4751,-6.3392,-6.1777,-6.0493,-5.9661,-6.0126,-6.1043,-6.2438,-6.3503,-6.4604,-6.5705,-6.5448,-6.4897,-6.409,-6.2181,-6.2952,-6.6109,-6.3943,-6.3936,-6.5642,-6.2902,-6.1168,-6.0103,-5.674,-5.5509,-5.5891,-5.7666,-5.8705,-5.9462,-6.1787,-6.303,-6.3466,-6.3277,-6.2511,-6.1741,-6.2842,-6.2144,-6.0933,-6.1447,-6.1263,-6.0885,-6.1076,-6.0793,-6.0827,-6.2809,-6.3191,-6.342,-6.5127,-6.533,-6.5127,-6.5027,-6.4619,-6.4208,-6.4208,-6.4208,-6.4309,-6.4546,-6.4174,-6.3802,-6.3802,-6.4038,-6.4377,-6.485,-6.5358,-6.5865,-6.6339,-6.6643,-6.6812,-6.6812,-6.6812,-6.6812,-6.6812,-6.6812,-6.6812,-6.6812,-6.6812,-6.6812,-6.6812,-6.6812,-6.6812,-6.6812,-6.6812,-6.6812,-6.6812,-6.6812,-6.6812,-6.6812,-6.6812,-6.7083,-6.7523,-6.7523,-6.7658,-6.7929,-6.847,-6.9113,-6.9789,-6.9789,-7.0094,-7.0534,-7.0804,-7.0906,-7.0939,0.0,0.0,0.0,0.0,0.0,0.0,0.0,0.0,-6.6512,-6.6512,0.0,0.0,0.0,0.0,-6.442,-6.2218,-6.0786,-5.9685,-5.8877,-5.9318,-6.0089,-6.1153,-6.2768,-6.4053,-6.4897,-6.5448,-6.5191,-6.409,-6.2144,-6.2475,-6.4861,-6.2915,-6.2716,-6.3892,-6.1848,-6.0547,-5.974,-5.6341,-5.488,-5.5136,-5.7694,-5.8754,-5.9152,-6.2265,-6.3442,-6.3555,-6.3579,-6.3075,-6.2621,-6.3945,-6.3555,-6.2401,-6.2108,-6.108,-6.0126,-6.0639,-6.0795,-6.1134,-6.264,-6.3098,-6.3453,-6.4927,-6.4866,-6.4708,-6.5755,-6.5345,-6.4881,-6.5318,-6.5449,-6.5431,-6.5372,-6.5561,-6.5459,-6.4715,-6.4816,-6.5121,-6.5628,-6.5899,-6.6237,-6.6745,-6.6812,-6.6812,-6.6812,-6.6812,-6.6812,-6.6812,-6.6812,-6.6812,-6.6812,-6.6812,-6.6812,-6.6812,-6.6812,-6.6812,-6.6812,-6.6812,-6.6812,-6.6812,-6.6812,-6.6948,-6.7184,-6.7184,-6.759,-6.8335,-6.8571,-6.8673,-6.8707,-6.9248,-6.9891,-7.0567,-7.0567,-7.0872,-7.1312,-7.1312,-7.1312,-7.1312,0.0,0.0,0.0,0.0,0.0,0.0,-6.6623,-6.6512,-6.6512,-6.6512,0.0,0.0,0.0,0.0,0.0,-6.075,-5.9698,-5.8914,-5.8107,-5.7997,-5.8694,-6.0309,-6.1924,-6.3209,-6.4053,-6.5668,-6.5705,-6.409,-6.3209,-6.3209,-6.398,-6.3099,-6.3053,-6.3581,-6.0671,-5.9295,-5.9033,-5.6549,-5.5571,-5.5921,-5.8936,-5.9355,-5.8638,-6.3232,-6.4079,-6.2868,-6.2808,-6.3341,-6.4166,-6.4872,-6.5682,-6.5972,-6.3477,-6.1031,-5.91,-5.9137,-6.0261,-6.1533,0.0,0.0,0.0,-6.3905,-6.3885,-6.4327,-6.5833,-6.5599,-6.5402,-6.682,-6.708,-6.7049,-6.6852,-6.7421,-6.7184,-6.5053,-6.529,-6.573,-6.573,-6.6339,-6.6812,-6.6812,-6.6812,-6.6812,-6.6812,-6.6812,-6.6812,-6.6812,-6.6812,-6.6812,-6.6846,-6.688,-6.688,-6.6812,-6.6846,-6.688,-6.6812,-6.6846,-6.6846,-6.6846,-6.6846,-6.7218,-6.7929,-6.7929,-6.8368,-6.918,-6.9891,-7.0195,-7.0229,-7.0229,-7.0635,-7.1312,-7.1312,-7.1312,-7.1312,-7.1312,-7.1312,-7.1312,0.0,0.0,0.0,0.0,0.0,-6.743,-6.6623,-6.6512,-6.6512,0.0,0.0,0.0,-6.5705,-6.4347,-6.3135,-6.2218,-6.086,-5.9722,-5.8914,-5.8327,-5.8474,-5.9478,-6.1606,-6.3209,-6.4053,-6.5668,-6.5705,-6.409,-6.2622,-6.1777,-6.141,-6.0579,-6.0628,-6.1255,-5.9309,-5.7846,-5.6637,-5.4212,-5.3879,-5.5032,-5.6404,-5.7672,-5.9148,-6.2682,-6.4147,-6.4462,-6.6213,-6.6268,-6.5678,-6.7173,-6.5886,-6.32,-6.031,-5.8123,-5.6761,-5.7361,-5.87,-6.0072,-6.0653,0.0,0.0,0.0,0.0,0.0,-6.5894,-6.5536,-6.5265,-6.6708,-6.6965,-6.6932,-6.681,-6.7421,-6.7692,-6.7083,-6.7151,-6.7117,-6.6576,-6.6677,-6.6812,-6.6812,-6.6812,-6.6812,-6.6812,-6.6812,-6.6812,-6.6812,-6.6812,-6.7049,-6.7557,-6.8166,-6.7963,-6.6846,-6.7895,-6.7929,-6.6812,-6.7354,-6.759,-6.759,-6.759,-6.7996,-6.8774,-6.8774,-6.918,-6.9891,-7.0094,-7.05,-7.1007,-7.1007,-7.1142,-7.1312,-7.1312,-7.1312,-7.1312,-7.1312,-7.1312,-7.1312,0.0,0.0,-6.7687,-6.7687,-6.7687,-6.754,-6.7063,-6.699,-6.699,0.0,0.0,0.0,-6.5888,-6.464,-6.3576,-6.2853,-6.163,-6.0419,-5.9258,-5.8437,-5.8364,-5.9148,-6.1496,-6.3209,-6.4053,-6.5999,-6.6035,-6.409,-6.2768,-6.1337,-5.9905,-5.9098,-5.8951,-5.9344,-5.7487,-5.6319,-5.5561,-5.2626,-5.2266,-5.3822,-5.6156,-5.7679,-5.8937,-6.232,-6.3711,-6.4061,-6.6113,-6.6312,-6.5935,-6.8309,-6.6715,-6.3257,-6.0777,-5.8481,-5.6651,-5.6432,-5.7769,-5.937,-5.9881,-6.1134,-6.2595,-6.3819,0.0,0.0,-6.6772,-6.6644,-6.6527,-6.8363,-6.86,-6.8385,-6.7953,-6.8396,-6.8741,-6.8436,-6.8639,-6.8605,-6.7861,-6.7218,-6.6914,-6.7218,-6.7015,-6.6812,-6.6812,-6.6812,-6.6812,-6.6812,-6.6812,-6.7117,-6.7861,-6.8335,-6.8335,-6.7793,-6.8639,-6.8673,-6.7793,-6.8199,-6.8402,-6.8402,-6.8402,-6.8808,-6.9553,-6.9553,-6.9958,-7.0669,-7.0669,-7.0906,-7.1312,-7.1312,-7.1312,-7.1312,-7.1312,-7.1312,-7.1312,-7.1312,-7.1312,-7.1312,0.0,0.0,-6.7687,-6.7687,-6.776,-6.7797,-6.7687,-6.776,-6.7797,0.0,-6.7614,-6.732,-6.6696,-6.5925,-6.4824,-6.322,-6.2254,-6.1043,-5.9441,-5.851,-5.8327,-5.9038,-6.1386,-6.2989,-6.3649,-6.6145,-6.6182,-6.3686,-6.2989,-6.1423,-5.9038,-5.8327,-5.79,-5.7674,-5.5551,-5.4839,-5.4994,-5.1737,-5.1251,-5.301,-5.6934,-5.8355,-5.8524,-6.2144,-6.3193,-6.2956,-6.4343,-6.4981,-6.5523,-6.8325,-6.7423,-6.4848,-6.3002,-6.0501,-5.7912,-5.6212,-5.7399,-5.9329,-5.931,-6.0494,-6.2087,-6.3606,-6.3503,0.0,-6.7577,-6.7797,-6.7872,-6.9989,-7.0293,-6.9917,-6.9157,-6.9392,-6.9524,-6.8947,-6.9403,-6.9654,-6.918,-6.7929,-6.732,-6.7963,-6.7387,-6.6948,-6.6948,-6.688,-6.6812,-6.6812,-6.688,-6.7218,-6.7861,-6.8064,-6.8436,-6.9079,-6.9248,-6.9282,-6.9113,-6.918,-6.9214,-6.9214,-6.9214,-6.962,-7.0297,-7.0297,-7.0669,-7.1312,-7.1312,-7.1312,-7.1312,-7.1312,-7.1312,-7.1312,-7.1312,-7.1312,-7.1312,-7.1312,-7.1312,-7.1312,-6.7687,-6.7687,-6.7687,-6.7687,-6.8238,-6.8458,-6.7797,-6.8238,-6.8421,-6.776,-6.7136,-6.6916,-6.7393,-6.6733,-6.5888,-6.4897,-6.3466,-6.1887,-6.0272,-5.8804,-5.807,-5.8217,-6.0529,-6.1594,-6.1117,-6.4163,-6.4237,-6.1117,-6.1594,-6.0603,-5.8217,-5.807,-5.7361,-5.6199,-5.5089,-5.3704,-5.2138,-5.1936,-5.3112,-5.5074,-5.5344,-5.7137,-5.9945,-6.2516,-6.414,-6.5155,-6.6068,-6.6396,-6.6419,-6.6547,-6.5854,-6.4463,-6.1638,-6.0254,-5.917,-5.6474,-5.7806,-5.996,-5.943,-6.0891,-6.2638,-6.2958,-6.3943,0.0,-6.5007,-6.4897,-6.5055,-6.5987,-6.6161,-6.6257,-6.66,-6.6681,-6.6824,-6.735,-6.7455,-6.7861,-6.8944,-6.8842,-6.8707,-6.8842,-6.8166,-6.7692,-6.7692,-6.7151,-6.6812,-6.6812,-6.7354,-6.776,-6.7895,-6.9079,-6.9553,-6.9113,-7.0263,-7.0297,-6.9113,-6.9688,-6.9992,-6.9992,-6.9992,-7.0364,-7.1109,-7.1109,-7.1176,-7.1312,-7.1312,-7.1312,-7.1312,-7.1312,-7.1312,-7.1312,-7.1312,-7.1312,-7.1312,-7.1312,-7.1312,-7.1312,-6.7687,-6.7687,-6.7834,-6.8238,-6.8311,-6.8311,-6.8311,-6.8311,-6.8164,-6.7724,-6.7357,-6.7247,-6.765,-6.699,-6.6182,-6.5375,-6.3771,-6.2291,-6.108,-5.9501,-5.8621,-5.8621,-6.0126,-6.1006,-6.1006,-6.3025,-6.3062,-6.1006,-6.1006,-5.9979,-5.7997,-5.7631,-5.7844,-5.8403,-5.5412,-5.4481,-5.5029,-5.2726,-5.2875,-5.4735,-5.619,-5.9032,-6.2516,-6.4038,-6.529,-6.6305,-6.6677,-6.7078,-6.733,-6.6154,-6.5344,-6.4549,-6.2513,-6.1645,-6.0786,-5.7688,-5.8768,-6.0734,-5.9576,-6.0446,-6.1897,-6.3137,-6.3759,0.0,0.0,-6.4971,-6.5124,-6.6616,-6.6546,-6.6418,-6.7153,-6.7165,-6.7039,-6.6969,-6.7879,-6.8451,-6.8014,-6.8639,-6.9248,-6.9586,-6.8605,-6.7895,-6.7895,-6.7252,-6.6812,-6.6812,-6.7489,-6.8064,-6.847,-6.9586,-7.0195,-7.0195,-7.0939,-7.0939,-7.0195,-7.0567,-7.0737,-7.0737,-7.0737,-7.0939,-7.1312,-7.1312,-7.1312,-7.1312,-7.1312,-7.1312,-7.1312,-7.1312,-7.1312,-7.1312,-7.1312,-7.1548,-7.1853,-7.1853,-7.209,-7.2394,-6.7687,-6.7687,-6.7907,-6.8568,-6.8238,-6.8091,-6.8605,-6.8238,-6.7871,-6.7724,-6.7834,-6.7907,-6.7907,-6.7504,-6.688,-6.6072,-6.4604,-6.3282,-6.2144,-6.0713,-5.9881,-5.9881,-6.0236,-6.0786,-6.1557,-6.2071,-6.1887,-6.0896,-6.0262,-5.9273,-5.7973,-5.7091,-5.7873,-5.9824,-5.6019,-5.5623,-5.7532,-5.3852,-5.3348,-5.5243,-5.8084,-6.0791,-6.326,-6.4715,-6.5662,-6.6237,-6.6677,-6.7291,-6.7689,-6.6228,-6.542,-6.4869,-6.3673,-6.3273,-6.2632,-5.929,-6.003,-6.1675,-6.0321,-6.0498,-6.1574,-6.3607,-6.3796,-6.3906,0.0,0.0,0.0,-6.7357,-6.7061,-6.6746,-6.7608,-6.7433,-6.7058,-6.6628,-6.8093,-6.8693,-6.6889,-6.7819,-6.8876,-6.9451,-6.8842,-6.8166,-6.7726,-6.7015,-6.6643,-6.6812,-6.7218,-6.7963,-6.9045,-6.9654,-7.0398,-7.1278,-7.1312,-7.1312,-7.1312,-7.1312,-7.1312,-7.1312,-7.1312,-7.1312,-7.1312,-7.1312,-7.1312,-7.1312,-7.1312,-7.1312,-7.1312,-7.1447,-7.1515,-7.1515,-7.1515,-7.1887,-7.2428,-7.2563,-7.2969,-7.3477,-6.7687,-6.7687,-6.7724,-6.7797,-6.8348,-6.8568,-6.7907,-6.8348,-6.8495,-6.7797,-6.8311,-6.8752,-6.8752,-6.9302,-6.9376,-6.8568,-6.765,-6.6182,-6.3943,-6.2915,-6.2377,-6.2377,-6.1117,-6.0786,-6.1557,-6.1006,-5.9942,-5.84,-5.8394,-5.8249,-5.7973,-5.6527,-5.5687,-5.5411,-5.6791,-5.5816,-5.3211,-5.5278,-5.7814,-6.0385,-6.008,-5.9066,-5.8118,-6.2212,-6.3802,-6.414,-6.6102,-6.6896,-6.6844,-6.5974,-6.5643,-6.525,-6.3165,-6.3854,-6.4606,-6.0931,-6.1477,-6.3132,-6.249,-6.2907,-6.3569,-6.4008,-6.5081,-6.5595,-6.3686,0.0,-6.409,-6.3613,0.0,-6.357,-6.4438,0.0,0.0,-6.5094,-6.5336,-6.551,-6.5952,-6.6609,-6.7117,-6.7184,-6.8808,-6.9147,-6.7117,-6.6271,-6.6102,-6.6779,-6.6271,-6.6846,-6.8977,-6.918,-6.9857,-7.1278,-7.1312,-7.1312,-7.1312,-7.1312,-7.1312,-7.1312,-7.1312,-7.1312,-7.1312,-7.1312,-7.1312,-7.1312,-7.1312,-7.1312,-7.1379,-7.2022,-7.2293,-7.2293,-7.2293,-7.2326,-7.2462,-7.3105,-7.3409,-7.3477,-6.7687,-6.7687,-6.7834,-6.8311,-6.8274,-6.8238,-6.8385,-6.8678,-6.8788,-6.8458,-6.8678,-6.8898,-6.8898,-6.8385,-6.8054,-6.8201,-6.7467,-6.6549,-6.5558,-6.4273,-6.3319,-6.2817,-6.1263,-6.0566,-6.0896,-6.0126,-5.9164,-5.8067,-5.8057,-5.7568,-5.6659,-5.6004,-5.6458,-5.7831,-5.7878,-5.8207,-5.8795,-5.8287,-5.8558,-5.9302,-5.8964,-5.8017,-5.7442,-6.3226,-6.5425,-6.5561,-6.6474,-6.6812,-6.6846,-6.6948,-6.6102,-6.5222,-6.6034,-6.5806,-6.4903,-6.3221,-6.3188,-6.342,-6.2265,-6.2505,-6.3125,-6.3263,-6.4101,-6.4556,-6.313,-6.2721,-6.2685,-6.2794,0.0,0.0,0.0,0.0,0.0,0.0,-6.5153,-6.5889,-6.4847,-6.6412,-6.7458,-6.687,-6.7252,-6.7387,-6.688,-6.6542,-6.6643,-6.7387,-6.6779,-6.7151,-6.9011,-6.9519,-7.0229,-7.1278,-7.1312,-7.1312,-7.1312,-7.1312,-7.1312,-7.1312,-7.1312,-7.1312,-7.1312,-7.1312,-7.1312,-7.1312,-7.1312,-7.1548,-7.1954,-7.2259,-7.2665,-7.3071,-7.351,-7.368,-7.3713,-7.4018,-7.439,-7.4762,-6.7687,-6.7687,-6.7871,-6.8458,-6.8091,-6.7907,-6.8495,-6.8568,-6.8568,-6.8568,-6.8752,-6.8972,-6.9192,-6.8385,-6.8128,-6.8935,-6.8678,-6.8274,-6.7834,-6.6292,-6.5411,-6.5485,-6.2438,-6.1153,-6.2071,-5.9993,-5.8542,-5.7768,-5.7293,-5.6714,-5.6014,-5.5396,-5.6481,-5.8941,-5.8415,-5.9708,-6.2212,-6.0825,-6.0148,-6.0013,-5.981,-5.9674,-6.0013,-6.4275,-6.6271,-6.6846,-6.7049,-6.7117,-6.7184,-6.7726,-6.6846,-6.5865,-6.7861,-6.7182,-6.5645,-6.5332,-6.5073,-6.4597,-6.3057,-6.3024,-6.3308,-6.2826,-6.3106,-6.3251,-6.237,-6.1868,-6.176,-6.2335,-6.2328,0.0,0.0,0.0,-6.4203,-6.3493,0.0,-6.592,-6.4357,-6.5847,-6.6773,-6.6035,-6.5629,-6.5753,-6.6448,-6.635,-6.6527,-6.7261,-6.6609,-6.7049,-6.9011,-6.962,-7.0331,-7.1278,-7.1312,-7.1312,-7.1312,-7.1312,-7.1312,-7.1312,-7.1312,-7.1312,-7.1312,-7.1312,-7.1312,-7.1312,-7.1312,-7.1718,-7.2428,-7.2631,-7.3138,-7.3883,-7.4627,-7.4897,-7.4897,-7.4897,-7.5236,-7.5709,-6.7687,-6.7687,-6.7714,-6.7724,-6.7724,-6.7714,-6.7724,-6.7724,-6.7724,-6.7724,-6.8421,-6.9192,-6.9963,-7.0734,-7.1468,-7.2275,-7.301,-7.2826,-7.1219,-6.9633,-6.9779,-7.2092,-6.5375,-6.3062,-6.6219,-6.0949,-5.7732,-5.6948,-5.5443,-5.5444,-5.6799,-5.4611,-5.439,-5.5931,-5.804,-5.9032,-5.9336,-6.2178,-6.4174,-6.5392,-6.4681,-6.5222,-6.6271,-6.4343,-6.4952,-6.6914,-6.7624,-6.7861,-6.7861,-6.7895,-6.7861,-6.7692,-6.7083,-6.7286,-6.7667,-6.6948,-6.7218,-6.7437,-6.6114,-6.5758,-6.5287,-6.3214,-6.273,-6.234,-6.0817,-6.0999,-6.153,-6.153,-6.2779,-6.382,-6.3856,-6.4612,-6.5238,-6.5212,-6.4548,0.0,0.0,-6.4416,-6.3928,-6.379,-6.4408,-6.5069,-6.5684,-6.522,-6.5099,-6.5711,-6.5087,-6.5967,-6.8944,-6.9113,-6.9789,-7.1278,-7.1312,-7.1312,-7.1312,-7.1312,-7.1312,-7.1312,-7.1312,-7.1312,-7.1312,-7.1312,-7.1312,-7.1312,-7.1312,-7.1718,-7.2462,-7.3172,-7.3883,-7.4661,-7.5371,-7.5676,-7.5676,-7.5676,-7.5676,-7.5709,-6.7687,-6.7687,-6.7687,-6.7687,-6.7687,-6.7687,-6.7687,-6.8128,-6.8678,-6.9229,-6.9522,-7.0,-7.0807,-7.1138,-7.1651,-7.2422,-7.323,-7.345,-7.2936,-7.0881,-7.0293,-7.1651,-6.6806,-6.4567,-6.5705,-6.2231,-5.9545,-5.769,-5.664,-5.6395,-5.6885,-5.5073,-5.5046,-5.6549,-5.8244,-6.0114,-6.2042,-6.3091,-6.4343,-6.5561,-6.4377,-6.4749,-6.6034,-6.5797,-6.617,-6.6914,-6.7658,-6.7895,-6.8064,-6.9079,-6.8741,-6.8132,-6.9383,-6.8605,-6.732,-6.8098,-6.7793,-6.71,-6.6616,-6.6834,-6.6575,-6.392,-6.3612,-6.338,-6.0902,-6.0518,-6.0728,-6.0728,-6.1555,-6.2408,-6.3013,-6.3804,-6.4567,-6.5223,-6.5494,-6.5515,0.0,-6.4441,-6.4061,-6.4567,-6.5714,-6.653,-6.6729,-6.643,-6.6539,-6.7295,-6.6106,-6.644,-6.8977,-6.9113,-6.9789,-7.1278,-7.1312,-7.1312,-7.1312,-7.1312,-7.1312,-7.1312,-7.1312,-7.1312,-7.1312,-7.1312,-7.1312,-7.1345,-7.1819,-7.2462,-7.3172,-7.3916,-7.4661,-7.5337,-7.5608,-7.5709,-7.5709,-7.5709,-7.5709,-7.5709,-6.7787,-6.7687,-6.7687,-6.7687,-6.7687,-6.7687,-6.7687,-6.8641,-6.9522,-7.0036,-7.0587,-7.1248,-7.2092,-7.2165,-7.2343,-7.2778,-7.3859,-7.4176,-7.3252,-7.2058,-7.1725,-7.2569,-6.9009,-6.7283,-6.7871,-6.4303,-6.1432,-5.9395,-5.7697,-5.7013,-5.7272,-5.5462,-5.5426,-5.6928,-5.7564,-5.9674,-6.2753,-6.3294,-6.4647,-6.6406,-6.5459,-6.5628,-6.6576,-6.732,-6.7286,-6.6948,-6.7963,-6.8504,-6.891,-7.0161,-6.9925,-6.9383,-7.0838,-6.9992,-6.8605,-6.9586,-6.918,-6.8301,-6.776,-6.7963,-6.7692,-6.4952,-6.4687,-6.4366,-6.1657,-6.1244,-6.145,-6.145,-6.1841,-6.2823,-6.4798,-6.4674,-6.48,-6.6353,-6.6006,-6.5413,0.0,-6.4867,-6.5037,-6.5545,0.0,0.0,0.0,0.0,-6.7197,-6.8269,-6.7073,-6.7374,-6.9989,-6.9788,-7.0294,-7.1796,-7.1501,-7.1312,-7.1312,-7.1312,-7.1312,-7.1312,-7.1312,-7.1312,-7.1312,-7.1312,-7.1447,-7.1718,-7.2191,-7.2969,-7.3916,-7.4424,-7.5033,-7.5709,-7.5709,-7.5709,-7.5709,-7.5709,-7.5709,-7.5709,-6.7834,-6.7687,-6.7687,-6.7687,-6.7687,-6.7687,-6.7687,-6.9045,-7.011,-7.0146,-7.1578,-7.2863,-7.3575,-7.3722,-7.3648,-7.3474,-7.5056,-7.5035,-7.2604,-7.3258,-7.4147,-7.4992,-7.1945,-7.0926,-7.2475,-6.6957,-6.3322,-6.1805,-5.8462,-5.7259,-5.8038,-5.5724,-5.5484,-5.6928,-5.6099,-5.7848,-6.1467,-6.2854,-6.5189,-6.7895,-6.7895,-6.7895,-6.7996,-6.8808,-6.8199,-6.7117,-6.8639,-6.9586,-7.0297,-7.1075,-7.1312,-7.1312,-7.1312,-7.1312,-7.1312,-7.1312,-7.1312,-7.1007,-6.9586,-6.9214,-6.8673,-6.6406,-6.5831,-6.5222,-6.3057,-6.3125,-6.3632,-6.3632,-6.3768,-6.4978,-6.8752,-6.7019,-6.5772,-6.8199,-6.5908,-6.3905,-6.4103,-6.5406,-6.6386,-6.6406,0.0,0.0,0.0,0.0,-6.7106,-6.8463,-6.7795,-6.8716,-7.1832,-7.1066,-7.1244,-7.281,-7.1917,-7.1401,-7.1401,-7.1312,-7.1312,-7.1312,-7.1312,-7.1312,-7.1312,-7.1345,-7.1751,-7.2394,-7.2496,-7.3308,-7.4627,-7.4661,-7.5067,-7.5709,-7.5709,-7.5709,-7.5709,-7.5709,-7.5709,-7.5709,-6.7724,-6.7687,-6.7687,-6.7687,-6.7687,-6.7687,-6.7687,-6.9045,-7.0293,-7.0917,-7.2386,-7.3397,-7.347,-7.399,-7.4359,-7.4307,-7.5267,-7.5891,-7.598,-7.5128,-7.5212,-7.6613,-7.3597,-7.2021,-7.2287,-6.7429,-6.4307,-6.3101,-5.8867,-5.7805,-5.9631,-5.6781,-5.6235,-5.7692,-5.6883,-5.8592,-6.2144,-6.2516,-6.4681,-6.7895,-6.7895,-6.7895,-6.7996,-6.8808,-6.8842,-6.8639,-6.9586,-7.0026,-7.0297,-7.1075,-7.1312,-7.1312,-7.1312,-7.1312,-7.1312,-7.1312,-7.1312,-7.1244,-7.0838,-7.0737,-7.0331,-6.8639,-6.776,-6.688,-6.5222,-6.4986,-6.5121,-6.5121,-6.5596,-6.6052,-6.6053,-6.5401,-6.4743,-6.4439,-6.3591,-6.3396,-6.4613,-6.4655,-6.4766,-6.5345,0.0,0.0,0.0,0.0,0.0,-6.7792,-6.803,-6.9318,-7.1867,-7.1186,-7.1706,-7.3854,-7.2921,-7.2414,-7.2414,-7.1688,-7.1312,-7.1312,-7.1312,-7.1312,-7.1345,-7.1887,-7.2225,-7.2462,-7.3578,-7.4255,-7.4661,-7.5202,-7.554,-7.5709,-7.5709,-7.5709,-7.5709,-7.5709,-7.5709,-7.5709,-6.8201,-6.8182,-6.7913,-6.7125,-6.7905,-6.869,-6.8733,-6.9522,-7.0364,-7.1142,-7.2614,-7.3556,-7.3504,-7.4076,-7.4476,-7.4476,-7.487,-7.4869,-7.4295,-7.4528,-7.4896,-7.5571,-7.4095,-7.3667,-7.4397,-7.0358,-6.7269,-6.5373,-6.1671,-5.9838,-5.9701,-5.7326,-5.6645,-5.7484,-5.7019,-5.8152,-6.0554,-6.2854,-6.5222,-6.7523,-6.8504,-6.891,0.0,-6.9789,-7.006,-7.0128,-7.0534,-7.0669,-7.0737,-7.1176,-7.1312,-7.1312,-7.1312,-7.1312,-7.1312,-7.1312,-7.1312,-7.1312,-7.1312,-7.1312,-7.1109,-7.0263,-6.9722,-6.9011,-6.7523,-6.7184,-6.7184,-6.7184,-6.6981,-6.7112,-6.8132,-6.6075,-6.3701,-6.201,-6.2293,-6.2875,-6.3406,-6.3716,-6.4143,-6.4974,-6.627,-6.6966,0.0,0.0,0.0,0.0,-6.8806,-7.0217,-7.2626,-7.1898,-7.2477,-7.4868,-7.3966,-7.3252,-7.2797,-7.2236,-7.1732,-7.1312,-7.1312,-7.1312,-7.1345,-7.2056,-7.2563,-7.2935,-7.4119,-7.4796,-7.51,-7.554,-7.5709,-7.5709,-7.5709,-7.5709,-7.5709,-7.5709,-7.5709,-7.5709,-6.8761,-6.8681,-6.8095,-6.6412,-6.8082,-6.9854,-7.0331,-7.0567,-7.0945,-7.1589,-7.289,-7.3732,-7.3699,-7.3938,-7.4082,-7.4082,-7.4082,-7.3171,-7.1052,-7.3034,-7.4042,-7.3566,-7.4045,-7.5084,-7.6696,-7.3439,-7.0308,-6.7339,-6.4811,-6.1985,-5.8908,-5.7461,-5.6849,-5.6869,-5.6848,-5.7476,-5.893,-6.3666,-6.6305,-6.7421,-6.9383,-7.0263,-7.0398,-7.1075,-7.1312,-7.1312,-7.1312,-7.1312,-7.1312,-7.1312,-7.1312,-7.1312,-7.1312,-7.1312,-7.1312,-7.1312,-7.1312,-7.1312,-7.1312,-7.1312,-7.1312,-7.1312,-7.1312,-7.0973,-6.9688,-6.9383,-6.9383,-6.9383,-6.8335,-6.8362,-7.1594,-6.7516,-6.296,-6.0908,-6.1809,-6.2695,-6.2383,-6.3326,-6.4359,-6.5228,-6.6217,0.0,0.0,0.0,0.0,0.0,-6.9486,-7.1027,-7.356,-7.2793,-7.3392,-7.5921,-7.4867,-7.3928,-7.3212,-7.2797,-7.2236,-7.1501,-7.1356,-7.1379,-7.1481,-7.2225,-7.2935,-7.368,-7.4424,-7.51,-7.5709,-7.5709,-7.5709,-7.5709,-7.5709,-7.5709,-7.5709,-7.5811,-7.5845,-7.5845,-6.81,-6.8174,-6.7971,-6.6381,-6.7512,-6.9378,-7.1589,-7.3143,-7.4088,-7.4226,-7.4914,-7.5044,-7.4292,-7.3514,-7.305,-7.305,-7.305,-7.3228,-7.3579,-7.4055,-7.4241,-7.4145,-7.4244,-7.4082,-7.3611,-7.1198,-6.8665,-6.6,-6.3144,-6.0517,-5.8101,-5.7209,-5.6838,-5.681,-5.6803,-5.893,-6.2685,-6.4783,-6.7184,-6.962,-7.0026,-7.0567,-7.1142,-7.1278,-7.1312,-7.1312,-7.1312,-7.1312,-7.1312,-7.1312,-7.1312,-7.1312,-7.1312,-7.1312,-7.1312,-7.1312,-7.1312,-7.1312,-7.1312,-7.1312,-7.1312,-7.1312,-7.1312,-7.1244,-7.0973,-7.0939,-7.0939,-7.0939,-7.0703,-7.0138,-6.8965,-6.6362,-6.3876,-6.2276,-6.277,-6.4181,-6.646,-6.6079,-6.5812,0.0,0.0,-6.7925,0.0,0.0,0.0,0.0,0.0,-7.044,-7.3523,-7.29,-7.3836,-7.6909,-7.5263,-7.461,-7.5263,-7.2797,-7.1917,-7.254,-7.1688,-7.1616,-7.2225,-7.2969,-7.3713,-7.4458,-7.5202,-7.5574,-7.5709,-7.5709,-7.5709,-7.5709,-7.5709,-7.5709,-7.5777,-7.6454,-7.669,-7.669,-6.8751,-6.871,-6.8695,-6.7963,-6.9208,-7.0912,-7.2689,-7.4341,-7.4877,-7.3619,-7.3191,-7.2844,-7.2419,-7.214,-7.2236,-7.2756,-7.2321,-7.2193,-7.2707,-7.2749,-7.2962,-7.3492,-7.3003,-7.3003,-7.3571,-7.2046,-6.9445,-6.5906,-6.4465,-6.1565,-5.7306,-5.6968,-5.6393,-5.5716,-5.7273,-5.981,-6.3091,-6.573,-6.7929,-6.9688,-7.0466,-7.0973,-7.1312,-7.1312,-7.1312,-7.1312,-7.1312,-7.1312,-7.1312,-7.1312,-7.1312,-7.1312,-7.1312,-7.1312,-7.1312,-7.1312,-7.1312,-7.1312,-7.1312,-7.1312,-7.1312,-7.1312,-7.1312,-7.1312,-7.1312,-7.1312,-7.1312,-7.1312,-7.1312,-7.0601,-6.8335,-6.6406,-6.4816,-6.37,-6.3531,-6.4275,-6.644,-6.697,-6.7443,0.0,0.0,0.0,0.0,0.0,0.0,0.0,0.0,0.0,-7.3364,-7.2387,-7.3188,-7.6421,-7.5084,-7.4272,-7.4234,-7.2797,-7.2056,-7.2013,-7.1919,-7.2056,-7.2428,-7.3544,-7.4255,-7.4661,-7.5371,-7.5709,-7.5709,-7.5709,-7.5709,-7.5709,-7.5709,-7.5946,-7.6352,-7.6758,-7.713,-7.7468,-6.9718,-6.9716,-6.9779,-6.9713,-7.0923,-7.2286,-7.3356,-7.4261,-7.4366,-7.3047,-7.1711,-7.0949,-7.107,-7.1199,-7.16,-7.2414,-7.1776,-7.1312,-7.1312,-7.1312,-7.1644,-7.2414,-7.1732,-7.2013,-7.365,-7.288,-7.0498,-6.6509,-6.6025,-6.2959,-5.7509,-5.7036,-5.6427,-5.5886,-5.8389,-6.1028,-6.3734,-6.6677,-6.8538,-6.9688,-7.0838,-7.1312,-7.1312,-7.1312,-7.1312,-7.1312,-7.1312,-7.1312,-7.1312,-7.1312,-7.1312,-7.1312,-7.1312,-7.1312,-7.1312,-7.1312,-7.1312,-7.1312,-7.1312,-7.1312,-7.1312,-7.1312,-7.1312,-7.1312,-7.1312,-7.1312,-7.1312,-7.1312,-7.1312,-7.0601,-6.8335,-6.7354,-6.644,-6.5053,-6.4749,-6.5155,-6.6474,-6.7392,-6.8513,0.0,0.0,0.0,-7.0318,-7.0291,0.0,0.0,0.0,0.0,-7.3084,-7.2006,-7.2621,-7.5515,-7.444,-7.3511,-7.2923,-7.2658,-7.2193,-7.1634,-7.2158,-7.2462,-7.2665,-7.4018,-7.4695,-7.4864,-7.5439,-7.5709,-7.5709,-7.5709,-7.5811,-7.5946,-7.5946,-7.6454,-7.7164,-7.7299,-7.7739,-7.8247,-7.0539,-7.078,-7.0983,-7.0563,-7.0976,-7.1824,-7.303,-7.24,-7.2596,-7.5119,-7.3793,-7.2589,-7.2589,-7.1814,-7.1356,-7.1412,-7.1356,-7.1312,-7.1312,-7.1312,-7.1356,-7.1412,-7.1356,-7.1401,-7.159,-7.1501,-7.0236,-6.7726,-6.5725,-6.3041,-5.9742,-5.7746,-5.7814,-5.9641,-6.0655,-6.3429,-6.7421,-6.776,-6.9147,-7.1109,-7.1244,-7.1312,-7.1312,-7.1312,-7.1312,-7.1312,-7.1312,-7.1312,-7.1312,-7.1312,-7.1312,-7.1312,-7.1312,-7.1312,-7.1312,-7.1312,-7.1312,-7.1312,-7.1312,-7.1312,-7.1312,-7.1312,-7.1312,-7.1312,-7.1312,-7.1312,-7.1312,-7.1312,-7.1312,-7.0601,-6.8335,-6.9485,-6.9654,-6.6136,-6.7252,-6.8842,-6.9654,-6.8116,-6.8035,-7.0972,0.0,0.0,-7.063,-6.8487,0.0,0.0,-7.0201,0.0,-7.249,-7.2453,-7.3186,-7.4945,-7.3113,-7.2512,-7.3319,-7.2098,-7.183,-7.2666,-7.2448,-7.2732,-7.3409,-7.4221,-7.4965,-7.5608,-7.5676,-7.5709,-7.5709,-7.5709,-7.6115,-7.6792,-7.6792,-7.7232,-7.7976,-7.8653,-7.8957,-7.9092,-7.16,-7.1488,-7.1702,-7.3004,-7.3042,-7.3608,-7.5867,-7.4682,-7.419,-7.6034,-7.3688,-7.1917,-7.1917,-7.1546,-7.1312,-7.1312,-7.1312,-7.1312,-7.1312,-7.1718,-7.1954,-7.1954,-7.1954,-7.1954,-7.1954,-7.1548,-7.0432,-6.8605,-6.5933,-6.3294,-6.0791,-5.9911,-6.0926,-6.3497,-6.4715,-6.6508,-6.8673,-6.9553,-7.0466,-7.1312,-7.1312,-7.1312,-7.1312,-7.1312,-7.1312,-7.1312,-7.1312,-7.1312,-7.1312,-7.1312,-7.1312,-7.1312,-7.1312,-7.1312,-7.1312,-7.1312,-7.1312,-7.1312,-7.1312,-7.1312,-7.1312,-7.1312,-7.1312,-7.1312,-7.1312,-7.1312,-7.1312,-7.1312,-7.1312,-7.1041,-7.0128,-6.9958,-6.9789,-6.918,-6.9079,-6.9519,-7.0703,-7.0601,-7.0884,-7.2119,0.0,0.0,0.0,-7.0105,-6.9285,-6.9525,0.0,-6.9547,-7.1489,-7.1604,-7.1895,-7.2548,-7.2472,-7.2166,-7.1601,-7.1388,-7.1705,-7.2566,-7.2893,-7.3443,-7.4187,-7.4931,-7.5439,-7.5709,-7.5709,-7.5709,-7.5743,-7.6217,-7.6623,-7.6927,-7.7401,-7.801,-7.8686,-7.8991,-7.9397,-7.9803,-7.2529,-7.2293,-7.2654,-7.493,-7.4636,-7.483,-7.692,-7.5726,-7.4826,-7.5602,-7.3498,-7.1853,-7.165,-7.1447,-7.1312,-7.1312,-7.1312,-7.1413,-7.1616,-7.2124,-7.2496,-7.2699,-7.2529,-7.2394,-7.2394,-7.1887,-7.1109,-7.006,-6.7489,-6.5459,-6.3903,-6.3226,-6.4377,-6.7049,-6.7861,-6.8944,-7.0128,-7.0973,-7.1312,-7.1312,-7.1312,-7.1312,-7.1312,-7.1312,-7.1312,-7.1312,-7.1312,-7.1447,-7.1616,-7.1616,-7.1785,-7.1921,-7.1684,-7.1616,-7.1684,-7.1887,-7.1954,-7.1921,-7.1684,-7.1616,-7.1582,-7.1379,-7.1312,-7.1312,-7.1312,-7.1312,-7.1312,-7.1312,-7.1312,-7.1312,-7.1312,-7.0466,-6.9958,-7.0567,-7.0161,-6.9958,-7.0567,-7.1234,-7.171,-7.171,-7.2066,-7.2199,-7.1912,-7.0412,-6.9599,-6.9892,-6.8848,-6.9026,-7.0887,-7.0995,-7.1081,-7.1247,-7.1827,-7.1641,-7.073,-7.1333,-7.1988,-7.2732,-7.3477,-7.4086,-7.4627,-7.5371,-7.5709,-7.5709,-7.5709,-7.5845,-7.6082,-7.6657,-7.7164,-7.7604,-7.8111,-7.8754,-7.9431,-7.9431,-7.9769,-8.0209,-7.3206,-7.3477,-7.4014,-7.5793,-7.5242,-7.4706,-7.4973,-7.4148,-7.3523,-7.3523,-7.3523,-7.3172,-7.2462,-7.1751,-7.1312,-7.1312,-7.1312,-7.1616,-7.2326,-7.2394,-7.2732,-7.3443,-7.28,-7.2394,-7.2394,-7.2394,-7.2394,-7.236,-7.0838,-7.0094,-7.0026,-6.7793,-6.7963,-7.0094,-6.9383,-7.0297,-7.2326,-7.1616,-7.1312,-7.1312,-7.1312,-7.1312,-7.1312,-7.1312,-7.1312,-7.1312,-7.1312,-7.1785,-7.2394,-7.2394,-7.2868,-7.3341,-7.2631,-7.2394,-7.2529,-7.324,-7.3443,-7.3308,-7.2563,-7.2394,-7.2225,-7.1481,-7.1312,-7.1312,-7.1312,-7.1312,-7.1312,-7.1312,-7.1312,-7.1312,-7.1312,-7.1312,-7.0804,-6.935,-7.0331,-7.077,-6.935,-6.9113,-6.9113,-6.9113,-6.6582,-6.6696,-7.1359,-6.832,-6.7975,-7.268,-7.0838,-6.9918,-7.093,-7.0995,-7.1249,-7.1865,-7.0946,-7.0764,-7.1484,-7.2117,-7.2766,-7.3477,-7.4221,-7.4593,-7.4627,-7.5371,-7.5709,-7.5709,-7.5709,-7.6149,-7.6893,-7.6893,-7.7773,-7.9092,-7.9092,-7.9532,-8.0175,-8.0175,-8.0175,-8.0209,-7.3308,-7.3883,-7.4551,-7.5649,-7.5539,-7.5625,-7.6424,-7.5686,-7.5293,-7.6014,-7.5002,-7.4153,-7.395,-7.324,-7.28,-7.28,-7.28,-7.2902,-7.3105,-7.3612,-7.4018,-7.4255,-7.4018,-7.3916,-7.3916,-7.3409,-7.3409,-7.3916,-7.1413,-7.0466,-7.0939,-6.9688,-7.0567,-7.3138,-7.1887,-7.1751,-7.236,-7.1616,-7.1312,-7.1312,-7.1312,-7.1312,-7.1312,-7.1312,-7.1312,-7.1379,-7.1887,-7.2191,-7.2462,-7.2969,-7.3308,-7.3544,-7.3815,-7.3544,-7.3172,-7.3409,-7.3477,-7.3341,-7.2597,-7.2394,-7.2225,-7.1481,-7.1312,-7.1312,-7.1312,-7.1312,-7.1312,-7.1312,-7.1312,-7.1312,-7.1312,-7.1312,-7.1176,-7.0703,-7.1007,-7.1142,-7.0669,-7.0601,-7.0601,-7.0601,-6.978,-6.9791,-7.1309,-6.9446,-6.8595,-6.9687,-6.8049,-6.7897,-6.9883,-7.1019,-7.1197,-7.0307,-7.2589,-7.3103,-7.1518,-7.331,-7.4227,-7.4255,-7.4492,-7.4864,-7.5371,-7.5574,-7.5709,-7.5709,-7.5709,-7.6149,-7.6927,-7.7435,-7.8213,-7.916,-7.9667,-8.0006,-8.0209,-8.0209,-8.0209,-8.0209,-7.3341,-7.3883,-7.4525,-7.5506,-7.5709,-7.6067,-7.7115,-7.6404,-7.6114,-7.716,-7.5948,-7.5033,-7.5033,-7.4593,-7.4086,-7.3544,-7.3477,-7.3612,-7.3883,-7.4356,-7.4728,-7.4999,-7.4762,-7.4627,-7.4627,-7.4153,-7.4153,-7.4627,-7.3037,-7.2496,-7.2935,-7.2191,-7.2834,-7.4559,-7.3071,-7.2394,-7.236,-7.1616,-7.1312,-7.1312,-7.1312,-7.1312,-7.1345,-7.1616,-7.1718,-7.1819,-7.2563,-7.3003,-7.3308,-7.3747,-7.4086,-7.439,-7.4864,-7.4695,-7.4322,-7.4322,-7.4322,-7.4153,-7.3443,-7.324,-7.3003,-7.1988,-7.1718,-7.165,-7.1379,-7.1312,-7.1312,-7.1312,-7.1312,-7.1312,-7.1312,-7.1312,-7.1312,-7.1312,-7.1312,-7.1312,-7.1312,-7.1312,-7.1109,-7.0534,-7.0466,-7.0466,-7.0466,-6.9654,-6.9169,-6.9365,-6.8479,-6.8584,-7.0119,-7.0371,-7.0409,-7.0193,-7.2887,-7.3636,-7.2279,-7.4013,-7.4969,-7.5033,-7.5033,-7.527,-7.5709,-7.5709,-7.5709,-7.5709,-7.6014,-7.6589,-7.7367,-7.8111,-7.8855,-7.9566,-8.0006,-8.0209,-8.0209,-8.0209,-8.0209,-8.0209,-7.3547,-7.3683,-7.4077,-7.5439,-7.5818,-7.6219,-7.7071,-7.637,-7.616,-7.7071,-7.6404,-7.5771,-7.5709,-7.5771,-7.5229,-7.3747,-7.3646,-7.395,-7.4627,-7.4695,-7.4999,-7.5676,-7.5033,-7.4695,-7.4695,-7.4695,-7.4695,-7.4695,-7.5371,-7.5709,-7.5676,-7.4897,-7.4525,-7.4458,-7.3003,-7.2326,-7.2259,-7.1672,-7.1367,-7.1401,-7.1435,-7.1469,-7.1537,-7.2237,-7.2462,-7.2563,-7.3308,-7.4018,-7.4627,-7.4661,-7.5134,-7.5709,-7.5709,-7.5709,-7.5709,-7.5709,-7.5709,-7.554,-7.4796,-7.4627,-7.4255,-7.2766,-7.236,-7.2157,-7.1481,-7.1312,-7.1312,-7.1312,-7.1312,-7.1312,-7.1312,-7.1312,-7.1312,-7.1312,-7.1312,-7.1312,-7.1312,-7.1312,-7.0804,-6.9417,-6.9248,-6.9248,-6.9248,-6.9248,-6.9789,-7.1075,-7.1176,-7.1176,-7.1244,-6.9399,-6.9275,-7.1278,-7.2214,-7.2959,-7.3544,-7.4382,-7.5093,-7.5709,-7.5709,-7.5709,-7.5709,-7.5709,-7.5709,-7.5743,-7.6555,-7.7299,-7.8044,-7.8822,-7.9532,-8.0209,-8.0209,-8.0209,-8.0209,-8.0209,-8.0209,-8.0209,-7.5244,-7.5558,-7.5557,-7.5696,-7.7105,-7.7771,-7.6312,-7.6554,-7.6701,-7.616,-7.6554,-7.6599,-7.5771,-7.6416,-7.6462,-7.5296,-7.5168,-7.5236,-7.5439,-7.5439,-7.5506,-7.5676,-7.554,-7.5439,-7.5439,-7.5439,-7.5439,-7.5439,-7.5608,-7.5709,-7.5676,-7.4356,-7.3747,-7.368,-7.2225,-7.1582,-7.1593,-7.221,-7.2414,-7.2483,-7.3034,-7.3275,-7.3293,-7.3266,-7.324,-7.3341,-7.4086,-7.4458,-7.4695,-7.5236,-7.5574,-7.5709,-7.5709,-7.5709,-7.5709,-7.5709,-7.5709,-7.554,-7.4796,-7.4627,-7.4255,-7.2766,-7.1988,-7.1515,-7.1345,-7.1312,-7.1312,-7.1312,-7.1312,-7.1312,-7.1312,-7.1312,-7.1312,-7.1312,-7.1312,-7.1312,-7.1312,-7.1312,-7.1176,-7.0838,-7.0804,-7.0804,-7.0804,-7.0804,-7.0466,-6.9688,-6.962,-6.9857,-7.0432,-7.0018,-7.0459,-7.209,-7.4179,-7.4977,-7.4356,-7.5891,-7.6337,-7.5709,-7.5709,-7.5709,-7.5709,-7.5709,-7.5709,-7.5743,-7.6555,-7.7299,-7.8044,-7.8822,-7.9532,-8.0209,-8.0209,-8.0209,-8.0209,-8.0209,-8.0209,-8.0209,-7.6002,-7.5834,-7.5516,-7.5683,-7.669,-7.7248,-7.6554,-7.6508,-7.6554,-7.6416,-7.6508,-7.6358,-7.5771,-7.6219,-7.6358,-7.5723,-7.5709,-7.5709,-7.5709,-7.5709,-7.5709,-7.5709,-7.5709,-7.5709,-7.5709,-7.5709,-7.5709,-7.5709,-7.5709,-7.5709,-7.5676,-7.4639,-7.4193,-7.4124,-7.3103,-7.2666,-7.2707,-7.3252,-7.3702,-7.4092,-7.4477,-7.4536,-7.4487,-7.4665,-7.4423,-7.4086,-7.483,-7.51,-7.5168,-7.5574,-7.5709,-7.5709,-7.5709,-7.5709,-7.5709,-7.5709,-7.5709,-7.5608,-7.5202,-7.51,-7.483,-7.368,-7.2597,-7.1819,-7.1819,-7.1548,-7.1312,-7.1312,-7.1312,-7.1312,-7.1312,-7.1312,-7.1312,-7.1312,-7.1582,-7.1819,-7.1819,-7.209,-7.2326,-7.2326,-7.2022,-7.1819,-7.1819,-7.1515,-7.1109,-7.0635,-7.0601,-7.0939,-7.165,-7.2022,-7.2428,-7.2868,-7.456,-7.5185,-7.4627,-7.589,-7.6266,-7.5709,-7.5709,-7.5709,-7.5709,-7.5709,-7.5912,-7.6284,-7.7063,-7.7807,-7.8551,-7.9295,-7.9837,-8.0209,-8.0209,-8.0209,-8.0209,-8.0209,-8.0209,-8.0209,-7.6949,-7.6006,-7.5309,-7.6007,-7.6182,-7.6404,-7.6972,-7.6416,-7.6219,-7.6972,-7.6404,-7.5865,-7.5757,-7.5865,-7.5865,-7.5676,-7.5709,-7.5709,-7.5709,-7.5709,-7.5709,-7.5709,-7.5709,-7.5709,-7.5709,-7.5709,-7.5709,-7.5709,-7.5709,-7.5737,-7.5722,-7.5254,-7.5022,-7.5018,-7.4663,-7.4487,-7.4487,-7.478,-7.5281,-7.5922,-7.6029,-7.5869,-7.5547,-7.614,-7.5684,-7.4864,-7.5473,-7.5709,-7.5709,-7.5709,-7.5709,-7.5709,-7.5709,-7.5709,-7.5709,-7.5709,-7.5709,-7.5709,-7.5709,-7.5608,-7.5371,-7.4762,-7.3578,-7.2563,-7.2563,-7.209,-7.165,-7.165,-7.1548,-7.1481,-7.1481,-7.1481,-7.1413,-7.1176,-7.1954,-7.2496,-7.2259,-7.2969,-7.3477,-7.3477,-7.2935,-7.2563,-7.2563,-7.1988,-7.1887,-7.2529,-7.2563,-7.2868,-7.3612,-7.4255,-7.4356,-7.3849,-7.4424,-7.4796,-7.4796,-7.5405,-7.5709,-7.5709,-7.5709,-7.5709,-7.5709,-7.5709,-7.6082,-7.6758,-7.7604,-7.8348,-7.9025,-7.9837,-8.0209,-8.0209,-8.0209,-8.0209,-8.0209,-8.0209,-8.0209,-8.0209,-8.0493,-7.8978,-7.7467,-7.8054,-7.8318,-7.7907,-7.6173,-7.6599,-7.6792,-7.6067,-7.6599,-7.6701,-7.5771,-7.6508,-7.669,-7.5771,-7.5709,-7.5709,-7.5709,-7.5709,-7.5709,-7.5709,-7.5709,-7.5709,-7.5709,-7.5709,-7.5709,-7.5709,-7.5709,-7.582,-7.6016,-7.5336,-7.5088,-7.5348,-7.5295,-7.5304,-7.5413,-7.6947,-7.7667,-7.7847,-7.8495,-7.8262,-7.7384,-7.7197,-7.6439,-7.554,-7.5676,-7.5709,-7.5709,-7.5709,-7.5709,-7.5709,-7.5709,-7.5709,-7.5709,-7.5709,-7.5709,-7.5709,-7.5709,-7.5236,-7.4762,-7.4661,-7.395,-7.3308,-7.3308,-7.324,-7.3138,-7.3138,-7.2665,-7.2225,-7.2225,-7.2225,-7.1819,-7.0567,-7.2022,-7.2868,-7.165,-7.2631,-7.3477,-7.3477,-7.3375,-7.3308,-7.3308,-7.3206,-7.3206,-7.3308,-7.3308,-7.3646,-7.439,-7.4559,-7.483,-7.5337,-7.5473,-7.554,-7.554,-7.5642,-7.5709,-7.5709,-7.5709,-7.5709,-7.5709,-7.5709,-7.5777,-7.598,-7.7367,-7.8044,-7.828,-7.9634,-8.0209,-8.0209,-8.0209,-8.0209,-8.0209,-8.0209,-8.0209,-8.0209,-8.1451,-7.983,-7.8434,-7.9297,-7.8555,-7.7767,-7.7537,-7.738,-7.7336,-7.7467,-7.7907,-7.8034,-7.7555,-7.738,-7.7115,-7.6599,-7.6554,-7.6312,-7.5757,-7.5709,-7.5709,-7.5709,-7.5709,-7.5709,-7.5709,-7.5709,-7.5709,-7.5709,-7.6266,-7.6414,-7.6115,-7.6987,-7.7207,-7.6909,-7.7522,-7.7803,-7.7874,-7.8719,-7.9288,-7.9725,-8.0126,-7.9504,-7.8407,-7.8271,-7.716,-7.5709,-7.5709,-7.5709,-7.5709,-7.5709,-7.5709,-7.5709,-7.5709,-7.5709,-7.5709,-7.5709,-7.5709,-7.5709,-7.5709,-7.5439,-7.5202,-7.5202,-7.4627,-7.4086,-7.4086,-7.3781,-7.3477,-7.3477,-7.3206,-7.2969,-7.2969,-7.2969,-7.2766,-7.209,-7.3172,-7.3849,-7.3172,-7.4018,-7.4661,-7.4661,-7.4322,-7.4086,-7.4086,-7.3713,-7.3646,-7.4052,-7.4086,-7.4424,-7.5168,-7.5202,-7.5337,-7.5676,-7.5709,-7.5709,-7.5709,-7.5709,-7.5709,-7.5709,-7.5709,-7.5709,-7.5709,-7.5709,-7.6149,-7.6961,-7.7671,-7.845,-7.9228,-7.9904,-8.0209,-8.0209,-8.0209,-8.0209,-8.0209,-8.0209,-8.0209,-8.0209,-8.2251,-8.0501,-7.9285,-8.0488,-7.875,-7.7622,-7.896,-7.8248,-7.7971,-7.9145,-7.9089,-7.8983,-7.8983,-7.8245,-7.7693,-7.7693,-7.7693,-7.7336,-7.6508,-7.6496,-7.6253,-7.5723,-7.5709,-7.5709,-7.5709,-7.5709,-7.5709,-7.5709,-7.6747,-7.7007,-7.6544,-7.8474,-7.9105,-7.8626,-7.9621,-8.0057,-8.0094,-8.0277,-8.0718,-8.1269,-8.1269,-8.0545,-7.938,-7.938,-7.7992,-7.6067,-7.6067,-7.5913,-7.5757,-7.5973,-7.5913,-7.5723,-7.5973,-7.5913,-7.5709,-7.5709,-7.5709,-7.5709,-7.5709,-7.5709,-7.5709,-7.5709,-7.527,-7.4864,-7.4864,-7.4424,-7.3984,-7.3984,-7.3883,-7.3747,-7.3747,-7.3747,-7.3646,-7.3274,-7.4153,-7.4762,-7.439,-7.5134,-7.5709,-7.5709,-7.5202,-7.4864,-7.4864,-7.4322,-7.4255,-7.483,-7.4864,-7.51,-7.5676,-7.5709,-7.5709,-7.5709,-7.5709,-7.5709,-7.5709,-7.5709,-7.5709,-7.5709,-7.5709,-7.5709,-7.5709,-7.5709,-7.6454,-7.7739,-7.7908,-7.872,-7.9972,-8.0141,-8.0209,-8.0209,-8.0209,-8.0209,-8.0209,-8.0209,-8.0209,-8.0209,-8.4104,-8.2022,-8.0488,-8.2069,-7.9902,-7.8326,-7.9474,-7.8905,-7.8851,-7.9958,-7.9484,-7.8983,-7.8983,-7.8943,-7.8862,-7.8862,-7.8862,-7.8862,-7.8781,-7.874,-7.7822,-7.5771,-7.5709,-7.5709,-7.5709,-7.5709,-7.5709,-7.5709,-7.6747,-7.7438,-7.7691,-7.8848,-7.9491,-7.9737,-8.0539,-8.0901,-8.0975,-8.1709,-8.2039,-8.2113,-8.2113,-8.1472,-8.0477,-8.0477,-7.9143,-7.7204,-7.7204,-7.6554,-7.5865,-7.6837,-7.6508,-7.5865,-7.6882,-7.6508,-7.5709,-7.5709,-7.5709,-7.5709,-7.5709,-7.5709,-7.5709,-7.5709,-7.5676,-7.5608,-7.5608,-7.5574,-7.554,-7.554,-7.4999,-7.4525,-7.4525,-7.4525,-7.4086,-7.2699,-7.4255,-7.5134,-7.3747,-7.4796,-7.5709,-7.5709,-7.5642,-7.5608,-7.5608,-7.5574,-7.5574,-7.5608,-7.5608,-7.5642,-7.5709,-7.5709,-7.5709,-7.5709,-7.5709,-7.5709,-7.5709,-7.5709,-7.5709,-7.5709,-7.5709,-7.5709,-7.5709,-7.5709,-7.6183,-7.7029,-7.7705,-7.845,-7.9228,-7.9938,-8.0209,-8.0209,-8.0209,-8.0209,-8.0209,-8.0209,-8.0209,-8.0209,-8.3373,-8.2034,-8.1137,-8.224,-8.0375,-7.9098,-8.0413,-8.04,-8.0434,-8.1058,-8.1488,-8.1562,-8.1055,-8.0403,-7.9994,-7.9994,-7.9994,-7.9727,-7.9023,-7.9614,-7.9302,-7.7779,-7.7061,-7.6656,-7.6656,-7.602,-7.602,-7.6656,-7.831,-7.8973,-7.8847,-8.0908,-8.138,-8.0571,-8.1379,-8.1746,-8.1746,-8.2076,-8.2186,-8.2186,-8.2186,-8.1579,-8.0623,-8.0623,-7.9688,-7.837,-7.837,-7.8077,-7.7779,-7.8203,-7.8077,-7.7822,-7.8245,-7.7563,-7.6554,-7.5913,-7.5709,-7.5709,-7.5709,-7.5709,-7.5709,-7.5709,-7.5709,-7.5709,-7.5709,-7.5709,-7.5709,-7.5709,-7.5473,-7.527,-7.527,-7.527,-7.51,-7.4525,-7.5134,-7.5506,-7.4931,-7.5337,-7.5709,-7.5709,-7.5709,-7.5709,-7.5709,-7.5709,-7.5709,-7.5709,-7.5709,-7.5709,-7.5709,-7.5709,-7.5709,-7.5709,-7.5709,-7.5709,-7.5709,-7.5709,-7.5709,-7.5709,-7.5709,-7.5946,-7.6454,-7.6454,-7.713,-7.828,-7.8551,-7.9092,-7.9803,-8.0073,-8.0209,-8.0209,-8.0209,-8.0209,-8.0209,-8.0209,-8.0209,-8.0209,-8.3265,-8.2245,-8.152,-8.2588,-8.1205,-8.0403,-8.1761,-8.1774,-8.1952,-8.2866,-8.3151,-8.3171,-8.2961,-8.2308,-8.185,-8.185,-8.1633,-8.1165,-8.0428,-8.1057,-8.0729,-7.9063,-7.8497,-7.8033,-7.7683,-7.7182,-7.7319,-7.8064,-7.9719,-8.0392,-8.019,-8.2374,-8.27,-8.1415,-8.1929,-8.2186,-8.2186,-8.2186,-8.2186,-8.2186,-8.2186,-8.1748,-8.1124,-8.1124,-8.044,-7.9458,-7.9103,-7.8983,-7.8983,-7.8983,-7.8983,-7.9063,-7.938,-7.8494,-7.7071,-7.602,-7.5709,-7.5709,-7.5709,-7.5709,-7.5709,-7.5709,-7.5709,-7.5709,-7.5709,-7.5709,-7.5709,-7.5709,-7.5709,-7.5709,-7.5709,-7.5709,-7.5709,-7.5709,-7.5709,-7.5709,-7.5709,-7.5709,-7.5709,-7.5709,-7.5709,-7.5709,-7.5709,-7.5709,-7.5709,-7.5709,-7.5709,-7.5709,-7.5709,-7.5709,-7.5709,-7.5709,-7.5709,-7.5709,-7.5709,-7.5709,-7.5811,-7.6082,-7.5811,-7.6251,-7.7232,-7.6995,-7.7705,-7.9126,-7.9126,-7.9532,-8.0209,-8.0209,-8.0209,-8.0209,-8.0209,-8.0209,-8.0209,-8.0209,-8.0209,-8.0209,-8.4278,-8.2782,-8.1738,-8.3338,-8.2661,-8.2255,-8.345,-8.2948,-8.3232,-8.5506,-8.4137,-8.3338,-8.4471,-8.4609,-8.4609,-8.4609,-8.3875,-8.3434,-8.3434,-8.3434,-8.2102,-7.9174,-7.9803,-7.969,-7.8559,-7.9321,-7.9703,-7.9703,-8.0816,-8.1497,-8.1851,-8.292,-8.2994,-8.2186,-8.2186,-8.2186,-8.2186,-8.2186,-8.2186,-8.2186,-8.2186,-8.2186,-8.2186,-8.2186,-8.1542,-8.0477,-7.938,-7.9023,-7.9023,-7.9023,-7.9023,-7.9222,-8.0292,-7.9068,-7.7115,-7.602,-7.5676,-7.5709,-7.5709,-7.5709,-7.5709,-7.5709,-7.5709,-7.5709,-7.5709,-7.5709,-7.5709,-7.5709,-7.5709,-7.5709,-7.5709,-7.5709,-7.5709,-7.5709,-7.5709,-7.5709,-7.5709,-7.5709,-7.5709,-7.5709,-7.5709,-7.5709,-7.5709,-7.5709,-7.5709,-7.5709,-7.5709,-7.5709,-7.5709,-7.5709,-7.5709,-7.5709,-7.5709,-7.5709,-7.5709,-7.5709,-7.6115,-7.6893,-7.6082,-7.6521,-7.7976,-7.7232,-7.7739,-7.9126,-7.9126,-7.9532,-8.0209,-8.0209,-8.0209,-8.0209,-8.0209,-8.0209,-8.0209,-8.0209,-8.0209,-8.0209,-8.3338,-8.329,-8.3312,-8.3571,-8.3321,-8.3234,-8.3578,-8.4075,-8.4469,-8.4607,-8.479,-8.4851,-8.4612,-8.4609,-8.4609,-8.4609,-8.4389,-8.4242,-8.4242,-8.4242,-8.3859,-8.2937,-8.2426,-8.2004,-8.1656,-8.1137,-8.1243,-8.2049,-8.29,-8.3188,-8.292,-8.3814,-8.3508,-8.2186,-8.2186,-8.2186,-8.2186,-8.2186,-8.2186,-8.2186,-8.2186,-8.2186,-8.2186,-8.2186,-8.1985,-8.1681,-8.1334,-8.123,-8.123,-8.123,-8.123,-8.116,-8.0732,-8.0144,-7.9262,-7.738,-7.6837,-7.669,-7.5913,-7.5709,-7.5709,-7.5709,-7.5709,-7.5709,-7.5709,-7.5709,-7.5709,-7.5709,-7.5709,-7.5709,-7.5709,-7.5709,-7.5709,-7.5709,-7.5709,-7.5709,-7.5709,-7.5709,-7.5709,-7.5709,-7.5709,-7.5709,-7.5709,-7.5709,-7.5709,-7.5709,-7.5709,-7.5709,-7.5709,-7.5709,-7.5709,-7.5709,-7.5709,-7.598,-7.6555,-7.6555,-7.6657,-7.6893,-7.7164,-7.7807,-7.8754,-7.8551,-7.8991,-7.987,-7.987,-8.0006,-8.0209,-8.0209,-8.0209,-8.0209,-8.0209,-8.0209,-8.0209,-8.0209,-8.0209,-8.0209,-8.3554,-8.388,-8.4109,-8.4268,-8.4289,-8.4289,-8.4289,-8.4852,-8.5287,-8.5227,-8.5446,-8.5587,-8.5566,-8.5563,-8.5563,-8.5563,-8.527,-8.5086,-8.5086,-8.5086,-8.5233,-8.5563,-8.4933,-8.4209,-8.3439,-8.3115,-8.3255,-8.3909,-8.4089,-8.4065,-8.3875,-8.4058,-8.3434,-8.2186,-8.2186,-8.2186,-8.2186,-8.2186,-8.2186,-8.2186,-8.2186,-8.2186,-8.2186,-8.2186,-8.2186,-8.2154,-8.1715,-8.1852,-8.2154,-8.1715,-8.1852,-8.1985,-8.0911,-8.0623,-8.0144,-7.7949,-7.7292,-7.7071,-7.5973,-7.5709,-7.5709,-7.5709,-7.5709,-7.5709,-7.5709,-7.5709,-7.5709,-7.5709,-7.5709,-7.5709,-7.5709,-7.5709,-7.5709,-7.5709,-7.5709,-7.5709,-7.5709,-7.5709,-7.5709,-7.5709,-7.5709,-7.5709,-7.5709,-7.5709,-7.5709,-7.5709,-7.5709,-7.5709,-7.5709,-7.5709,-7.5709,-7.5709,-7.6014,-7.642,-7.6893,-7.7468,-7.7773,-7.7773,-7.7908,-7.8517,-7.9532,-7.9228,-7.9498,-8.0209,-8.0209,-8.0209,-8.0209,-8.0209,-8.0209,-8.0209,-8.0209,-8.0209,-8.0209,-8.0209,-8.0209,-8.0209,-8.4535,-8.4536,-8.4598,-8.5323,-8.5468,-8.5468,-8.5468,-8.5468,-8.5806,-8.6891,-8.6101,-8.5843,-8.6891,-8.6995,-8.6995,-8.6995,-8.6334,-8.5894,-8.5894,-8.5894,-8.6224,-8.6995,-8.6995,-8.6171,-8.4419,-8.5106,-8.5468,-8.5468,-8.4634,-8.4392,-8.4572,-8.3801,-8.2994,-8.2186,-8.2186,-8.2223,-8.2296,-8.2223,-8.2223,-8.2296,-8.2223,-8.2186,-8.2186,-8.2186,-8.2186,-8.2088,-8.1089,-8.137,-8.2055,-8.1089,-8.1405,-8.2018,-8.1054,-8.0732,-8.0329,-7.821,-7.752,-7.7204,-7.616,-7.5771,-7.5709,-7.5709,-7.5709,-7.5709,-7.5709,-7.5709,-7.5709,-7.5709,-7.5709,-7.5709,-7.5709,-7.5709,-7.5709,-7.5709,-7.5709,-7.5709,-7.5709,-7.5709,-7.5709,-7.5709,-7.5709,-7.5709,-7.5709,-7.5709,-7.5709,-7.5709,-7.5709,-7.5743,-7.5811,-7.5811,-7.5845,-7.5912,-7.6623,-7.7029,-7.7096,-7.845,-7.9126,-7.9092,-7.8483,-7.8889,-8.0175,-7.9498,-7.9566,-8.0209,-8.0209,-8.0209,-8.0209,-8.0209,-8.0209,-8.0209,-8.0209,-8.0209,-8.0209,-8.0209,-8.0209,-8.0209,-8.538,-8.5978,-8.6424,-8.6607,-8.6607,-8.6607,-8.6607,-8.6607,-8.6714,-8.696,-8.6784,-8.6714,-8.696,-8.6995,-8.6995,-8.6995,-8.6848,-8.6738,-8.6738,-8.6738,-8.6811,-8.6995,-8.6995,-8.6817,-8.6387,-8.6533,-8.6607,-8.6607,-8.5802,-8.5138,-8.4572,-8.3801,-8.2994,-8.2186,-8.2186,-8.2553,-8.3104,-8.248,-8.2553,-8.3104,-8.2443,-8.2186,-8.2186,-8.2186,-8.2186,-8.2154,-8.1952,-8.1985,-8.2154,-8.1919,-8.1985,-8.2154,-8.1919,-8.1852,-8.1576,-8.0256,-7.9302,-7.8411,-7.7248,-7.6358,-7.5709,-7.5709,-7.5709,-7.5709,-7.5709,-7.5709,-7.5709,-7.5709,-7.5709,-7.5709,-7.5709,-7.5709,-7.5709,-7.5709,-7.5709,-7.5709,-7.5709,-7.5709,-7.5709,-7.5709,-7.5709,-7.5709,-7.5709,-7.5709,-7.5709,-7.5709,-7.5709,-7.598,-7.6623,-7.6657,-7.6893,-7.7468,-7.7671,-7.8044,-7.8619,-7.8957,-7.9126,-7.9126,-7.9532,-7.9904,-8.0175,-8.004,-8.004,-8.0209,-8.0209,-8.0209,-8.0209,-8.0209,-8.0209,-8.0209,-8.0209,-8.0209,-8.0209,-8.0209,-8.0209,-8.0209,-8.5637,-8.6444,-8.6995,-8.6995,-8.6995,-8.6995,-8.6995,-8.6995,-8.6995,-8.6995,-8.6995,-8.6995,-8.6995,-8.6995,-8.6995,-8.6995,-8.6995,-8.6995,-8.6995,-8.6995,-8.6995,-8.6995,-8.6995,-8.6995,-8.6995,-8.6995,-8.6995,-8.6995,-8.582,-8.5013,-8.4572,-8.3398,-8.281,-8.2774,-8.2774,-8.3214,-8.3948,-8.3508,-8.3581,-8.3948,-8.3508,-8.3324,-8.3287,-8.292,-8.2774,-8.2737,-8.2333,-8.2186,-8.2186,-8.2186,-8.2186,-8.2186,-8.2186,-8.2186,-8.1985,-8.0911,-7.9842,-7.874,-7.7606,-7.6508,-7.5709,-7.5709,-7.5709,-7.5709,-7.5709,-7.5709,-7.5709,-7.5709,-7.5709,-7.5709,-7.5709,-7.5709,-7.5709,-7.5709,-7.5709,-7.5709,-7.5709,-7.5709,-7.5709,-7.5709,-7.5709,-7.5709,-7.5709,-7.5709,-7.5709,-7.5709,-7.6048,-7.6454,-7.6893,-7.7232,-7.7604,-7.7976,-7.8348,-7.872,-7.9126,-7.9464,-7.9634,-7.9634,-8.0006,-8.0209,-8.0209,-8.0209,-8.0209,-8.0209,-8.0209,-8.0209,-8.0209,-8.0209,-8.0209,-8.0209,-8.0209,-8.0209,-8.0209,-8.0209,-8.0209,-8.0209,-8.5857,-8.6554,-8.6995,-8.6995,-8.6995,-8.6995,-8.6995,-8.6995,-8.6995,-8.6995,-8.6995,-8.6995,-8.6995,-8.6995,-8.6995,-8.6995,-8.6995,-8.6995,-8.6995,-8.6995,-8.6995,-8.6995,-8.6995,-8.6995,-8.6995,-8.6995,-8.6995,-8.6995,-8.5527,-8.4792,-8.4756,-8.3287,-8.2957,-8.3618,-8.3618,-8.4058,-8.4792,-8.4646,-8.4682,-8.4792,-8.4646,-8.4609,-8.4535,-8.3875,-8.3618,-8.3544,-8.2847,-8.2517,-8.2406,-8.2406,-8.2296,-8.2186,-8.2186,-8.2186,-8.2018,-8.1124,-8.0107,-7.9023,-7.7907,-7.6792,-7.596,-7.5723,-7.5709,-7.5709,-7.5709,-7.5709,-7.5709,-7.5709,-7.5709,-7.5709,-7.5709,-7.5709,-7.5709,-7.5709,-7.5865,-7.5913,-7.5757,-7.5865,-7.5913,-7.5723,-7.5709,-7.5709,-7.5709,-7.5709,-7.5709,-7.5709,-7.6454,-7.6961,-7.7063,-7.7773,-7.8247,-7.8348,-7.8957,-7.9295,-7.9295,-7.9904,-8.0209,-8.0209,-8.0209,-8.0209,-8.0209,-8.0209,-8.0209,-8.0209,-8.0209,-8.0209,-8.0209,-8.0209,-8.0209,-8.0209,-8.0209,-8.0209,-8.0209,-8.0209,-8.0209,-8.0209,-8.6701,-8.6921,-8.6995,-8.6995,-8.6995,-8.6995,-8.6995,-8.6995,-8.6995,-8.6995,-8.6995,-8.6995,-8.6995,-8.6995,-8.6995,-8.6995,-8.6995,-8.6995,-8.6995,-8.6995,-8.6995,-8.6995,-8.6995,-8.6995,-8.6995,-8.6995,-8.6995,-8.6995,-8.6077,-8.5637,-8.56,-8.4682,-8.4315,-8.4462,-8.4462,-8.4866,-8.56,-8.4903,-8.5013,-8.5563,-8.4866,-8.4609,-8.4609,-8.4499,-8.4462,-8.4425,-8.4315,-8.3838,-8.3251,-8.3251,-8.2774,-8.2186,-8.2186,-8.2186,-8.2154,-8.2018,-8.123,-8.0144,-7.9063,-7.7949,-7.6882,-7.596,-7.5709,-7.5709,-7.5709,-7.5709,-7.5709,-7.5709,-7.5709,-7.5709,-7.5709,-7.5709,-7.5709,-7.5709,-7.6462,-7.6747,-7.5818,-7.6508,-7.6747,-7.5818,-7.5709,-7.5709,-7.5709,-7.5709,-7.5709,-7.5709,-7.6454,-7.7164,-7.7807,-7.8551,-7.9228,-7.987,-8.0006,-8.004,-8.004,-8.0141,-8.0209,-8.0209,-8.0209,-8.0209,-8.0209,-8.0209,-8.0209,-8.0209,-8.0209,-8.0209,-8.0209,-8.0209,-8.0209,-8.0209,-8.0209,-8.0209,-8.0209,-8.0209,-8.0209,-8.0209,-8.6848,-8.6995,-8.6995,-8.6995,-8.6995,-8.6995,-8.6995,-8.6995,-8.6995,-8.6995,-8.6995,-8.6995,-8.6995,-8.6995,-8.6995,-8.6995,-8.6995,-8.6995,-8.6995,-8.6995,-8.6995,-8.6995,-8.6995,-8.6995,-8.6995,-8.7435,-8.7472,-8.6995,-8.6187,-8.5783,-8.5783,-8.4976,-8.4829,-8.527,-8.527,-8.571,-8.6444,-8.6077,-8.6151,-8.6444,-8.6077,-8.593,-8.5894,-8.5453,-8.527,-8.5196,-8.4756,-8.4389,-8.4058,-8.4058,-8.3838,-8.3471,-8.303,-8.2884,-8.2774,-8.2333,-8.1439,-8.0366,-7.9302,-7.8161,-7.7026,-7.5973,-7.5709,-7.5709,-7.5709,-7.5709,-7.5709,-7.5709,-7.5709,-7.5709,-7.5709,-7.5709,-7.5709,-7.5709,-7.6599,-7.6927,-7.5865,-7.6645,-7.6927,-7.5818,-7.5709,-7.5879,-7.6318,-7.6352,-7.6521,-7.6927,-7.7705,-7.828,-7.8585,-7.9329,-7.987,-8.0175,-8.0209,-8.0209,-8.0209,-8.0209,-8.0209,-8.0209,-8.0209,-8.0209,-8.0209,-8.0209,-8.0209,-8.0209,-8.0209,-8.0209,-8.0209,-8.0209,-8.0209,-8.0209,-8.0209,-8.0209,-8.0209,-8.0209,-8.0209,-8.0209]},{"header":{"parameterUnit":"m.s-1","parameterCategory":1,"la1":30.6,"la2":28.766,"lo1":-90.7593,"lo2":-88.6598,"dx":0.0162,"dy":0.0183,"nx":116,"ny":114,"refTime":"2023-01-01T06:00:00:Z","depth":0,"parameterNumber":3,"parameterNumberName":"V-component_of_WINDS"},"data":[0.0,0.0,0.0,0.0,0.0,0.0,0.0,0.0,0.0,0.0,0.0,0.0,0.0,0.0,0.0,0.0,0.0,0.0,0.0,0.0,0.0,0.0,0.0,0.0,0.0,0.0,0.0,0.0,0.0,0.0,0.0,0.0,0.0,0.0,0.0,0.0,0.0,0.0,0.0,0.0,0.0,0.0,0.0,0.0,0.0,0.0,0.0,0.0,0.0,0.0,0.0,0.0,0.0,0.0,0.0,0.0,0.0,0.0,0.0,0.0,0.0,0.0,0.0,0.0,0.0,0.0,0.0,0.0,0.0,0.0,0.0,0.0,0.0,0.0,0.0,0.0,0.0,0.0,0.0,0.0,0.0,0.0,0.0,0.0,0.0,0.0,0.0,0.0,0.0,0.0,0.0,0.0,0.0,0.0,0.0,0.0,0.0,0.0,0.0,0.0,0.0,0.0,0.0,0.0,0.0,0.0,0.0,0.0,0.0,0.0,0.0,0.0,0.0,0.0,0.0,0.0,0.0,0.0,0.0,0.0,0.0,0.0,0.0,0.0,0.0,0.0,0.0,0.0,0.0,0.0,0.0,0.0,0.0,0.0,0.0,0.0,0.0,0.0,0.0,0.0,0.0,0.0,0.0,0.0,0.0,0.0,0.0,0.0,0.0,0.0,0.0,0.0,0.0,0.0,0.0,0.0,0.0,0.0,0.0,0.0,0.0,0.0,0.0,0.0,0.0,0.0,0.0,0.0,0.0,0.0,0.0,0.0,0.0,0.0,0.0,0.0,0.0,0.0,0.0,0.0,0.0,0.0,0.0,0.0,0.0,0.0,0.0,0.0,0.0,0.0,0.0,0.0,0.0,0.0,0.0,0.0,0.0,0.0,0.0,0.0,0.0,0.0,0.0,0.0,0.0,0.0,0.0,0.0,0.0,0.0,0.0,0.0,0.0,0.0,0.0,0.0,0.0,0.0,0.0,0.0,0.0,0.0,0.0,0.0,0.0,0.0,0.0,0.0,0.0,0.0,0.0,0.0,0.0,0.0,0.0,0.0,0.0,0.0,0.0,0.0,0.0,0.0,0.0,0.0,0.0,0.0,0.0,0.0,0.0,0.0,0.0,0.0,0.0,0.0,0.0,0.0,0.0,0.0,0.0,0.0,0.0,0.0,0.0,0.0,0.0,0.0,0.0,0.0,0.0,0.0,0.0,0.0,0.0,0.0,0.0,0.0,0.0,0.0,0.0,0.0,0.0,0.0,0.0,0.0,0.0,0.0,0.0,0.0,0.0,0.0,0.0,0.0,0.0,0.0,0.0,0.0,0.0,0.0,0.0,0.0,0.0,0.0,0.0,0.0,0.0,0.0,0.0,0.0,0.0,0.0,0.0,0.0,0.0,0.0,0.0,0.0,0.0,0.0,0.0,0.0,0.0,0.0,0.0,0.0,0.0,0.0,0.0,0.0,0.0,0.0,0.0,0.0,0.0,0.0,0.0,0.0,0.0,0.0,0.0,0.0,0.0,0.0,0.0,0.0,0.0,0.0,0.0,0.0,0.0,0.0,0.0,0.0,0.0,0.0,0.0,0.0,0.0,0.0,0.0,0.0,0.0,0.0,0.0,0.0,0.0,0.0,0.0,0.0,0.0,0.0,0.0,0.0,0.0,0.0,0.0,0.0,0.0,0.0,0.0,0.0,0.0,0.0,0.0,0.0,0.0,0.0,0.0,0.0,0.0,0.0,0.0,0.0,0.0,0.0,0.0,0.0,0.0,0.0,0.0,0.0,0.0,0.0,0.0,0.0,0.0,0.0,0.0,0.0,0.0,0.0,0.0,0.0,0.0,0.0,0.0,0.0,0.0,0.0,0.0,0.0,0.0,0.0,0.0,0.0,0.0,0.0,0.0,0.0,0.0,0.0,0.0,0.0,0.0,0.0,0.0,0.0,0.0,0.0,0.0,0.0,0.0,0.0,0.0,0.0,0.0,0.0,0.0,0.0,0.0,0.0,0.0,0.0,0.0,0.0,0.0,0.0,0.0,0.0,0.0,0.0,0.0,0.0,0.0,0.0,0.0,0.0,0.0,0.0,0.0,0.0,0.0,0.0,0.0,0.0,0.0,0.0,0.0,0.0,0.0,0.0,0.0,0.0,0.0,0.0,0.0,0.0,0.0,0.0,0.0,0.0,0.0,0.0,0.0,0.0,0.0,0.0,0.0,0.0,0.0,0.0,0.0,0.0,0.0,0.0,0.0,0.0,0.0,0.0,0.0,0.0,0.0,0.0,0.0,0.0,0.0,0.0,0.0,0.0,0.0,0.0,0.0,0.0,0.0,0.0,0.0,0.0,0.0,0.0,0.0,0.0,0.0,0.0,0.0,0.0,0.0,0.0,0.0,0.0,0.0,0.0,0.0,0.0,0.0,0.0,0.0,0.0,0.0,0.0,0.0,0.0,0.0,0.0,0.0,0.0,0.0,0.0,0.0,0.0,0.0,0.0,0.0,0.0,0.0,0.0,0.0,0.0,0.0,0.0,0.0,0.0,0.0,0.0,0.0,0.0,0.0,0.0,0.0,0.0,0.0,0.0,0.0,0.0,0.0,0.0,0.0,0.0,0.0,0.0,0.0,0.0,0.0,0.0,0.0,0.0,0.0,0.0,0.0,0.0,0.0,0.0,0.0,0.0,0.0,0.0,0.0,0.0,0.0,0.0,0.0,0.0,0.0,0.0,0.0,0.0,0.0,0.0,0.0,0.0,0.0,0.0,0.0,0.0,0.0,0.0,0.0,0.0,0.0,0.0,0.0,0.0,0.0,0.0,0.0,0.0,0.0,0.0,0.0,0.0,0.0,0.0,0.0,0.0,0.0,0.0,0.0,0.0,0.0,0.0,0.0,0.0,0.0,0.0,0.0,0.0,0.0,0.0,0.0,0.0,0.0,0.0,0.0,0.0,0.0,0.0,0.0,0.0,0.0,0.0,0.0,0.0,0.0,0.0,0.0,0.0,0.0,0.0,0.0,0.0,0.0,0.0,0.0,0.0,0.0,0.0,0.0,0.0,0.0,0.0,0.0,0.0,0.0,0.0,0.0,0.0,0.0,0.0,0.0,0.0,0.0,0.0,0.0,0.0,0.0,0.0,0.0,0.0,0.0,0.0,0.0,0.0,0.0,0.0,0.0,0.0,0.0,0.0,0.0,0.0,0.0,0.0,0.0,0.0,0.0,0.0,0.0,0.0,0.0,0.0,0.0,0.0,0.0,0.0,0.0,0.0,0.0,0.0,0.0,0.0,0.0,0.0,0.0,0.0,0.0,0.0,0.0,0.0,0.0,0.0,0.0,0.0,0.0,0.0,0.0,0.0,0.0,0.0,0.0,0.0,0.0,0.0,0.0,0.0,0.0,0.0,0.0,0.0,0.0,0.0,0.0,0.0,0.0,0.0,0.0,0.0,0.0,0.0,0.0,0.0,0.0,0.0,0.0,0.0,0.0,0.0,0.0,0.0,0.0,0.0,0.0,0.0,0.0,0.0,0.0,0.0,0.0,0.0,0.0,0.0,0.0,0.0,0.0,0.0,0.0,0.0,0.0,0.0,0.0,0.0,0.0,0.0,0.0,0.0,0.0,0.0,0.0,0.0,0.0,0.0,0.0,0.0,0.0,0.0,0.0,0.0,0.0,0.0,0.0,0.0,0.0,0.0,0.0,0.0,0.0,0.0,0.0,0.0,0.0,0.0,0.0,0.0,0.0,0.0,0.0,0.0,0.0,0.0,0.0,0.0,0.0,0.0,0.0,0.0,0.0,0.0,0.0,0.0,0.0,0.0,0.0,0.0,0.0,0.0,0.0,0.0,0.0,0.0,0.0,0.0,0.0,0.0,0.0,0.0,0.0,0.0,0.0,0.0,0.0,0.0,0.0,0.0,0.0,0.0,0.0,0.0,0.0,0.0,0.0,0.0,0.0,0.0,0.0,0.0,0.0,0.0,0.0,0.0,0.0,0.0,0.0,0.0,0.0,0.0,0.0,0.0,0.0,0.0,0.0,0.0,0.0,0.0,0.0,0.0,0.0,0.0,0.0,0.0,0.0,0.0,0.0,0.0,0.0,0.0,0.0,0.0,0.0,0.0,0.0,0.0,0.0,0.0,0.0,0.0,0.0,0.0,0.0,0.0,0.0,0.0,0.0,0.0,0.0,0.0,0.0,0.0,0.0,0.0,0.0,0.0,0.0,0.0,0.0,0.0,0.0,0.0,0.0,0.0,0.0,0.0,0.0,0.0,0.0,0.0,0.0,0.0,0.0,0.0,0.0,0.0,0.0,0.0,0.0,0.0,0.0,0.0,0.0,0.0,0.0,0.0,0.0,0.0,0.0,0.0,0.0,0.0,0.0,0.0,0.0,0.0,0.0,0.0,0.0,0.0,0.0,0.0,0.0,0.0,0.0,0.0,0.0,0.0,0.0,0.0,0.0,0.0,0.0,0.0,0.0,0.0,0.0,0.0,0.0,0.0,0.0,0.0,0.0,0.0,0.0,0.0,0.0,0.0,0.0,0.0,0.0,0.0,0.0,0.0,0.0,0.0,0.0,0.0,0.0,0.0,0.0,0.0,0.0,0.0,0.0,0.0,0.0,0.0,0.0,0.0,0.0,0.0,0.0,0.0,0.0,0.0,0.0,0.0,0.0,0.0,0.0,0.0,0.0,0.0,0.0,0.0,0.0,0.0,0.0,0.0,0.0,0.0,0.0,0.0,0.0,0.0,0.0,0.0,0.0,0.0,0.0,0.0,0.0,0.0,0.0,0.0,0.0,0.0,0.0,0.0,0.0,0.0,0.0,0.0,0.0,0.0,0.0,0.0,0.0,0.0,0.0,0.0,0.0,0.0,0.0,0.0,0.0,0.0,0.0,0.0,0.0,0.0,0.0,0.0,0.0,0.0,0.0,0.0,0.0,0.0,0.0,0.0,0.0,0.0,0.0,0.0,0.0,0.0,0.0,0.0,0.0,0.0,0.0,0.0,0.0,0.0,0.0,0.0,0.0,0.0,0.0,0.0,0.0,0.0,0.0,0.0,0.0,0.0,0.0,0.0,0.0,0.0,0.0,0.0,0.0,0.0,0.0,0.0,0.0,0.0,0.0,0.0,0.0,0.0,0.0,0.0,0.0,0.0,0.0,0.0,0.0,0.0,0.0,0.0,0.0,0.0,0.0,0.0,0.0,0.0,0.0,0.0,0.0,0.0,0.0,0.0,0.0,0.0,0.0,0.0,0.0,0.0,0.0,0.0,0.0,0.0,0.0,0.0,0.0,0.0,0.0,0.0,0.0,0.0,0.0,0.0,0.0,0.0,0.0,0.0,0.0,0.0,0.0,0.0,0.0,0.0,0.0,0.0,0.0,0.0,0.0,0.0,0.0,0.0,0.0,0.0,0.0,0.0,0.0,0.0,0.0,0.0,0.0,0.0,0.0,0.0,0.0,0.0,0.0,0.0,0.0,0.0,0.0,0.0,0.0,0.0,0.0,0.0,0.0,0.0,0.0,0.0,0.0,0.0,0.0,0.0,0.0,0.0,0.0,0.0,0.0,0.0,0.0,0.0,0.0,0.0,0.0,0.0,0.0,0.0,0.0,0.0,0.0,0.0,0.0,0.0,0.0,0.0,0.0,0.0,0.0,0.0,0.0,0.0,0.0,0.0,0.0,0.0,0.0,0.0,0.0,0.0,0.0,0.0,0.0,0.0,0.0,0.0,0.0,0.0,0.0,0.0,0.0,0.0,0.0,0.0,0.0,0.0,0.0,0.0,0.0,0.0,0.0,0.0,0.0,0.0,0.0,0.0,0.0,0.0,0.0,0.0,0.0,0.0,0.0,0.0,0.0,0.0,0.0,0.0,0.0,0.0,0.0,0.0,0.0,0.0,0.0,0.0,0.0,0.0,0.0,0.0,0.0,0.0,0.0,0.0,0.0,0.0,0.0,0.0,0.0,0.0,0.0,0.0,0.0,0.0,0.0,0.0,0.0,0.0,0.0,0.0,0.0,0.0,0.0,0.0,0.0,0.0,0.0,0.0,0.0,0.0,0.0,0.0,0.0,0.0,0.0,0.0,0.0,0.0,0.0,0.0,0.0,0.0,0.0,0.0,0.0,0.0,3.0684,2.9859,0.0,0.0,0.0,0.0,0.0,0.0,0.0,0.0,0.0,0.0,0.0,0.0,0.0,0.0,0.0,0.0,0.0,0.0,0.0,0.0,0.0,0.0,0.0,0.0,0.0,0.0,0.0,0.0,0.0,0.0,0.0,0.0,0.0,0.0,0.0,0.0,1.9628,2.0708,2.0708,2.1478,2.2951,2.1754,2.0482,1.9105,0.0,0.0,0.0,0.0,0.0,0.0,0.0,0.0,0.0,0.0,0.0,0.0,0.0,0.0,0.0,0.0,0.0,0.0,0.0,0.0,0.0,0.0,0.0,0.0,0.0,0.0,0.0,0.0,0.0,0.0,0.0,0.0,0.0,0.0,0.0,0.0,0.0,0.0,0.0,0.0,0.0,0.0,0.0,0.0,0.0,0.0,0.0,0.0,0.0,0.0,0.0,0.0,0.0,0.0,0.0,0.0,0.0,0.0,0.0,0.0,0.0,0.0,0.0,0.0,0.0,0.0,0.0,0.0,0.0,0.0,3.2938,3.2115,0.0,0.0,0.0,0.0,0.0,0.0,0.0,0.0,0.0,0.0,0.0,0.0,0.0,0.0,0.0,0.0,0.0,0.0,0.0,0.0,0.0,0.0,0.0,1.9011,1.943,1.943,1.9412,1.9546,0.0,0.0,0.0,0.0,0.0,0.0,2.0464,2.0664,2.1666,2.3464,2.4199,2.4789,2.5093,2.5637,2.4182,2.1096,2.0227,0.0,0.0,0.0,0.0,0.0,0.0,0.0,0.0,0.0,0.0,0.0,0.0,0.0,0.0,0.0,0.0,0.0,0.0,0.0,0.0,0.0,0.0,0.0,0.0,0.0,0.0,0.0,0.0,0.0,0.0,0.0,0.0,0.0,0.0,0.0,0.0,0.0,0.0,0.0,0.0,0.0,0.0,0.0,0.0,0.0,0.0,0.0,0.0,0.0,0.0,0.0,0.0,0.0,0.0,0.0,0.0,0.0,0.0,0.0,0.0,0.0,0.0,0.0,3.4751,3.5004,3.5004,3.5004,3.5577,3.6603,3.5474,3.4733,3.4341,3.3902,0.0,0.0,0.0,0.0,0.0,0.0,0.0,0.0,0.0,0.0,0.0,0.0,0.0,0.0,0.0,0.0,0.0,0.0,0.0,1.849,1.849,1.9011,1.943,1.943,1.9599,1.976,1.98,0.0,0.0,0.0,0.0,1.9367,1.9584,2.0525,2.1692,2.2981,2.6729,2.7867,2.6572,2.8298,2.8068,2.6161,2.3198,2.2037,2.2274,0.0,0.0,0.0,0.0,0.0,0.0,0.0,0.0,0.0,0.0,0.0,0.0,0.0,0.0,0.0,0.0,0.0,0.0,0.0,0.0,0.0,0.0,0.0,0.0,0.0,0.0,0.0,0.0,0.0,0.0,0.0,0.0,0.0,0.0,0.0,0.0,0.0,0.0,0.0,0.0,0.0,2.765,2.7708,0.0,0.0,0.0,0.0,0.0,0.0,0.0,0.0,0.0,0.0,0.0,0.0,0.0,3.498,3.5286,3.7215,3.8164,3.8164,3.871,3.8931,3.8931,3.8931,3.9034,3.9189,3.9034,0.0,3.573,3.5659,0.0,0.0,0.0,0.0,0.0,0.0,0.0,0.0,0.0,0.0,0.0,0.0,0.0,0.0,0.0,0.0,0.0,0.0,0.0,0.0,0.0,1.9399,1.9853,1.9853,2.0267,2.0535,2.0535,2.0388,0.0,0.0,1.976,2.0322,2.1828,2.2824,2.4788,2.7712,2.987,3.0546,2.9874,3.0733,3.0878,3.0281,2.7618,2.5913,2.506,2.4386,0.0,0.0,0.0,0.0,0.0,0.0,0.0,0.0,0.0,0.0,0.0,0.0,0.0,0.0,0.0,0.0,0.0,0.0,0.0,0.0,0.0,0.0,0.0,0.0,0.0,0.0,0.0,0.0,0.0,0.0,0.0,0.0,0.0,0.0,0.0,0.0,0.0,0.0,0.0,2.8555,2.8652,2.9394,2.9707,2.9929,0.0,0.0,0.0,0.0,0.0,0.0,0.0,0.0,0.0,3.422,3.5622,3.6702,3.7342,3.8042,3.8718,3.932,3.927,3.9546,4.0149,4.0149,4.0325,4.0626,4.0626,4.0009,3.8915,3.8005,3.6823,3.5561,0.0,0.0,0.0,0.0,3.5435,3.5949,0.0,0.0,0.0,0.0,0.0,0.0,0.0,0.0,0.0,0.0,0.0,0.0,1.9118,1.9933,2.0454,2.0454,2.0922,2.1189,2.1109,2.0975,2.0695,2.0193,2.0373,2.1247,2.2871,2.4783,2.7864,3.2012,3.2559,3.2812,3.2812,3.2695,3.2832,3.3043,3.1377,2.9564,2.7651,2.7234,2.6935,2.6569,0.0,0.0,0.0,0.0,0.0,0.0,0.0,0.0,0.0,0.0,0.0,0.0,0.0,0.0,0.0,0.0,0.0,0.0,0.0,0.0,0.0,0.0,0.0,0.0,0.0,0.0,0.0,0.0,0.0,0.0,0.0,0.0,0.0,0.0,0.0,0.0,0.0,3.0454,3.0648,3.173,3.1881,3.1934,0.0,0.0,0.0,0.0,0.0,0.0,3.4022,3.5331,3.6204,3.6278,3.7295,3.8291,3.927,3.8868,3.9145,4.0099,3.9697,3.9923,4.0674,4.0674,4.0899,4.1275,4.1275,4.1275,4.12,3.9998,3.8879,3.7895,3.7508,3.7266,3.717,3.7291,3.7907,3.8718,0.0,0.0,0.0,0.0,0.0,0.0,0.0,0.0,0.0,0.0,0.0,1.9733,1.9746,2.0535,2.1069,2.1069,2.1349,2.1416,2.1122,2.1363,2.1122,2.0267,2.1572,2.1737,2.0415,2.5219,2.9549,3.332,3.416,3.457,3.457,3.416,3.4048,3.3984,3.3491,3.2062,3.0149,2.931,2.8715,2.831,2.8518,0.0,0.0,0.0,0.0,0.0,0.0,0.0,0.0,0.0,0.0,0.0,0.0,0.0,0.0,0.0,0.0,0.0,0.0,0.0,0.0,0.0,0.0,0.0,0.0,0.0,0.0,0.0,0.0,0.0,0.0,0.0,0.0,0.0,0.0,0.0,0.0,0.0,0.0,3.4558,3.4185,0.0,0.0,0.0,0.0,3.3997,3.5608,3.6355,3.5884,3.7687,3.8743,3.8718,3.9295,3.9848,4.0425,4.04,4.0676,4.12,4.1175,4.12,4.125,4.125,4.125,4.1275,4.1275,4.1275,4.1275,4.12,4.115,4.1043,4.1071,4.0746,4.0345,4.0871,4.0721,4.0475,0.0,0.0,0.0,0.0,0.0,1.2857,1.475,1.5885,1.7138,1.8867,1.9492,1.9947,2.0321,2.1149,2.167,2.167,2.2111,2.2271,2.1977,2.1697,2.1323,2.0815,2.1156,2.2505,2.5077,2.9309,3.235,3.4238,3.4551,3.4707,3.4687,3.4551,3.4336,3.4062,3.3906,3.3256,3.2327,3.2022,3.1275,3.0382,3.0529,2.957,0.0,0.0,0.0,0.0,0.0,0.0,0.0,0.0,0.0,0.0,0.0,0.0,0.0,0.0,0.0,0.0,0.0,0.0,0.0,0.0,0.0,0.0,0.0,0.0,0.0,0.0,0.0,0.0,0.0,0.0,0.0,0.0,0.0,0.0,0.0,0.0,0.0,3.5826,3.5872,0.0,3.6068,3.7202,3.7705,3.72,3.8099,3.8526,3.8405,3.9014,3.9245,3.8919,3.912,3.9421,3.9973,3.9647,4.0099,4.1275,4.0924,4.1178,4.1856,4.1856,4.2057,4.2384,4.2384,4.2384,4.2384,4.2384,4.1982,4.1275,4.1275,4.1175,4.1025,4.12,4.1175,4.1025,0.0,0.0,0.0,0.9822,1.0657,1.2055,1.4045,1.5194,1.6809,1.9496,2.0147,2.0655,2.1336,2.2124,2.2552,2.2445,2.2792,2.2806,2.2298,2.1911,2.1523,2.1122,2.1203,2.3671,2.8878,3.1114,3.3199,3.5156,3.5156,3.5156,3.5137,3.5,3.4707,3.4277,3.4277,3.4043,3.3652,3.3789,3.3203,3.2129,3.1699,3.0566,2.9121,0.0,0.0,0.0,0.0,0.0,0.0,0.0,0.0,0.0,0.0,0.0,0.0,0.0,0.0,0.0,0.0,0.0,0.0,0.0,0.0,0.0,0.0,0.0,0.0,0.0,0.0,0.0,0.0,0.0,0.0,0.0,0.0,0.0,0.0,3.6457,3.6757,3.8022,3.8114,3.8194,3.8621,3.9622,4.0023,3.9471,3.9772,3.9798,3.9446,3.9597,3.9446,3.8944,3.922,3.9697,4.0249,4.0074,4.0626,4.1882,4.153,4.1731,4.2489,4.2489,4.269,4.2986,4.2986,4.2986,4.2986,4.2986,4.2534,4.1882,4.1882,4.1882,4.1882,4.1882,4.1882,4.1882,0.0,0.9822,0.9822,0.9822,0.9822,1.0899,1.4063,1.455,1.6057,2.0129,2.1203,2.1963,2.2847,2.3407,2.3661,2.3367,2.334,2.2966,2.2071,2.1991,2.1737,2.1162,2.2057,2.5234,3.1007,3.0395,3.1998,3.6016,3.6016,3.6016,3.6016,3.5605,3.5176,3.4726,3.4726,3.4492,3.4121,3.4531,3.4219,3.3359,3.209,3.1328,3.0781,0.0,0.0,0.0,0.0,0.0,0.0,0.0,0.0,0.0,0.0,0.0,0.0,0.0,0.0,0.0,0.0,0.0,0.0,0.0,0.0,0.0,0.0,0.0,0.0,0.0,0.0,0.0,0.0,0.0,0.0,0.0,0.0,0.0,3.8419,3.9136,4.0124,4.1125,4.0852,4.0752,4.12,4.125,4.1025,4.0526,4.0501,4.0023,3.8994,3.9396,3.9446,3.8969,3.9923,4.0752,4.1275,4.1856,4.2464,4.2986,4.2986,4.2986,4.2986,4.2986,4.2986,4.2986,4.2986,4.2986,4.2986,4.2986,4.3011,4.3011,4.2986,4.2986,4.2986,4.2986,4.2986,4.2986,0.9822,0.9822,0.9822,0.9822,0.9822,1.0482,1.2569,1.401,1.5932,1.887,2.076,2.2205,2.31,2.3541,2.3741,2.3661,2.3647,2.3354,2.2727,2.2218,2.1911,2.175,2.4111,2.697,3.0155,3.1617,3.3477,3.6016,3.6016,3.6016,3.6016,3.5898,3.5605,3.5195,3.5195,3.4941,3.4531,3.4648,3.457,3.4258,3.3281,3.2461,3.1719,0.0,0.0,0.0,0.0,0.0,0.0,0.0,0.0,0.0,0.0,0.0,0.0,0.0,0.0,0.0,0.0,0.0,0.0,0.0,0.0,0.0,0.0,0.0,0.0,0.0,0.0,0.0,0.0,0.0,0.0,0.0,3.9446,3.9867,3.9377,3.9863,4.04,4.0701,4.0899,4.0974,4.0752,4.0752,4.0526,3.9973,3.9923,3.9798,3.9471,3.9622,3.9622,3.9471,3.9772,4.0375,4.1275,4.148,4.2032,4.2986,4.2986,4.2986,4.2986,4.2986,4.2986,4.2986,4.2986,4.2986,4.3011,4.3413,4.3589,4.3539,4.3137,4.2986,4.2986,4.2986,4.2986,4.2986,0.9822,0.9822,0.9822,0.9822,0.9822,1.0361,1.1976,1.3765,1.5979,1.87,2.0872,2.2605,2.3754,2.4035,2.4088,2.3968,2.3728,2.3327,2.2712,2.2472,2.2525,2.2899,2.4792,2.6727,2.8814,3.0915,3.2943,3.4815,3.5587,3.6113,3.6289,3.6094,3.5898,3.5664,3.5664,3.541,3.5,3.5176,3.5254,3.5156,3.4121,3.3301,3.2598,3.1758,3.1267,3.0942,3.0049,2.9881,3.0077,2.9695,0.0,0.0,0.0,0.0,0.0,0.0,0.0,0.0,0.0,0.0,0.0,0.0,0.0,0.0,0.0,0.0,0.0,0.0,0.0,0.0,0.0,0.0,0.0,0.0,4.0149,4.0752,4.0425,4.0651,4.0852,4.0852,4.11,4.1175,4.0902,4.0852,4.0626,4.0074,4.0049,3.9948,3.9697,4.0124,4.0275,4.0049,4.0927,4.1605,4.2032,4.2484,4.3037,4.3664,4.3664,4.3664,4.3664,4.3664,4.3664,4.3664,4.3664,4.3664,4.3689,4.4016,4.4141,4.4091,0.0,0.0,0.0,0.0,4.3162,4.2986,0.9829,0.9822,0.9822,0.9822,0.9822,1.0301,1.1736,1.3541,1.5794,1.8593,2.0625,2.2454,2.4095,2.4253,2.4235,2.4275,2.3741,2.3166,2.2565,2.2806,2.334,2.4168,2.4516,2.5561,2.7537,2.9441,3.1364,3.3296,3.5242,3.6348,3.666,3.6269,3.6074,3.6016,3.6016,3.582,3.5488,3.5859,3.6016,3.5918,3.4707,3.3926,3.3398,3.25,3.2651,3.3074,3.158,3.1499,3.1835,3.0386,0.0,0.0,0.0,0.0,0.0,0.0,0.0,0.0,0.0,0.0,0.0,0.0,0.0,0.0,0.0,0.0,0.0,0.0,0.0,0.0,0.0,0.0,0.0,0.0,4.0752,4.1376,4.1376,4.1426,4.1426,4.13,4.1351,4.1326,4.12,4.125,4.105,4.0551,4.0576,4.04,3.9898,4.0877,0.0,0.0,0.0,4.3514,4.3062,4.4041,4.4568,4.4618,4.4618,4.4618,4.4618,4.4618,4.4618,4.4618,4.4618,4.4618,4.4644,4.4694,4.4719,4.4669,4.4116,4.4192,4.4568,4.4066,4.3589,4.3162,0.9869,0.9822,0.9822,0.9822,0.9822,0.9883,1.024,1.2012,1.3761,1.5048,1.7003,1.9249,2.1855,2.2211,2.2794,2.4409,2.4235,2.3781,2.3193,2.3434,2.3781,2.4182,2.4716,2.5977,2.8208,3.016,3.213,3.4037,3.6028,3.6914,3.668,3.6582,3.6348,3.6016,3.6016,3.5976,3.5898,3.5996,3.6016,3.5976,3.5371,3.4648,3.3809,3.2617,3.3034,3.3993,3.2495,3.2589,3.332,3.2117,3.0957,3.0195,3.0918,3.041,0.0,0.0,0.0,0.0,0.0,0.0,0.0,0.0,0.0,0.0,0.0,0.0,0.0,0.0,0.0,0.0,0.0,0.0,0.0,4.0924,4.158,4.2062,4.2062,4.2384,4.2333,4.1401,4.1731,4.1656,4.0752,4.1025,4.105,4.0551,4.0874,4.1075,4.0974,4.163,4.2011,4.1886,4.2685,4.3288,4.3639,4.384,4.4192,4.4618,4.4618,0.0,4.4618,4.4618,4.4618,4.4618,4.4618,4.4618,4.4669,4.5121,4.5321,4.5271,4.4694,4.4543,4.4618,4.4493,4.4392,4.4292,1.0093,1.0053,1.0053,1.0053,1.0053,1.0053,1.0053,1.1736,1.3268,1.4061,1.591,1.7803,1.9632,2.0573,2.1462,2.2488,2.319,2.3474,2.334,2.3741,2.4182,2.4623,2.4917,2.5582,2.6697,2.8653,3.0705,3.2788,3.4573,3.5952,3.6973,3.6543,3.6348,3.6328,3.6113,3.6016,3.6016,3.6016,3.6016,3.5976,3.5566,3.5137,3.4609,3.3535,3.3799,3.456,3.3072,3.3175,3.3972,3.2674,3.1719,3.1269,3.1699,3.1958,3.2399,0.0,0.0,0.0,0.0,0.0,0.0,0.0,0.0,0.0,0.0,0.0,0.0,0.0,0.0,4.0927,4.0927,0.0,4.1756,4.1756,4.2208,4.2615,4.2615,4.3037,4.2886,4.1451,4.1831,4.1785,4.0626,4.0974,4.1275,4.1329,4.1329,4.1401,4.1731,4.2534,4.2861,4.264,4.3915,4.4644,4.4644,4.492,4.5196,4.5472,4.5472,4.5472,4.5472,4.5472,4.5472,4.5472,4.5472,4.5472,4.5497,4.5773,4.5899,4.5874,4.5573,4.5121,4.4669,4.4945,4.4869,4.4618,1.0385,1.0365,1.0344,1.029,1.0283,1.0283,1.0283,1.1634,1.289,1.3535,1.4958,1.6356,1.7349,1.8617,1.9685,2.0298,2.2007,2.3126,2.3313,2.3928,2.4529,2.5064,2.5077,2.5104,2.5157,2.7064,2.8934,3.0884,3.2423,3.4355,3.6566,3.5893,3.572,3.602,3.5604,3.5245,3.4952,3.5295,3.5451,3.55,3.551,3.5469,3.5312,3.4609,3.4762,3.5209,3.3706,3.3901,3.4542,3.2952,3.2363,3.2346,3.2691,3.3656,3.5019,3.6652,3.791,0.0,0.0,0.0,0.0,0.0,0.0,0.0,0.0,4.1505,4.153,4.163,4.2007,4.2183,4.1731,4.2384,4.2891,4.2439,4.274,4.3011,4.3112,4.3514,4.3313,4.1927,4.2208,4.2087,4.0927,4.1329,4.1831,4.2338,4.2007,4.2057,4.261,4.3589,4.3915,4.3489,4.5321,4.61,4.5648,4.6075,4.6301,4.6301,4.6301,4.6301,4.6301,4.6301,4.6301,4.6301,4.6301,4.6301,4.6301,4.6301,4.6301,4.6301,4.6301,4.5748,4.4995,4.5472,4.5347,4.4945,1.0677,1.067,1.0588,1.0324,1.0283,1.0283,1.0283,1.0709,1.1073,1.1461,1.1903,1.3005,1.5,1.5443,1.67,1.9644,2.2217,2.3567,2.334,2.4115,2.473,2.5064,2.5077,2.5197,2.5464,2.7456,2.8657,2.8911,3.0868,3.2671,3.4173,3.4082,3.3882,3.359,3.3535,3.2525,3.1017,3.2804,3.3517,3.3656,3.5256,3.5723,3.5391,3.5293,3.5952,3.6685,3.5057,3.5271,3.5936,3.3965,3.3027,3.2962,3.4429,3.5071,3.6123,4.0383,4.1091,4.1028,4.3465,4.3087,4.181,4.0852,4.0793,4.1239,0.0,4.2112,4.2263,4.2685,4.2836,4.2861,4.2811,4.2886,4.2961,4.2886,4.2936,4.3162,4.3639,4.3765,4.374,4.3539,4.3589,4.3187,4.2137,4.2514,4.2811,4.2942,4.3288,4.3765,4.4317,4.4945,4.5271,4.5221,4.5924,4.6276,4.6225,4.6276,4.6301,4.6301,4.6301,4.6301,4.6301,4.6301,4.6301,4.6301,4.6301,4.6301,4.6301,4.6301,4.6301,4.6301,4.6301,4.6225,4.6125,4.62,4.6175,4.6125,1.0786,1.0786,1.0745,1.069,1.0595,1.0534,1.0534,1.0643,1.0826,1.1193,1.1199,1.1594,1.2742,1.3574,1.5456,1.8754,2.0742,2.2109,2.299,2.4048,2.469,2.4823,2.4823,2.4957,2.5251,2.6143,2.7265,2.8627,2.9159,3.0365,3.2148,3.1853,3.1664,3.1527,3.1527,3.1087,3.038,3.1158,3.2158,3.324,3.402,3.4926,3.5762,3.5762,3.6028,3.6302,3.5146,3.4868,0.0,3.4398,3.3887,3.3701,3.4615,3.6101,3.7874,4.0106,4.1638,4.2774,4.3844,4.3413,4.2564,4.2057,4.2133,4.2359,4.264,4.269,4.2766,4.2936,4.2986,4.2986,4.2986,4.3237,4.3463,4.3463,4.374,4.4016,4.4242,4.4568,4.4769,4.4769,4.507,4.4694,4.3263,4.3614,4.4091,4.4418,4.4342,4.4518,4.5095,4.5347,4.5497,4.5497,4.6024,4.6301,4.6301,4.6301,4.6301,4.6301,4.6301,4.6301,4.6301,4.6301,4.6301,4.6301,4.6301,4.6301,4.6301,4.6301,4.6301,4.6301,4.6301,4.6301,4.6301,4.6301,4.6301,4.6301,1.088,1.0914,1.0995,1.0887,1.0793,1.0785,1.0785,1.0785,1.0887,1.1185,1.1138,1.1138,1.1307,1.2611,1.4385,1.684,1.8979,2.0739,2.2078,2.3601,2.4556,2.4636,2.4636,2.473,2.4957,2.4957,2.5786,2.7478,2.7171,2.8054,3.0058,2.9656,2.9544,2.9544,2.9544,2.9258,2.8757,2.9329,3.068,3.2455,3.2961,3.4314,3.6016,3.6016,3.5937,3.5762,3.5117,3.4609,3.4258,3.4316,3.4141,3.4054,3.466,3.6457,3.8486,3.9601,4.1788,4.3738,4.3626,4.3388,4.3137,4.2836,4.2861,4.2986,4.2986,4.2986,4.3011,4.3162,4.3212,4.3263,4.3413,4.3765,4.4041,4.4041,4.4367,4.4669,4.4844,4.5221,4.5547,4.5698,4.6075,4.5824,4.4618,4.4719,4.5045,4.5447,4.5095,4.5121,4.5673,4.5723,4.5723,4.5723,4.61,4.6301,4.6301,4.6301,4.6301,4.6301,4.6301,4.6301,4.6301,4.6301,4.6301,4.6301,4.6301,4.6301,4.6301,4.6301,4.6301,4.6301,4.6301,4.6301,4.6301,4.6301,4.6301,4.6301,1.088,1.1063,1.1111,1.0907,1.088,1.0873,1.0873,1.0873,1.0981,1.1348,1.1382,1.1321,1.1185,1.2425,1.3333,1.3456,1.7336,1.9986,2.0374,2.2762,2.4342,2.4623,2.4636,2.4562,2.4576,2.4649,2.4649,2.4737,2.4723,2.5726,2.7593,2.7578,2.7578,2.7578,2.7578,2.6575,2.4918,2.6779,2.8701,3.0522,3.2455,3.4314,3.6016,3.6016,3.5762,3.541,3.5391,3.5078,3.4551,3.373,3.3457,3.3611,3.4798,3.5928,3.7251,3.9752,4.1992,4.3575,4.3166,4.3388,4.3514,4.2514,4.264,4.2986,4.2986,4.2986,4.3137,4.3664,4.379,4.394,4.4468,4.4593,4.4593,4.4593,4.4618,4.4819,4.5372,4.5472,4.5673,4.6225,4.6301,4.6301,4.6225,4.5773,4.5472,4.5497,4.5472,4.5698,4.625,4.6276,4.6276,4.6276,4.6301,4.6301,4.6301,4.6301,4.6301,4.6301,4.6301,4.6301,4.6301,4.6301,4.6301,4.6301,4.6301,4.6301,4.6301,4.6301,4.6301,4.6301,4.6301,4.6301,4.6301,4.6301,4.6301,4.6301,1.1111,1.1212,1.1301,1.1253,1.1077,1.0914,1.1077,1.1009,1.1016,1.1212,1.1328,0.0,0.0,0.0,0.0,0.0,1.5066,1.7192,1.9769,2.1395,2.2853,2.4256,2.4529,2.4636,2.4636,2.4636,2.4636,2.4636,2.4636,2.4918,2.5566,2.5566,2.5566,2.5566,2.5566,2.5212,2.4636,2.5286,2.6707,2.8485,2.9131,3.1333,3.4195,3.4455,3.4933,3.5351,0.0,3.4473,3.3809,3.3516,3.3242,3.309,3.3811,3.4964,3.6844,4.0579,4.2202,4.2988,4.3838,4.394,4.3614,4.2886,4.2891,4.2986,4.2986,4.2986,4.3137,4.3689,4.379,4.3966,4.4518,4.4945,4.5196,4.5196,4.5497,4.5824,4.5999,4.6024,4.61,4.6276,4.5281,4.5013,4.618,4.615,4.5519,4.4354,4.5399,4.5594,4.462,4.5671,4.6301,4.6301,4.6301,4.6301,4.6301,4.6301,4.6301,4.6301,4.6301,4.6301,4.6301,4.6301,4.6301,4.6301,4.6301,4.6301,4.6301,4.6301,4.6301,4.6301,4.6301,4.6301,4.6301,4.6301,4.6301,4.6301,0.0,1.1491,1.1599,1.1491,1.1274,0.0,0.0,0.0,0.0,0.0,0.0,0.0,0.0,0.0,0.0,0.0,0.0,1.5211,1.7755,1.9771,2.1507,2.2985,2.3845,2.4275,2.4168,2.4168,2.4222,2.4329,2.4329,2.4436,2.4636,2.4636,2.4636,2.4636,2.4636,2.4636,2.4636,2.4636,2.5838,2.7834,2.7595,2.9489,3.2561,3.3106,3.3642,0.0,3.4192,3.3789,3.3144,3.2851,3.2656,3.2617,3.2891,3.4113,3.6144,3.9969,4.1355,4.2037,4.406,4.4367,4.4016,4.3664,4.3413,4.3313,4.3514,4.3413,4.3294,4.344,4.3962,4.4394,4.4304,4.5082,4.5849,4.605,4.6376,4.6602,4.6602,4.6602,4.6527,4.6326,4.5342,4.5074,4.618,4.6301,4.5586,4.3855,4.4767,4.489,4.3793,4.4743,4.5671,4.6301,4.6301,4.6301,4.6301,4.6301,4.6301,4.6301,4.6301,4.6301,4.6301,4.6301,4.6301,4.6301,4.6301,4.6301,4.6301,4.6301,4.6301,4.6301,4.6301,4.6301,4.6301,4.6301,4.6301,4.6301,0.0,0.0,1.1972,0.0,0.0,0.0,0.0,0.0,0.0,0.0,0.0,0.0,0.0,0.0,0.0,0.0,0.0,0.0,1.4514,1.7977,2.0251,2.0827,2.2561,2.3479,2.3354,2.32,2.3417,2.3768,2.3768,2.4062,2.4609,2.4609,2.4623,2.4636,2.4636,2.4636,2.4636,2.4636,2.5973,2.8133,2.7583,2.8769,3.1055,3.1966,3.2069,3.1889,3.2918,3.3058,3.2533,3.1795,3.1875,3.2307,3.2266,3.3379,3.5221,3.8099,3.9494,4.0808,4.3747,4.4469,4.4527,4.456,4.4159,4.3876,4.4344,4.3986,4.3424,4.2901,4.411,4.4882,4.376,4.489,4.6234,4.682,4.6895,4.6957,4.7043,4.7043,4.6903,4.6376,4.624,4.618,4.6301,4.624,4.5464,4.3731,4.3731,4.3793,4.3606,4.3669,4.4436,4.5999,4.6059,4.6059,4.618,4.624,4.6301,4.6301,4.6301,4.6301,4.6301,4.6301,4.6301,4.6301,4.6301,4.6301,4.6301,4.6301,4.6301,4.6301,4.6301,4.6301,4.6301,4.6301,4.6301,4.6301,0.0,0.0,0.0,0.0,0.0,0.0,0.0,0.0,0.0,0.0,0.0,0.0,0.0,0.0,0.0,0.0,0.0,0.0,1.4087,1.5256,1.7256,2.0297,1.979,2.0746,2.3577,2.2258,2.2296,2.3768,2.3768,2.3955,2.4315,2.4315,2.4436,2.4636,2.4636,2.4636,2.4636,2.4636,2.4891,2.5235,2.5084,2.6229,2.8131,2.8703,2.9309,3.0106,3.1679,3.1644,3.1013,3.2088,3.2754,3.3164,3.3496,3.3887,3.4769,3.738,3.8338,3.9192,4.2451,4.3301,4.3529,4.4427,4.3536,4.2651,4.312,4.1821,4.0778,4.1347,4.1571,4.1644,4.1792,4.2201,4.2942,4.4357,4.4567,4.5024,4.632,4.6527,4.6476,4.6326,4.5135,4.489,4.618,4.5135,4.3669,4.1947,4.4189,4.4497,4.1947,4.302,4.3333,4.2517,4.2517,4.3107,4.4374,4.5671,4.6301,4.6301,4.6301,4.6301,4.6301,4.6301,4.6301,4.6301,4.6301,4.6301,4.6301,4.6301,4.6301,4.6301,4.6301,4.6301,4.6301,4.6301,4.6301,4.6301,0.0,0.0,0.0,0.0,0.0,0.0,0.0,0.0,0.0,0.0,0.0,0.0,0.0,0.0,0.0,0.0,0.0,0.0,0.0,1.4353,1.599,1.7638,1.9089,2.0409,2.1533,2.1314,2.142,2.1936,2.1779,2.2058,2.2762,2.2553,2.2963,2.3861,2.3861,2.3861,2.3861,2.4008,2.4195,0.0,0.0,2.5066,2.6383,2.7082,2.7666,2.8483,3.1023,3.2155,3.2663,3.3605,3.3828,3.3789,3.4219,3.4492,3.5119,3.7239,3.8052,3.8828,4.1661,4.2425,4.259,4.3417,4.277,4.1946,4.1992,4.1035,4.0063,3.9691,4.0226,4.059,4.0169,4.0666,4.1569,4.2754,4.2968,4.3561,4.5231,4.5503,4.5736,4.6205,4.5464,4.522,4.618,4.5403,4.4127,4.2454,4.3419,4.2895,4.0213,4.0988,4.1373,4.1181,4.1181,4.2011,4.3669,4.5403,4.6301,4.6301,4.6301,4.6301,4.6301,4.6301,4.6301,4.6301,4.6301,4.6301,4.6301,4.6301,4.6301,4.6301,4.6301,4.6301,4.6301,4.6301,4.6301,4.6301,0.0,0.0,0.0,0.0,0.0,0.0,0.0,0.0,0.0,0.0,1.1118,1.1246,1.1375,1.1531,0.0,0.0,0.0,0.0,0.0,0.0,1.5663,1.4719,1.9153,2.0835,1.9155,2.0551,2.0829,1.9945,1.9542,1.9991,2.1124,2.073,2.1421,2.2928,2.2928,2.2928,2.2954,2.3193,2.3768,2.4449,2.4235,2.4623,2.5402,0.0,2.6413,2.6866,3.0327,3.301,3.5036,3.5324,3.4922,3.4394,3.4766,3.5156,3.5803,3.7246,3.8017,3.8786,4.087,4.1484,4.1705,4.2238,4.1883,4.133,4.0995,4.0646,3.9823,3.8007,3.9109,4.0018,3.8531,3.9497,4.0734,4.1415,4.1547,4.2133,4.3827,4.4294,4.4842,4.5842,4.618,4.618,4.5974,4.5914,4.5159,4.3146,4.1693,4.0213,3.8663,3.8597,3.919,4.0472,4.0731,4.1693,4.3333,4.5074,4.6059,4.6301,4.6059,4.6059,4.6301,4.6059,4.5914,4.5914,4.5914,4.5914,4.5914,4.5914,4.612,4.6301,4.6301,4.6301,4.6301,4.6301,4.618,4.5914,0.0,0.0,0.0,0.0,0.0,0.0,0.0,0.0,0.0,0.0,1.1335,1.1362,0.0,0.0,0.0,0.0,0.0,0.0,0.0,0.0,0.0,1.6027,1.7032,1.8831,2.1371,2.0224,2.0232,2.1593,2.1516,2.1712,2.2154,2.2078,2.2347,2.2928,2.2928,2.2928,2.2954,2.3193,2.342,2.3567,2.3768,2.4075,2.4409,2.4612,0.0,0.0,2.8473,3.1129,3.3274,3.4835,3.5527,3.5684,3.5762,3.584,3.5966,3.6237,3.6669,3.7417,3.9202,3.9947,4.0604,4.206,4.1301,4.007,3.965,3.8156,3.6769,3.6372,3.6403,3.6436,3.6479,3.6674,3.7394,3.8967,3.9165,3.9822,4.1572,4.2972,4.395,4.4127,4.5403,4.5732,4.4312,4.4165,4.2832,3.9693,3.9256,3.8927,3.8597,3.8597,3.8088,3.6924,3.8287,3.9888,4.1629,4.3294,4.489,4.6301,4.4829,4.489,4.624,4.4829,4.4165,4.4165,4.4165,4.4165,4.4165,4.4165,4.5013,4.6301,4.6301,4.6301,4.6301,4.6301,4.5403,4.4165,0.0,0.0,0.0,0.0,0.0,0.0,0.0,1.1511,1.1565,1.1721,1.1809,1.1769,1.1538,1.164,1.1667,0.0,0.0,0.0,0.0,0.0,0.0,1.5087,1.7872,1.9694,2.0285,2.0213,1.9879,1.9206,0.0,1.9752,1.9379,2.0062,2.0939,2.1951,2.1951,2.1951,2.1964,2.2271,2.2672,2.3113,2.342,2.3901,2.4422,2.4422,0.0,0.0,2.7712,3.028,3.3019,3.3948,3.5005,3.6016,3.6016,3.6016,3.6074,3.6289,3.6504,3.6966,3.8196,3.8667,3.91,4.0145,3.9786,3.8959,3.7827,3.6924,3.6113,3.5195,3.5215,3.5449,3.5664,3.5879,3.6268,3.7126,3.726,3.7842,3.9562,4.0537,4.167,4.3458,4.3669,4.3669,4.3731,4.2895,4.1373,3.8795,3.8597,3.8221,3.7307,3.726,3.6856,3.6016,3.7709,3.8993,3.9823,4.2391,4.4103,4.4951,4.4103,4.4127,4.489,4.3169,4.2391,4.2454,4.3333,4.3731,4.3793,4.4682,4.5525,4.6301,4.6301,4.5732,4.4951,4.4951,4.3855,4.2391,0.0,0.0,0.0,0.0,0.0,0.0,0.0,1.1837,1.1904,1.2169,1.2311,1.2237,1.185,1.1877,1.1809,0.0,0.0,0.0,0.0,0.0,0.0,0.0,0.0,0.0,1.9369,0.0,0.0,1.7659,1.8599,0.0,0.0,0.0,0.0,0.0,2.1296,2.1296,2.1323,2.1617,2.2244,0.0,0.0,2.3915,2.4576,0.0,0.0,0.0,0.0,2.9529,3.214,3.2473,3.3812,3.5382,3.5382,3.5655,3.6133,3.666,3.6816,3.6973,3.7715,3.7988,3.8144,3.8496,3.8574,3.8125,3.6406,3.6289,3.6055,3.4414,3.4629,3.5176,3.5351,3.5664,3.5918,3.5996,3.6016,3.6471,3.7822,3.8353,3.9627,4.2328,4.1756,4.1565,4.2517,4.1437,3.9888,3.8154,3.8021,3.7441,3.6084,3.6016,3.6016,3.6016,3.7307,3.8221,3.8597,4.1287,4.2769,4.3146,4.2769,4.2832,4.3083,4.1437,4.0666,4.0731,4.2074,4.2643,4.2706,4.4127,4.489,4.522,4.522,4.4374,4.3146,4.3146,4.2074,4.0666,0.0,0.0,0.0,0.0,0.0,0.0,0.0,1.2257,1.2481,1.2644,1.2678,1.2623,1.244,1.2318,1.2121,0.0,0.0,0.0,0.0,0.0,0.0,0.0,0.0,0.0,0.0,0.0,0.0,2.1163,2.1714,0.0,0.0,0.0,0.0,0.0,0.0,2.1911,2.1924,2.2218,0.0,0.0,0.0,0.0,0.0,0.0,0.0,0.0,0.0,2.8086,2.8612,3.0069,3.1878,3.3448,3.3448,3.4659,3.6172,3.6992,3.7246,3.7344,3.7793,3.8223,3.8535,3.8555,3.8574,3.8125,3.6406,3.6055,3.5703,3.4355,3.4141,3.4434,3.5234,3.543,3.5566,3.5957,3.6016,3.6084,3.6219,3.7575,3.8729,3.9059,4.0343,4.0666,3.919,3.8927,3.8088,3.6336,3.6219,3.6152,3.6016,3.6016,3.6016,3.6016,3.6152,3.6991,3.8597,3.8927,3.9888,4.1437,3.9823,3.9888,4.1373,3.9627,3.8861,3.8861,3.8993,3.9059,3.9059,3.9256,4.0213,4.1693,4.1693,4.1565,4.1437,4.1437,4.0343,3.8861,0.0,0.0,0.0,0.0,0.0,0.0,1.2298,1.2352,1.2494,1.2827,1.2868,1.2847,1.2786,1.2725,1.2501,1.2013,0.0,0.0,0.0,0.0,0.0,0.0,0.0,0.0,0.0,0.0,2.2052,2.1071,2.1987,0.0,0.0,0.0,0.0,0.0,0.0,2.1991,2.1991,2.2111,0.0,0.0,0.0,0.0,0.0,0.0,0.0,0.0,0.0,0.0,2.8042,2.8623,3.0007,3.1702,3.316,3.4092,3.499,3.6758,3.748,3.7773,3.8203,3.8437,3.8574,3.8574,3.8379,3.7812,3.6348,3.582,3.5273,3.3945,3.4082,3.4551,3.4902,3.541,3.582,3.5996,3.6016,3.6016,3.6016,3.6606,3.7441,3.8486,3.8287,3.8221,3.8531,3.7642,3.6722,3.6084,3.6016,3.6016,3.6016,3.6016,3.6016,3.6016,3.6016,3.6336,3.7059,3.8088,3.8927,3.9627,3.8927,3.8993,3.9562,3.7822,3.7059,3.7126,3.8154,3.8597,3.8663,3.9693,4.0602,4.1181,4.1181,4.0537,3.9627,3.9627,3.8531,3.7059,0.0,0.0,0.0,0.0,0.0,1.2264,1.2467,1.2454,1.2549,1.2915,1.2922,1.2908,1.2956,1.2881,1.2671,1.2291,1.2081,0.0,0.0,0.0,0.0,0.0,0.0,0.0,0.0,0.0,2.2662,2.1632,2.2553,2.2345,0.0,0.0,2.2418,2.2245,0.0,0.0,0.0,0.0,0.0,2.3046,0.0,0.0,0.0,0.0,0.0,0.0,0.0,0.0,0.0,0.0,0.0,2.988,3.1507,3.2878,3.428,3.672,3.7695,3.8027,3.8457,3.8574,3.8574,3.8574,3.8242,3.7598,3.6309,3.5703,3.5019,3.3691,3.4004,3.4551,3.4668,3.5312,3.5879,3.5996,3.6016,3.6016,3.6016,3.6016,3.6471,3.7709,3.6722,3.6471,3.7688,3.6722,3.6016,3.6016,3.6016,3.6016,3.6016,3.6016,3.6016,3.6016,3.6016,3.6016,3.6016,3.726,3.7822,3.7822,3.7822,3.7822,3.7755,3.6539,3.6016,3.6084,3.7307,3.7822,3.7955,3.919,3.9627,3.9627,3.9627,3.8927,3.7822,3.7822,3.7059,3.6016,0.0,0.0,0.0,0.0,0.0,0.0,1.2501,1.263,1.2779,1.2942,1.2827,1.2793,1.2942,1.2691,1.2562,1.2712,1.2454,0.0,0.0,0.0,0.0,0.0,0.0,0.0,0.0,0.0,2.3768,2.3768,2.4329,2.4315,2.3754,2.3754,2.3434,2.2928,0.0,0.0,0.0,0.0,2.3313,0.0,0.0,0.0,2.5144,0.0,0.0,0.0,0.0,0.0,0.0,0.0,0.0,0.0,0.0,3.0654,3.4335,3.7066,3.791,3.8027,3.8457,3.8574,3.8574,3.8574,3.8242,3.7598,3.6309,3.5703,3.5019,3.3691,3.3769,3.4199,3.4629,3.5078,3.5527,3.5957,3.6016,3.6016,3.6016,3.6016,3.6016,3.6016,3.6016,3.6016,3.6016,3.6016,3.6016,3.6016,3.6016,3.6016,3.6016,3.6016,3.6016,3.6016,3.6016,3.6016,3.6016,3.6016,3.6016,3.6016,3.6016,3.6016,3.6016,3.6016,3.6016,3.6016,3.6016,3.6016,3.6016,3.6016,3.6084,3.6084,3.6084,3.6016,3.6016,3.6016,3.6016,3.6016,0.0,0.0,0.0,0.0,0.0,0.0,0.0,1.2542,1.263,1.2786,1.2759,1.2786,1.2942,1.2779,1.2678,1.2725,0.0,0.0,0.0,0.0,0.0,0.0,0.0,0.0,0.0,2.4315,2.4462,2.4663,2.4649,2.4543,2.4356,2.4155,2.3861,2.3557,2.3557,2.3557,0.0,2.3594,0.0,0.0,0.0,2.4516,2.4823,0.0,0.0,0.0,0.0,0.0,0.0,0.0,0.0,0.0,0.0,0.0,0.0,3.6366,3.7695,3.8027,3.8457,3.8574,3.8496,3.8203,3.7812,3.7168,3.5879,3.5234,3.4629,3.3633,3.4004,3.4531,3.4668,3.5312,3.5859,3.5996,3.6016,3.6016,3.6016,3.6016,3.6016,3.6016,3.6016,3.6016,3.6016,3.6016,3.6016,3.6016,3.6016,3.6016,3.6016,3.6016,3.6016,3.6016,3.6016,3.6016,3.6016,3.6016,3.6016,3.6016,3.6016,3.6016,3.6016,3.6016,3.6016,3.6016,3.6016,3.6016,3.6016,3.6016,3.6016,3.6016,3.6016,3.6016,3.6016,3.6016,3.6016,3.6016,0.0,0.0,0.0,0.0,0.0,0.0,0.0,1.2501,1.2535,1.263,1.2644,1.2705,1.2854,1.2739,1.2664,1.2725,0.0,0.0,0.0,0.0,0.0,0.0,0.0,0.0,2.4636,2.4636,2.4836,2.5237,2.5064,2.497,2.4957,2.4676,2.4315,2.3928,2.3821,2.3768,0.0,2.4128,0.0,0.0,2.4609,2.4676,2.4676,0.0,0.0,0.0,0.0,0.0,0.0,0.0,0.0,0.0,0.0,0.0,0.0,0.0,3.6662,3.7617,3.8379,3.8574,3.8476,3.8027,3.748,3.6777,3.5644,3.4902,3.4258,3.3574,3.4101,3.4707,3.4707,3.543,3.6016,3.6016,3.6016,3.6016,3.6016,3.6016,3.6016,3.6016,3.6016,3.6016,3.6016,3.6016,3.6016,3.6016,3.6016,3.6016,3.6016,3.6016,3.6016,3.6016,3.6016,3.6016,3.6016,3.6016,3.6016,3.6016,3.6016,3.6016,3.6016,3.6016,3.6016,3.6016,3.6016,3.6016,0.0,3.6016,3.6016,3.6016,3.6016,3.6016,3.6016,3.6016,3.6016,3.6016,0.0,0.0,0.0,0.0,0.0,0.0,0.0,1.2501,1.2501,1.2501,1.2501,1.2556,1.2698,1.2583,1.2562,1.2705,0.0,0.0,0.0,0.0,0.0,0.0,0.0,0.0,2.4636,2.4589,2.4943,2.5518,2.5531,2.5545,2.5545,2.5264,2.4823,2.4249,2.3981,2.3848,2.3888,2.4703,2.489,2.469,2.5237,2.5117,0.0,0.0,0.0,0.0,0.0,0.0,0.0,0.0,0.0,0.0,0.0,0.0,0.0,0.0,0.0,0.0,0.0,3.8437,3.834,3.7891,3.7187,3.6367,3.5488,3.4668,0.0,3.3516,3.4082,3.4668,3.4687,3.5391,3.5996,3.6016,3.6016,3.6016,3.6016,3.6016,3.6035,3.6055,3.6035,3.6035,3.6055,3.6035,3.6016,3.6016,3.6016,3.6016,3.6016,3.6016,3.6016,3.6016,3.6016,3.6016,3.6016,3.6016,3.6016,3.6016,3.6016,3.6016,3.6016,3.6016,3.6016,3.6016,3.6016,3.6016,3.6016,3.6016,3.6016,3.6016,3.6016,3.6016,3.6016,3.6016,3.6016,3.6016,0.0,0.0,0.0,0.0,0.0,0.0,0.0,0.0,0.0,0.0,1.2501,1.2515,1.2549,1.2522,1.2515,0.0,0.0,0.0,0.0,0.0,0.0,0.0,0.0,0.0,2.4636,2.4863,2.5144,2.5518,2.5745,2.5852,2.5852,2.5785,2.5438,2.4877,2.481,2.4649,2.4449,2.4649,2.4703,2.4649,2.4783,2.4756,0.0,0.0,0.0,0.0,2.4917,2.5277,0.0,0.0,0.0,0.0,0.0,0.0,0.0,0.0,3.6383,3.6738,3.7031,0.0,3.7012,3.6582,3.6074,3.5469,0.0,3.4219,3.3945,3.3516,3.3848,3.4316,3.4648,3.5156,3.5644,3.5976,3.6016,3.6016,3.6016,3.6016,3.6152,3.6484,3.623,3.6152,3.6484,3.6211,3.6016,3.6016,3.6016,3.6016,3.6016,3.6016,3.6016,3.6016,3.6016,3.6016,3.6016,3.6016,3.6016,3.6016,3.6016,3.6016,3.6016,3.6016,3.6016,3.6016,3.6016,3.6016,3.6016,3.6016,3.6016,3.6016,3.6016,3.6016,3.6016,3.6016,3.6016,3.6016,0.0,0.0,0.0,0.0,0.0,0.0,0.0,0.0,0.0,0.0,0.0,0.0,0.0,0.0,0.0,0.0,0.0,0.0,0.0,0.0,0.0,0.0,0.0,2.4636,2.4636,2.493,2.5224,2.5518,2.5812,2.6026,2.6146,2.609,2.5718,2.5264,2.4997,2.4716,2.4462,2.4863,2.489,2.4589,2.493,0.0,0.0,0.0,0.0,0.0,2.4636,2.493,0.0,2.5625,2.7171,2.9245,0.0,0.0,0.0,0.0,3.6367,3.6328,3.6133,3.6504,3.6816,3.6172,3.5703,3.5215,3.4512,3.4062,3.3711,3.3476,3.3769,3.4199,3.4629,3.5234,3.5762,3.5976,3.6191,3.6309,3.6309,3.6309,3.6406,3.6641,3.6465,3.6328,3.6367,3.6152,3.6016,3.6016,3.6016,3.6016,3.6016,3.6016,3.6016,3.6016,3.6016,3.6016,3.6016,3.6016,3.6016,3.6016,3.6016,3.6016,3.6016,3.6016,3.6016,3.6016,3.6016,3.6016,3.6016,3.6016,3.6016,3.6016,3.6016,3.6016,3.6016,3.6016,3.6152,3.6309,0.0,0.0,0.0,0.0,0.0,0.0,0.0,0.0,0.0,0.0,0.0,0.0,0.0,0.0,0.0,0.0,0.0,0.0,0.0,0.0,0.0,0.0,2.4836,2.4703,2.4703,2.4997,2.5291,2.5585,2.5879,2.6146,2.6386,2.6132,2.5812,2.5424,2.4877,2.4476,2.4249,2.5037,2.509,2.4602,2.517,0.0,0.0,0.0,0.0,0.0,0.0,0.0,0.0,2.5518,2.7157,2.926,3.0647,0.0,0.0,0.0,0.0,0.0,3.5469,3.623,3.6875,3.5957,3.5449,3.5078,3.4609,3.3945,3.3418,3.3418,3.3769,3.4199,3.4629,3.5371,3.5976,3.6094,3.6426,3.6641,3.6582,3.6562,3.6601,3.666,3.6621,3.6445,3.6152,3.6055,3.6016,3.6016,3.6016,3.6055,3.6113,3.6055,3.6074,3.6211,3.6094,3.6055,3.6113,3.6055,3.6016,3.6016,3.6016,3.6016,3.6016,3.6016,3.6016,3.6016,3.6016,3.6016,3.6016,3.6016,3.6016,3.6016,3.6016,3.6016,3.6035,3.6094,3.6348,3.668,0.0,0.0,0.0,0.0,0.0,0.0,0.0,0.0,0.0,0.0,0.0,0.0,0.0,0.0,0.0,0.0,0.0,0.0,0.0,0.0,0.0,2.5064,2.5037,2.501,2.501,2.5291,2.5598,2.5892,2.6186,2.6346,2.6386,2.6346,2.5905,2.513,2.4783,2.4476,2.4222,2.4609,2.4642,2.4649,2.473,0.0,0.0,0.0,0.0,0.0,0.0,0.0,0.0,2.4436,2.6514,2.917,3.0139,0.0,0.0,0.0,0.0,0.0,3.5312,3.5801,3.5918,3.4687,3.4316,3.416,3.3711,3.3516,3.3418,3.3418,3.3769,3.4199,3.4629,3.5137,3.5723,3.6445,3.6621,3.6543,3.6172,3.6113,3.625,3.6621,3.6348,3.623,3.6543,3.623,3.6016,3.6016,3.6016,3.6172,3.6543,3.623,3.6348,3.707,3.6387,3.6191,3.6562,3.6211,3.6016,3.6016,3.6016,3.6016,3.6016,3.6016,3.6016,3.6016,3.6016,3.6016,3.6016,3.6016,3.6016,3.6016,3.6016,3.6016,3.6074,3.6445,3.6621,3.6719,0.0,0.0,0.0,0.0,0.0,0.0,0.0,0.0,0.0,0.0,0.0,0.0,0.0,0.0,0.0,0.0,0.0,0.0,0.0,0.0,2.3934,2.5077,2.5384,2.5478,2.5317,2.5598,2.5825,2.6037,2.64,2.6547,2.6386,2.6226,2.5772,2.5077,2.493,2.4623,2.4222,2.4516,2.4636,2.4636,0.0,0.0,0.0,0.0,0.0,0.0,0.0,0.0,0.0,0.0,2.6059,2.8611,2.9896,0.0,0.0,0.0,0.0,0.0,3.4746,3.498,3.5156,3.457,3.4941,3.543,3.5215,3.5,3.4766,3.4531,3.4648,3.4844,3.5039,3.543,3.5937,3.6562,3.6484,3.6328,3.6367,3.6367,3.6445,3.6641,3.6484,3.6348,3.6328,3.6133,3.6113,3.6348,3.6367,3.6562,3.6992,3.6816,3.6894,3.7285,3.6914,3.6816,3.7012,3.6816,3.6484,3.6016,3.6016,3.6016,3.6016,3.6016,3.6016,3.6016,3.6016,3.6016,3.6016,3.6016,3.6016,3.6016,3.6016,3.6152,3.6445,3.7109,3.7344,3.7402,0.0,0.0,0.0,0.0,0.0,0.0,0.0,0.0,0.0,0.0,0.0,0.0,0.0,0.0,0.0,0.0,0.0,0.0,0.0,2.0888,2.316,2.5108,2.5611,2.5785,2.5625,2.5838,2.6026,2.6159,2.6533,2.66,2.6386,2.6092,2.5638,2.5077,2.5077,2.4756,2.4222,2.4516,2.4636,2.4636,0.0,0.0,0.0,0.0,0.0,0.0,0.0,0.0,0.0,0.0,0.0,0.0,0.0,0.0,0.0,3.4873,3.5254,3.498,3.4512,3.4531,3.4746,3.4961,3.5547,3.6152,3.6445,3.6094,3.5684,3.5566,3.5625,3.5664,3.5566,3.5879,3.625,3.6484,3.6328,3.625,3.6484,3.6523,3.6523,3.6523,3.6523,3.6387,3.6055,3.6113,3.6309,3.6641,3.6758,3.7012,3.7422,3.7344,3.7383,3.7598,3.7402,3.7344,3.7441,3.7344,3.6973,3.6328,3.6328,3.6328,3.6328,3.6328,3.6328,3.6328,3.6328,3.6269,3.6172,3.6172,3.6172,3.6172,3.6172,3.6504,3.7051,3.7676,3.7988,3.8125,0.0,0.0,0.0,0.0,0.0,0.0,0.0,0.0,0.0,0.0,0.0,0.0,0.0,0.0,0.0,0.0,0.0,0.0,1.8497,2.05,2.2778,2.5375,2.5518,2.5665,2.5996,2.6023,2.6226,2.676,2.6533,2.6413,2.6386,2.6092,2.5638,2.5077,2.5077,2.4756,2.4222,2.4516,2.4636,2.4636,2.4636,0.0,0.0,0.0,0.0,0.0,0.0,0.0,0.0,0.0,0.0,0.0,0.0,0.0,3.0683,3.4345,3.4805,3.4336,3.5098,3.5,3.4902,3.5723,3.5078,3.457,3.5801,3.541,3.5019,3.582,3.6289,3.6445,3.6055,3.6328,3.6504,3.6133,3.6387,3.6484,3.6113,3.6074,3.6074,3.6074,3.6074,3.6055,3.6016,3.6387,3.6641,3.668,3.7031,3.7441,3.7851,3.75,3.7656,3.8457,3.7715,3.748,3.7871,3.75,3.7266,3.7207,3.7207,3.7207,3.7207,3.7207,3.7207,3.7207,3.7207,3.6973,3.6621,3.6621,3.6621,3.6621,3.6621,3.7129,3.7832,3.791,3.8184,3.8535,0.0,0.0,0.0,0.0,0.0,0.0,0.0,0.0,0.0,0.0,0.0,0.0,0.0,0.0,0.0,0.0,0.0,0.0,1.8497,2.06,2.2925,2.5415,2.5692,2.5919,2.6226,2.64,2.66,2.6827,2.6707,2.6653,2.6653,2.636,2.5919,2.5344,2.5344,2.5024,2.4476,2.4596,2.4636,2.4636,2.4636,2.4396,0.0,0.0,0.0,0.0,0.0,0.0,0.0,0.0,2.5227,2.7912,2.8988,3.1356,3.3787,3.439,3.4512,3.4414,3.4219,3.4434,3.4785,3.5117,3.5039,3.5234,3.6523,3.6562,3.6406,3.6738,3.7148,3.7246,3.6543,3.6562,3.6523,3.6094,3.6152,3.6211,3.6035,3.6016,3.6016,3.6016,3.6016,3.6016,3.6016,3.6406,3.6777,3.7031,3.7461,3.7871,3.8301,3.8184,3.8242,3.8555,3.8262,3.8164,3.832,3.8164,3.8086,3.8086,3.7559,3.7305,3.7305,3.7305,3.7305,3.7305,3.7305,3.7207,3.7051,3.7051,3.7051,3.709,3.7344,3.7637,3.7969,3.8223,3.8437,3.8574,0.0,0.0,0.0,0.0,0.0,0.0,0.0,0.0,0.0,0.0,0.0,0.0,0.0,0.0,0.0,0.0,0.0,0.0,1.9403,2.1,2.2937,2.5415,2.5705,2.5999,2.6386,2.668,2.6827,2.6827,2.6827,2.6774,2.668,2.648,2.6132,2.5651,2.5558,2.5237,2.477,2.4676,2.4636,2.4636,2.4636,2.4462,0.0,0.0,0.0,0.0,0.0,0.0,0.0,0.0,2.5437,2.862,2.902,3.1602,3.4499,3.4362,3.457,3.4766,3.4023,3.4258,3.4766,3.5039,3.5137,3.5547,3.6973,3.7187,3.7207,3.7617,3.7715,3.7539,3.6973,3.6641,3.6367,3.6074,3.6016,3.6016,3.6016,3.6016,3.6016,3.6016,3.6016,3.6074,3.6211,3.6621,3.7051,3.7461,3.7891,3.8262,3.8555,3.8574,3.8574,3.8574,3.8574,3.8574,3.8574,3.8574,3.8574,3.8574,3.7988,3.7695,3.7695,3.7695,3.7695,3.7695,3.7695,3.7617,3.75,3.75,3.75,3.7539,3.7969,3.8125,3.8164,3.8457,3.8574,3.8574,0.0,0.0,0.0,0.0,0.0,0.0,0.0,0.0,0.0,0.0,0.0,0.0,0.0,0.0,0.0,0.0,0.0,0.0,2.1365,2.159,2.2741,2.5401,2.5504,2.5785,2.6373,2.6667,2.6814,2.6827,2.6814,2.6667,2.6386,2.6386,2.6226,2.601,2.5651,2.5344,2.505,2.4756,2.4636,2.4636,2.4636,2.4462,2.4168,0.0,0.0,0.0,0.0,0.0,0.0,0.0,2.4259,2.6019,2.8936,3.0581,3.1888,3.4027,3.5019,3.5273,3.4805,3.4687,3.4902,3.5781,3.5351,3.5176,3.6894,3.6973,3.7031,3.8301,3.7891,3.7305,3.7305,3.6601,3.6035,3.6016,3.6016,3.6016,3.6016,3.6016,3.6016,3.6016,3.6016,3.6191,3.6621,3.7051,3.748,3.7891,3.832,3.8574,3.8574,3.8574,3.8574,3.8574,3.8574,3.8574,3.8574,3.8574,3.8574,3.8574,3.8574,3.8574,3.8574,3.8574,3.8574,3.8574,3.8574,3.834,3.793,3.793,3.793,3.7969,3.8398,3.8574,3.8574,3.8574,3.8574,3.8574,0.0,0.0,0.0,0.0,0.0,0.0,0.0,0.0,0.0,0.0,0.0,0.0,0.0,0.0,0.0,0.0,0.0,0.0,2.1195,2.2607,2.3979,2.5184,2.5211,2.5571,2.6373,2.6466,2.6613,2.6827,2.6613,2.6466,2.6386,2.6186,2.5932,2.5638,2.5558,2.5117,2.4462,2.4369,2.4329,2.4329,2.4329,2.4396,2.4449,0.0,0.0,0.0,0.0,0.0,0.0,0.0,0.0,0.0,2.8492,3.1261,3.4107,3.3544,3.3887,3.4297,3.3555,3.4258,3.5098,3.4746,3.5586,3.6582,3.6797,3.6758,3.6953,3.791,3.7676,3.7305,3.7305,3.6855,3.6367,3.6074,3.6016,3.6016,3.6016,3.6016,3.6016,3.6016,3.6289,3.6523,3.666,3.7324,3.7793,3.791,3.832,3.8574,3.8574,3.8574,3.8574,3.8574,3.8574,3.8574,3.8574,3.8574,3.8574,3.8574,3.8574,3.8574,3.8574,3.8574,3.8574,3.8574,3.8574,3.8496,3.8379,3.8379,3.8379,3.8398,3.8516,3.8574,3.8574,3.8574,3.8574,3.8574,0.0,0.0,0.0,0.0,0.0,0.0,0.0,0.0,2.1141,1.993,2.2583,2.3796,0.0,0.0,0.0,1.9704,1.9025,1.9682,2.2203,2.3632,2.4583,2.5064,2.5197,2.5611,2.6373,2.6279,2.6306,2.648,2.6306,2.6159,2.6039,2.5985,2.5865,2.5678,2.5558,2.5157,2.4529,2.4302,2.4209,2.4209,2.4209,2.4302,2.4409,0.0,0.0,0.0,0.0,0.0,0.0,0.0,0.0,0.0,2.8278,3.072,3.3337,3.3306,3.3789,3.4238,3.3906,3.4726,3.5586,3.541,3.6074,3.6777,3.668,3.6934,3.7305,3.7812,3.7461,3.7051,3.7051,3.6699,3.6328,3.6055,3.6016,3.6016,3.6016,3.6016,3.6016,3.6016,3.6406,3.6738,3.6894,3.7539,3.7988,3.8164,3.8418,3.8574,3.8574,3.8574,3.8574,3.8574,3.8574,3.8574,3.8574,3.8574,3.8574,3.8574,3.8574,3.8574,3.8574,3.8574,3.8574,3.8574,3.8574,3.8574,3.8574,3.8574,3.8574,3.8574,3.8574,3.8574,3.8574,3.8574,3.8574,3.8574,0.0,0.0,0.0,0.0,0.0,0.0,0.0,2.0617,2.1826,2.1601,2.3339,2.3883,0.0,0.0,0.0,2.1676,2.0005,2.0355,2.4004,2.4449,2.473,2.5024,2.5371,2.5812,2.6373,2.6106,2.6023,2.5919,2.597,2.5745,2.5518,2.5785,2.5919,2.5905,2.5611,2.5291,2.4957,2.4342,2.4102,2.4115,2.4088,2.4115,2.4128,2.3848,0.0,0.0,0.0,0.0,0.0,0.0,0.0,0.0,2.789,2.933,3.0747,3.3072,3.4167,3.4785,3.5176,3.5664,3.6269,3.7051,3.668,3.623,3.6582,3.7266,3.7812,3.7812,3.7207,3.668,3.668,3.6309,3.6016,3.6016,3.6016,3.6016,3.6016,3.6016,3.6035,3.6074,3.6465,3.6894,3.7324,3.7734,3.8144,3.8555,3.8574,3.8574,3.8574,3.8574,3.8574,3.8574,3.8574,3.8574,3.8574,3.8574,3.8574,3.8574,3.8574,3.8574,3.8574,3.8574,3.8574,3.8574,3.8574,3.8574,3.8574,3.8574,3.8574,3.8574,3.8574,3.8574,3.8574,3.8574,3.8574,3.8574,0.0,0.0,0.0,0.0,0.0,0.0,2.1216,2.2657,2.3413,2.1826,2.3339,2.4414,2.4031,2.2124,0.0,2.3796,2.2124,2.1867,2.4077,2.4262,2.4422,2.4716,2.5451,2.6026,2.6386,2.6106,2.5838,2.5611,2.5384,2.5358,2.5518,2.5585,2.5611,2.5598,2.5304,2.4877,2.4342,2.35,2.3287,2.35,2.3247,2.3434,2.3834,2.3527,2.338,0.0,0.0,0.0,0.0,0.0,0.0,0.0,2.6139,2.8494,3.1107,3.1039,3.2762,3.4648,3.4414,3.543,3.6582,3.6758,3.6914,3.6953,3.6719,3.6816,3.6934,3.6934,3.6797,3.668,3.668,3.6309,3.6016,3.6016,3.6016,3.6016,3.6016,3.6016,3.6152,3.6484,3.6894,3.7324,3.7754,3.8184,3.8476,3.8574,3.8574,3.8574,3.8574,3.8574,3.8574,3.8574,3.8574,3.8574,3.8574,3.8574,3.8574,3.8574,3.8574,3.8574,3.8574,3.8574,3.8574,3.8574,3.8574,3.8574,3.8574,3.8574,3.8574,3.8574,3.8574,3.8574,3.8574,3.8574,3.8574,3.8574,0.0,0.0,0.0,0.0,0.0,0.0,0.0,0.0,2.4411,2.3203,2.3944,2.4636,2.4636,2.2806,0.0,0.0,2.2732,2.2324,2.4077,2.4329,2.4609,2.5037,2.5772,2.6172,2.6186,2.5892,2.5598,2.5304,2.4877,2.481,2.509,2.509,2.509,2.5077,2.4796,2.4329,2.3741,2.3126,2.2953,2.3086,2.2926,2.3115,2.3313,2.3166,2.302,2.2886,2.2873,0.0,0.0,0.0,0.0,0.0,0.0,0.0,2.9705,3.0513,3.2327,3.4219,3.4844,3.5664,3.6406,3.6621,3.6836,3.6894,3.6465,3.6348,3.6348,3.6348,3.6348,3.6348,3.6348,3.6172,3.6016,3.6016,3.6016,3.6016,3.6016,3.6191,3.6426,3.6641,3.7226,3.7676,3.791,3.832,3.8574,3.8574,3.8574,3.8574,3.8574,3.8574,3.8574,3.8574,3.8574,3.8574,3.8574,3.8574,3.8574,3.8574,3.8574,3.8574,3.8574,3.8574,3.8574,3.8574,3.8574,3.8574,3.8574,3.8574,3.8574,3.8574,3.8574,3.8574,3.8574,3.8574,3.8691,3.8887,0.0,0.0,0.0,0.0,0.0,0.0,0.0,0.0,0.0,2.4676,2.4636,2.4636,2.4636,2.3078,2.2744,0.0,0.0,0.0,2.4069,2.4356,2.477,2.5411,2.5852,2.6039,2.6037,2.5571,2.5251,2.4997,2.4409,2.4302,2.4636,2.4583,2.4596,2.4549,2.4222,2.3781,2.33,2.2832,2.2727,2.2767,2.2727,2.2727,2.2712,2.2712,2.2552,2.2378,2.2672,2.2819,2.2899,2.3153,0.0,0.0,0.0,0.0,2.7638,3.0097,3.1949,3.356,3.5324,3.6016,3.6348,3.6777,3.6894,3.6758,3.625,3.6133,3.6113,3.6035,3.6016,3.6016,3.6016,3.6016,3.6016,3.6016,3.6016,3.6016,3.6016,3.6387,3.6699,3.6777,3.7461,3.7949,3.8027,3.8359,3.8574,3.8574,3.8574,3.8574,3.8574,3.8574,3.8574,3.8574,3.8574,3.8574,3.8574,3.8574,3.8574,3.8574,3.8574,3.8574,3.8574,3.8574,3.8574,3.8574,3.8574,3.8574,3.8574,3.8574,3.8574,3.8574,3.8574,3.8574,3.8594,3.8652,3.8906,3.9219,0.0,0.0,0.0,0.0,0.0,0.0,0.0,0.0,0.0,0.0,2.4636,2.4636,2.4636,2.4189,2.3958,2.4262,2.3805,2.3575,2.3834,0.0,0.0,2.5104,2.497,2.5211,2.5945,2.517,2.473,2.469,2.4115,2.4102,2.4549,2.4382,2.4396,2.4596,2.3794,2.3407,2.326,2.2178,2.1936,2.2084,2.1896,2.1884,2.2098,2.2098,2.2071,2.2084,2.2378,2.2645,2.2941,2.2913,2.3073,0.0,0.0,0.0,2.6126,2.8081,3.0324,3.2622,3.4409,3.5976,3.7226,3.7656,3.7754,3.7559,3.6758,3.6582,3.6484,3.6094,3.6016,3.6016,3.6016,3.6016,3.6016,3.6016,3.6016,3.6016,3.6016,3.6387,3.6816,3.7168,3.7637,3.8066,3.8457,3.8535,3.8574,3.8574,3.8574,3.8574,3.8574,3.8574,3.8574,3.8574,3.8574,3.8574,3.8574,3.8574,3.8574,3.8574,3.8574,3.8574,3.8574,3.8574,3.8574,3.8574,3.8574,3.8574,3.8574,3.8574,3.8574,3.8574,3.8574,3.8574,3.8613,3.8984,3.916,3.9258,0.0,0.0,0.0,0.0,0.0,0.0,0.0,0.0,0.0,0.0,0.0,2.4636,2.4636,2.4382,2.4209,2.4209,2.3941,2.3701,2.3527,2.3834,2.4182,2.4569,2.4783,2.4983,2.5211,2.4836,2.4476,2.4155,2.3554,2.3728,2.4549,2.3821,2.3794,2.4342,2.3287,2.2726,2.2525,2.167,2.1376,2.1483,2.1349,2.1577,2.1964,2.1804,2.1951,2.2205,2.2004,2.2124,2.2392,2.2565,2.2699,2.2819,2.2859,0.0,0.0,0.0,2.8195,3.0499,3.3225,3.562,3.7402,3.7812,3.7754,3.7422,3.6816,3.6484,3.625,3.6055,3.6016,3.6016,3.6016,3.6016,3.6016,3.6016,3.6016,3.6094,3.6348,3.6758,3.7187,3.7598,3.8027,3.8359,3.8555,3.8574,3.8574,3.8574,3.8574,3.8574,3.8574,3.8574,3.8574,3.8574,3.8574,3.8574,3.8574,3.8574,3.8574,3.8574,3.8574,3.8574,3.8574,3.8574,3.8574,3.8574,3.8574,3.8574,3.8574,3.8574,3.8711,3.8926,3.8926,3.9082,3.9336,3.9531,3.9746,3.998,0.0,0.0,0.0,0.0,0.0,0.0,0.0,0.0,0.0,0.0,0.0,2.4556,2.4549,0.0,0.0,0.0,2.3647,2.33,2.3006,2.3394,2.3741,2.3968,2.4396,2.4596,2.4529,2.4449,2.4168,2.3661,2.3126,2.3474,2.4609,2.3581,2.389,2.5267,2.3804,2.2779,2.2016,2.1861,2.1538,2.1122,2.1189,2.1483,2.1884,2.1949,2.2151,2.2458,2.1951,2.1911,2.2124,2.2352,2.2418,2.2458,2.2686,2.3676,0.0,0.0,0.0,2.8776,3.1647,3.3875,3.5684,3.6641,3.6784,3.6605,3.6688,3.6426,3.6191,3.6191,3.6191,3.6211,3.6328,3.6172,3.6016,3.6016,3.6113,3.6289,3.6621,3.7129,3.7578,3.7891,3.8301,3.8574,3.8574,3.8574,3.8574,3.8574,3.8574,3.8574,3.8574,3.8574,3.8574,3.8574,3.8574,3.8574,3.8574,3.8574,3.8574,3.8574,3.8574,3.8574,3.8574,3.8574,3.8574,3.8574,3.8574,3.8633,3.873,3.873,3.8984,3.9375,3.9375,3.959,3.9902,4.0019,4.0254,4.0547,0.0,0.0,0.0,0.0,0.0,0.0,0.0,0.0,0.0,0.0,0.0,2.4329,2.4609,2.4128,2.3688,2.3394,2.2832,2.2365,2.2071,2.2084,2.2485,2.334,2.3407,0.0,2.4209,2.3955,2.3661,2.3354,2.302,2.3474,2.4623,2.4008,2.5405,2.8238,2.623,2.4095,2.2069,2.3165,2.2654,2.1136,2.148,2.1614,2.1735,2.2552,2.2874,2.2806,2.2485,2.2378,2.2392,2.2418,2.2418,2.2418,2.2432,2.2499,2.2902,0.0,0.0,0.0,2.936,2.9912,3.0939,3.3533,3.4447,3.4968,3.641,3.666,3.6641,3.6641,3.6641,3.6758,3.7168,3.6562,3.6016,3.6016,3.6367,3.6641,3.666,3.7383,3.791,3.793,3.8301,3.8574,3.8574,3.8574,3.8574,3.8574,3.8574,3.8574,3.8574,3.8574,3.8574,3.8574,3.8574,3.8574,3.8574,3.8574,3.8574,3.8574,3.8574,3.8574,3.8574,3.8574,3.8574,3.8574,3.8574,3.8809,3.916,3.916,3.9434,3.9863,3.9863,3.9883,3.9941,4.0332,4.0508,4.0586,0.0,0.0,0.0,0.0,0.0,0.0,0.0,0.0,0.0,0.0,0.0,0.0,0.0,2.4008,2.3567,2.3073,2.2485,2.2017,2.1789,2.1884,2.2218,2.2726,2.3113,2.3514,2.3915,2.3821,2.3621,2.3327,2.2632,2.2913,2.4062,2.3273,2.3746,2.5198,2.5334,2.565,2.6056,2.5262,2.4569,2.4085,2.4999,2.545,2.547,2.5278,2.5226,2.508,2.3501,2.2752,2.2472,2.2873,2.2619,2.2178,2.2365,2.2298,2.2311,2.314,2.4716,2.6448,2.7473,2.8631,2.9996,3.1765,3.3198,3.4355,3.5123,3.6188,3.707,3.707,3.707,3.7129,3.7266,3.7051,3.6836,3.6836,3.6973,3.7168,3.7441,3.7734,3.8027,3.8301,3.8476,3.8574,3.8574,3.8574,3.8574,3.8574,3.8574,3.8574,3.8574,3.8574,3.8574,3.8574,3.8574,3.8574,3.8574,3.8574,3.8574,3.8574,3.8574,3.8574,3.8574,3.8574,3.873,3.8984,3.8984,3.9062,3.9219,3.9531,3.9902,4.0293,4.0293,4.0469,4.0723,4.0879,4.0937,4.0957,0.0,0.0,0.0,0.0,0.0,0.0,0.0,0.0,2.4209,2.4209,0.0,0.0,0.0,0.0,2.3447,2.2645,2.2124,2.1724,2.143,2.159,2.1871,2.2258,2.2846,2.3313,2.3621,2.3821,2.3728,2.3327,2.2619,2.2739,2.3607,2.2899,2.3215,2.4526,2.5539,2.6405,2.7068,2.6873,2.6397,2.5857,2.721,2.771,2.7505,2.7641,2.7585,2.7223,2.5849,2.4687,2.3803,2.4386,2.3762,2.2712,2.2605,2.2231,2.1884,2.2071,2.3109,2.439,2.5149,2.6298,2.7755,2.9248,3.0593,3.1823,3.2963,3.4107,3.5228,3.6299,3.6466,3.6737,3.7553,3.7851,3.7793,3.7363,3.7422,3.7598,3.7891,3.8047,3.8242,3.8535,3.8574,3.8574,3.8574,3.8574,3.8574,3.8574,3.8574,3.8574,3.8574,3.8574,3.8574,3.8574,3.8574,3.8574,3.8574,3.8574,3.8574,3.8574,3.8574,3.8652,3.8789,3.8789,3.9023,3.9453,3.959,3.9648,3.9668,3.998,4.0351,4.0742,4.0742,4.0918,4.1172,4.1172,4.1172,4.1172,0.0,0.0,0.0,0.0,0.0,0.0,2.4249,2.4209,2.4209,2.4209,0.0,0.0,0.0,0.0,0.0,2.2111,2.1802,2.1443,2.1149,2.1109,2.1363,2.1951,2.2539,2.3006,2.3313,2.3901,2.3915,2.3327,2.3006,2.3006,2.3287,2.2966,2.4204,2.6662,2.7092,2.6245,2.4679,2.7964,2.8086,2.63,2.7875,2.7994,2.7499,2.957,2.988,2.9149,2.9371,2.8201,2.6578,2.712,2.5956,2.4093,2.3182,2.2364,2.173,2.1744,2.2082,2.2472,0.0,0.0,0.0,2.5981,2.6544,2.7305,3.0088,3.0502,3.1195,3.4231,3.492,3.565,3.8112,3.8926,3.8789,3.7559,3.7695,3.7949,3.7949,3.8301,3.8574,3.8574,3.8574,3.8574,3.8574,3.8574,3.8574,3.8574,3.8574,3.8574,3.8594,3.8613,3.8613,3.8574,3.8594,3.8613,3.8574,3.8594,3.8594,3.8594,3.8594,3.8809,3.9219,3.9219,3.9473,3.9941,4.0351,4.0527,4.0547,4.0547,4.0781,4.1172,4.1172,4.1172,4.1172,4.1172,4.1172,4.1172,0.0,0.0,0.0,0.0,0.0,2.4543,2.4249,2.4209,2.4209,0.0,0.0,0.0,2.3915,2.342,2.2979,2.2645,2.2151,2.1737,2.1443,2.1229,2.1283,2.1722,2.2499,2.3006,2.3313,2.3901,2.3915,2.3327,2.2792,2.2485,2.2352,2.2124,2.2442,2.3437,2.6019,2.6514,2.5587,2.8674,2.9943,3.0036,3.0864,3.1558,3.2198,3.237,3.2421,3.2404,3.1582,3.0638,2.9672,2.86,2.7122,2.5535,2.4138,2.4224,2.4828,2.5015,2.4464,2.389,2.4121,0.0,0.0,0.0,0.0,0.0,2.831,2.9608,3.148,3.4449,3.5139,3.587,3.8185,3.8926,3.9082,3.873,3.8769,3.875,3.8437,3.8496,3.8574,3.8574,3.8574,3.8574,3.8574,3.8574,3.8574,3.8574,3.8574,3.8711,3.9004,3.9355,3.9238,3.8594,3.9199,3.9219,3.8574,3.8887,3.9023,3.9023,3.9023,3.9258,3.9707,3.9707,3.9941,4.0351,4.0469,4.0703,4.0996,4.0996,4.1074,4.1172,4.1172,4.1172,4.1172,4.1172,4.1172,4.1172,0.0,0.0,2.4636,2.4636,2.4636,2.4583,2.4409,2.4382,2.4382,0.0,0.0,0.0,2.3981,2.3527,2.314,2.2954,2.2432,2.1991,2.1641,2.1269,2.1243,2.1601,2.2459,2.3006,2.3313,2.4022,2.4035,2.3327,2.2846,2.2325,2.1804,2.151,2.1456,2.1746,2.4921,2.6187,2.6056,2.8574,3.0176,3.1074,3.2422,3.3301,3.3856,3.4456,3.4682,3.4692,3.4324,3.3333,3.1981,3.0681,2.8577,2.6526,2.6269,2.6344,2.6492,2.6315,2.6023,2.5584,2.488,2.439,2.3871,2.3386,0.0,0.0,2.6386,2.7435,2.9013,3.206,3.3644,3.5032,3.7184,3.8795,3.9687,3.9512,3.9629,3.9609,3.918,3.8809,3.8633,3.8809,3.8691,3.8574,3.8574,3.8574,3.8574,3.8574,3.8574,3.875,3.918,3.9453,3.9453,3.9141,3.9629,3.9648,3.9141,3.9375,3.9492,3.9492,3.9492,3.9726,4.0156,4.0156,4.0391,4.0801,4.0801,4.0937,4.1172,4.1172,4.1172,4.1172,4.1172,4.1172,4.1172,4.1172,4.1172,4.1172,0.0,0.0,2.4636,2.4636,2.4663,2.4676,2.4636,2.4663,2.4676,0.0,2.4609,2.4502,2.4275,2.3995,2.3594,2.3088,2.2659,2.2218,2.1708,2.1296,2.1229,2.1561,2.2418,2.2926,2.3166,2.4075,2.4088,2.318,2.2926,2.2432,2.1561,2.1229,2.1145,2.142,2.4082,2.5572,2.6157,2.8164,2.959,3.0605,3.2871,3.3691,3.3789,3.5879,3.6484,3.6348,3.7148,3.602,3.4019,3.3048,3.046,2.7777,2.9044,2.8858,2.7933,2.6962,2.7378,2.7587,2.5329,2.5135,2.5163,2.3623,2.3113,0.0,2.4596,2.4676,2.5376,2.8544,3.093,3.3162,3.5237,3.7971,3.9736,3.9406,3.9868,4.0215,3.9941,3.9219,3.8867,3.9238,3.8906,3.8652,3.8652,3.8613,3.8574,3.8574,3.8613,3.8809,3.918,3.9297,3.9512,3.9883,3.998,4.0,3.9902,3.9941,3.9961,3.9961,3.9961,4.0195,4.0586,4.0586,4.0801,4.1172,4.1172,4.1172,4.1172,4.1172,4.1172,4.1172,4.1172,4.1172,4.1172,4.1172,4.1172,4.1172,2.4636,2.4636,2.4636,2.4636,2.4836,2.4917,2.4676,2.4836,2.4903,2.4663,2.4436,2.4356,2.4529,2.4289,2.3981,2.3621,2.31,2.2525,2.1937,2.1403,2.1136,2.1189,2.2031,2.2418,2.2245,2.3354,2.338,2.2245,2.2418,2.2058,2.1189,2.1136,2.1589,2.2635,2.4455,2.5687,2.6565,2.8937,3.0664,3.1797,3.1953,3.2988,3.4609,3.6094,3.7031,3.7617,3.8144,3.8045,3.7292,3.5012,3.3374,3.214,3.1237,3.2038,3.2967,3.1465,3.0817,3.014,2.7555,2.6397,2.5467,2.3461,2.3273,0.0,2.3661,2.3621,2.4323,2.708,2.8084,2.924,3.1677,3.4159,3.5906,3.5999,3.768,3.918,3.9805,3.9746,3.9668,3.9746,3.9355,3.9082,3.9082,3.8769,3.8574,3.8574,3.8887,3.9121,3.9199,3.9883,4.0156,3.9902,4.0566,4.0586,3.9902,4.0234,4.041,4.041,4.041,4.0625,4.1055,4.1055,4.1094,4.1172,4.1172,4.1172,4.1172,4.1172,4.1172,4.1172,4.1172,4.1172,4.1172,4.1172,4.1172,4.1172,2.4636,2.4636,2.469,2.4836,2.4863,2.4863,2.4863,2.4863,2.481,2.4649,2.4516,2.4476,2.4623,2.4382,2.4088,2.3794,2.3289,2.2672,2.2231,2.1657,2.1336,2.1336,2.1884,2.2205,2.2205,2.2939,2.2953,2.2205,2.2205,2.183,2.1109,2.1978,2.3151,2.4565,2.5913,2.7386,2.8799,2.9604,3.0527,3.1601,3.2441,3.4082,3.6094,3.6973,3.7695,3.8281,3.8496,3.7951,3.6938,3.6482,3.5111,3.3691,3.3942,3.3819,3.3435,3.2971,3.2241,3.0946,2.8257,2.7308,2.6433,2.3763,2.3207,0.0,0.0,2.3647,2.4025,2.5822,2.7055,2.8278,2.9723,3.1946,3.3974,3.5048,3.6664,3.8139,3.907,3.9629,3.998,4.0176,3.9609,3.9199,3.9199,3.8828,3.8574,3.8574,3.8965,3.9297,3.9531,4.0176,4.0527,4.0527,4.0957,4.0957,4.0527,4.0742,4.084,4.084,4.084,4.0957,4.1172,4.1172,4.1172,4.1172,4.1172,4.1172,4.1172,4.1172,4.1172,4.1172,4.1172,4.1308,4.1484,4.1484,4.1621,4.1797,2.4636,2.4636,2.4716,2.4957,2.4836,2.4783,2.497,2.4836,2.4703,2.4649,2.469,2.4716,2.4716,2.4569,2.4342,2.4048,2.3514,2.3033,2.2619,2.2098,2.1869,2.1869,2.1924,2.2124,2.2405,2.2592,2.2525,2.2164,2.2306,2.194,2.1172,2.3139,2.4715,2.6012,2.7626,2.9265,3.0832,3.0391,3.0801,3.1894,3.3535,3.5098,3.6523,3.7363,3.791,3.8242,3.8496,3.7492,3.6276,3.747,3.6356,3.4673,3.6116,3.5073,3.339,3.363,3.3189,3.1935,2.8691,2.8131,2.7656,2.4178,2.322,2.326,0.0,0.0,0.0,2.4516,2.6078,2.7392,2.7659,2.9671,3.1806,3.3401,3.5258,3.6717,3.7651,3.886,3.9766,4.0098,3.9746,3.9355,3.9101,3.8691,3.8476,3.8574,3.8809,3.9238,3.9863,4.0215,4.0644,4.1152,4.1172,4.1172,4.1172,4.1172,4.1172,4.1172,4.1172,4.1172,4.1172,4.1172,4.1172,4.1172,4.1172,4.1172,4.1172,4.125,4.1289,4.1289,4.1289,4.1504,4.1816,4.1894,4.2129,4.2422,2.4636,2.4636,2.4649,2.4676,2.4877,2.4957,2.4716,2.4877,2.493,2.4676,2.4863,2.5024,2.5024,2.5224,2.5251,2.4957,2.4623,2.4088,2.3273,2.2899,2.278,2.278,2.2245,2.2124,2.2405,2.2205,2.1817,2.1256,2.2928,2.2871,2.1172,2.4286,2.5598,2.5545,2.8703,3.0148,3.0413,3.1834,3.3379,3.4863,3.4687,3.4101,3.3555,3.5918,3.6836,3.7031,3.8164,3.8428,3.8205,3.7994,3.7708,3.7294,3.6376,3.6588,3.6925,3.509,3.5315,3.5085,3.031,2.925,2.8553,2.433,2.3688,2.3875,2.318,0.0,2.3327,2.3153,0.0,2.361,2.3852,0.0,0.0,2.7798,3.1514,3.4466,3.4883,3.7112,3.875,3.8789,3.9726,3.9922,3.875,3.8262,3.8164,3.8555,3.8262,3.8594,3.9824,3.9941,4.0332,4.1152,4.1172,4.1172,4.1172,4.1172,4.1172,4.1172,4.1172,4.1172,4.1172,4.1172,4.1172,4.1172,4.1172,4.1172,4.1211,4.1582,4.1738,4.1738,4.1738,4.1758,4.1836,4.2207,4.2383,4.2422,2.4636,2.4636,2.469,2.4863,2.485,2.4836,2.489,2.4997,2.5037,2.4917,2.4997,2.5077,2.5077,2.489,2.477,2.4823,2.4556,2.4222,2.3861,2.3394,2.3046,2.2941,2.2298,2.2044,2.2164,2.1884,2.212,2.28,2.2504,2.2894,2.3977,2.5375,2.7081,2.907,3.118,3.2848,3.3945,3.3652,3.3809,3.4238,3.4043,3.3496,3.3164,3.6504,3.7773,3.7851,3.8379,3.8574,3.8594,3.8652,3.8164,3.7656,3.8125,3.6947,3.5515,3.6042,3.5387,3.3988,3.1555,3.1164,3.0703,2.7507,2.6224,2.5511,2.4868,2.4627,2.4613,2.4656,0.0,0.0,0.0,0.0,0.0,0.0,2.8838,3.0988,3.1716,3.3656,3.5962,3.8316,3.8828,3.8906,3.8613,3.8418,3.8476,3.8906,3.8555,3.8769,3.9844,4.0137,4.0547,4.1152,4.1172,4.1172,4.1172,4.1172,4.1172,4.1172,4.1172,4.1172,4.1172,4.1172,4.1172,4.1172,4.1172,4.1308,4.1543,4.1719,4.1953,4.2187,4.2441,4.2539,4.2558,4.2734,4.2949,4.3164,2.4636,2.4636,2.4703,2.4917,2.4783,2.4716,2.493,2.4957,2.4957,2.4957,2.5024,2.5104,2.5184,2.489,2.4796,2.509,2.4997,2.485,2.469,2.4128,2.3808,2.3834,2.2726,2.2258,2.2592,2.2356,2.2766,2.3855,2.3366,2.4147,2.6194,2.6944,2.8624,3.1011,3.2797,3.4473,3.5918,3.5117,3.4726,3.4648,3.4531,3.4453,3.4648,3.7109,3.8262,3.8594,3.8711,3.875,3.8789,3.9101,3.8594,3.8027,3.918,3.7528,3.5457,3.7151,3.6257,3.4437,3.3088,3.2983,3.2519,2.9882,2.8345,2.7338,2.6716,2.6501,2.6454,2.6701,2.6216,0.0,0.0,0.0,2.3925,2.5331,0.0,2.8151,2.8991,3.0617,3.311,3.6698,3.6942,3.7201,3.8267,3.7731,3.7735,3.8735,3.8457,3.8711,3.9844,4.0195,4.0605,4.1152,4.1172,4.1172,4.1172,4.1172,4.1172,4.1172,4.1172,4.1172,4.1172,4.1172,4.1172,4.1172,4.1172,4.1406,4.1816,4.1933,4.2226,4.2656,4.3086,4.3242,4.3242,4.3242,4.3437,4.3711,2.4636,2.4636,2.4562,2.4649,2.4649,2.4562,2.4649,2.4649,2.4649,2.4649,2.4903,2.5184,2.5464,2.5745,2.6012,2.6306,2.6573,2.6507,2.601,2.5344,2.5398,2.6239,2.3794,2.2953,2.4102,2.4009,2.384,2.3589,2.6668,2.7643,2.6637,2.942,3.0149,2.9349,3.2587,3.4082,3.4258,3.5898,3.7051,3.7754,3.7344,3.7656,3.8262,3.7148,3.75,3.8633,3.9043,3.918,3.918,3.9199,3.918,3.9082,3.873,3.8848,3.8969,3.8652,3.8809,3.8348,3.5246,3.4414,3.3625,3.0067,2.9168,2.8987,2.8279,2.8444,2.8692,2.8692,2.7542,2.6598,2.6613,2.5045,2.3825,2.3897,2.5426,0.0,0.0,2.8764,3.0835,3.3119,3.3707,3.4963,3.7637,3.5504,3.5071,3.7747,3.7578,3.8086,3.9805,3.9902,4.0293,4.1152,4.1172,4.1172,4.1172,4.1172,4.1172,4.1172,4.1172,4.1172,4.1172,4.1172,4.1172,4.1172,4.1172,4.1406,4.1836,4.2246,4.2656,4.3105,4.3516,4.3691,4.3691,4.3691,4.3691,4.3711,2.4636,2.4636,2.4636,2.4636,2.4636,2.4636,2.4636,2.4796,2.4997,2.5197,2.5304,2.5478,2.5772,2.5892,2.6079,2.636,2.6653,2.6734,2.6547,2.5798,2.5585,2.6079,2.4315,2.35,2.3915,2.4592,2.5275,2.5912,2.6789,2.7658,2.8517,2.9052,2.9269,2.9516,3.2702,3.4707,3.582,3.6426,3.7148,3.7851,3.7168,3.7383,3.8125,3.7988,3.8203,3.8633,3.9062,3.9199,3.9297,3.9883,3.9687,3.9336,4.0059,3.9609,3.8867,3.9316,3.9141,3.8545,3.7498,3.7429,3.7093,3.4706,3.3291,3.2033,3.0614,3.0421,3.0526,3.0526,3.0355,2.9851,2.8551,2.6837,2.5271,2.3981,2.4487,2.4985,0.0,2.6528,2.8021,2.9001,3.0993,3.2719,3.3634,3.4306,3.5194,3.6348,3.7211,3.8359,3.9824,3.9902,4.0293,4.1152,4.1172,4.1172,4.1172,4.1172,4.1172,4.1172,4.1172,4.1172,4.1172,4.1172,4.1172,4.1191,4.1465,4.1836,4.2246,4.2676,4.3105,4.3496,4.3652,4.3711,4.3711,4.3711,4.3711,4.3711,2.4589,2.4636,2.4636,2.4636,2.4636,2.4636,2.4636,2.4983,2.5304,2.5491,2.5692,2.5932,2.6239,2.6266,2.6689,2.7755,2.7431,2.7365,2.7936,2.6673,2.6106,2.6413,2.5117,2.4489,2.4703,2.6143,2.7111,2.7539,2.8375,2.9128,2.9735,2.9567,2.947,2.9635,3.2237,3.4453,3.623,3.6543,3.7324,3.834,3.7793,3.7891,3.8437,3.8867,3.8848,3.8652,3.9238,3.9551,3.9785,4.0508,4.0371,4.0059,4.0898,4.041,3.9609,4.0176,3.9941,3.9434,3.9121,3.9238,3.9082,3.75,3.6227,3.4948,3.339,3.3166,3.3278,3.3278,3.2881,3.2096,3.0647,2.9049,2.709,2.4643,2.4679,2.4701,0.0,2.4819,2.5783,2.5984,0.0,0.0,0.0,0.0,3.2956,3.4224,3.5102,3.6201,3.7607,3.8386,3.9165,4.0002,4.0763,4.1172,4.1172,4.1172,4.1172,4.1172,4.1172,4.1172,4.1172,4.1172,4.125,4.1406,4.168,4.2129,4.2676,4.2969,4.332,4.3711,4.3711,4.3711,4.3711,4.3711,4.3711,4.3711,2.469,2.4636,2.4636,2.4636,2.4636,2.4636,2.4636,2.513,2.5518,2.5531,2.6052,2.652,2.6961,2.7015,2.7995,3.034,2.8905,2.8522,2.9888,2.803,2.6987,2.7295,2.6186,2.5903,2.6558,2.8508,2.9192,2.8656,3.1413,3.1903,3.0293,3.1127,3.0835,2.9635,3.1417,3.3398,3.5488,3.6289,3.7637,3.9199,3.9199,3.9199,3.9258,3.9726,3.9375,3.875,3.9629,4.0176,4.0586,4.1035,4.1172,4.1172,4.1172,4.1172,4.1172,4.1172,4.1172,4.0996,4.0176,3.9961,3.9648,3.834,3.8008,3.7656,3.6406,3.6445,3.6738,3.6738,3.4984,3.3287,3.2701,3.143,2.9369,2.5838,2.6128,2.5981,2.3967,2.4049,2.4327,2.4499,0.0,0.0,0.0,0.0,2.8658,3.1381,3.1523,3.2043,3.3496,3.5529,3.6988,3.7701,3.9864,4.1016,4.1016,4.1172,4.1172,4.1172,4.1172,4.1172,4.1172,4.1191,4.1426,4.1797,4.1855,4.2324,4.3086,4.3105,4.334,4.3711,4.3711,4.3711,4.3711,4.3711,4.3711,4.3711,2.4649,2.4636,2.4636,2.4636,2.4636,2.4636,2.4636,2.513,2.5585,2.5812,2.6346,2.7442,2.9312,2.98,3.0137,3.0779,3.0601,2.999,2.8786,2.7716,2.7375,2.798,2.6787,2.7107,2.9114,2.9582,3.0587,3.2152,3.2547,3.2207,3.1125,3.1717,3.1332,3.0113,3.1856,3.3828,3.5879,3.6094,3.7344,3.9199,3.9199,3.9199,3.9258,3.9726,3.9746,3.9629,4.0176,4.043,4.0586,4.1035,4.1172,4.1172,4.1172,4.1172,4.1172,4.1172,4.1172,4.1133,4.0898,4.084,4.0605,3.9629,3.9121,3.8613,3.7656,3.7519,3.7598,3.7598,3.7397,3.6425,3.3929,3.3144,3.184,2.8522,2.8313,2.8558,2.8514,2.7029,2.6661,2.8498,0.0,0.0,0.0,0.0,0.0,2.9038,3.0824,3.2324,3.3512,3.3859,3.4491,3.5524,3.7657,3.8706,3.8706,4.0353,4.1172,4.1172,4.1172,4.1172,4.1191,4.1504,4.1699,4.1836,4.248,4.2871,4.3105,4.3418,4.3613,4.3711,4.3711,4.3711,4.3711,4.3711,4.3711,4.3711,2.4823,2.5662,2.6581,2.7291,2.692,2.6196,2.5187,2.5304,2.5959,2.722,2.7965,2.8882,3.0165,3.173,3.2576,3.2576,3.2749,3.2651,3.2112,3.1061,3.0165,2.9198,2.9748,2.9764,2.9306,3.0684,3.1726,3.2239,3.2618,3.2236,3.1161,3.2022,3.156,3.0004,3.1932,3.3574,3.4961,3.6289,3.7656,3.8984,3.9551,3.9785,0.0,4.0293,4.0449,4.0488,4.0723,4.0801,4.084,4.1094,4.1172,4.1172,4.1172,4.1172,4.1172,4.1172,4.1172,4.1172,4.1172,4.1172,4.1055,4.0566,4.0254,3.9844,3.8984,3.8789,3.8789,3.8789,3.8672,3.797,3.5941,3.5318,3.3959,3.058,2.9546,2.9319,2.9567,2.8702,2.8224,2.8759,2.7112,2.5455,0.0,0.0,0.0,0.0,2.8237,2.9625,3.0548,3.1355,3.2269,3.3236,3.5379,3.6922,3.7896,3.9119,4.0275,4.1172,4.1172,4.1172,4.1191,4.1601,4.1894,4.2109,4.2793,4.3183,4.3359,4.3613,4.3711,4.3711,4.3711,4.3711,4.3711,4.3711,4.3711,4.3711,2.5452,2.7401,2.952,3.0792,3.0134,2.8667,2.6383,2.5859,2.6525,2.8651,2.9913,3.0635,3.0716,3.3307,3.5137,3.5137,3.5137,3.5589,3.6594,3.5424,3.3645,3.1132,3.3355,3.3038,2.9537,3.2314,3.3066,3.1759,3.2667,3.244,3.1157,3.2262,3.1756,3.0,3.1918,3.3184,3.4023,3.6758,3.8281,3.8926,4.0059,4.0566,4.0644,4.1035,4.1172,4.1172,4.1172,4.1172,4.1172,4.1172,4.1172,4.1172,4.1172,4.1172,4.1172,4.1172,4.1172,4.1172,4.1172,4.1172,4.1172,4.1172,4.1172,4.0976,4.0234,4.0059,4.0059,4.0059,3.9453,3.8776,3.8168,3.7329,3.5712,3.2556,3.0985,3.0156,3.0174,3.0375,2.9926,2.8277,2.7852,0.0,0.0,0.0,0.0,0.0,2.5291,2.5852,2.6774,2.8582,3.0026,3.0963,3.3431,3.546,3.7002,3.7896,3.9119,4.0763,4.1094,4.1211,4.1269,4.1699,4.2109,4.2539,4.2969,4.3359,4.3711,4.3711,4.3711,4.3711,4.3711,4.3711,4.3711,4.3769,4.3789,4.3789,2.7169,2.9731,3.1515,3.1042,3.1392,3.1161,2.9379,2.7894,2.7149,2.7567,2.9698,3.1951,3.3661,3.5955,3.7321,3.7321,3.7321,3.671,3.5194,3.4828,3.4521,3.3985,3.4423,3.5137,3.6201,3.5789,3.5935,3.6679,3.5544,3.4239,3.2956,3.2863,3.2568,3.2223,3.263,3.4023,3.6191,3.7402,3.8789,4.0195,4.043,4.0742,4.1074,4.1152,4.1172,4.1172,4.1172,4.1172,4.1172,4.1172,4.1172,4.1172,4.1172,4.1172,4.1172,4.1172,4.1172,4.1172,4.1172,4.1172,4.1172,4.1172,4.1172,4.1133,4.0976,4.0957,4.0957,4.0957,4.082,4.0392,3.9217,3.8025,3.6786,3.5413,3.5333,3.5851,3.7219,3.5227,3.3714,0.0,0.0,2.8222,0.0,0.0,0.0,0.0,0.0,2.5638,2.676,2.6985,2.7606,2.8755,3.2628,3.4002,3.253,3.7896,3.9864,3.8469,4.0353,4.1348,4.1699,4.2129,4.2558,4.2988,4.3418,4.3633,4.3711,4.3711,4.3711,4.3711,4.3711,4.3711,4.375,4.4141,4.4277,4.4277,3.1968,3.3419,3.4157,3.37,3.3196,3.2223,3.0295,2.9659,2.9684,3.04,3.2682,3.4647,3.5615,3.8055,3.9119,3.7975,3.8961,3.9198,3.8152,3.8073,3.7578,3.6442,3.7498,3.7498,3.6281,3.6709,3.6634,3.5877,3.5093,3.4126,3.3086,3.2891,3.2559,3.2168,3.3066,3.4531,3.6426,3.7949,3.9219,4.0234,4.0684,4.0976,4.1172,4.1172,4.1172,4.1172,4.1172,4.1172,4.1172,4.1172,4.1172,4.1172,4.1172,4.1172,4.1172,4.1172,4.1172,4.1172,4.1172,4.1172,4.1172,4.1172,4.1172,4.1172,4.1172,4.1172,4.1172,4.1172,4.1172,4.0762,3.9453,3.834,3.7422,3.6777,3.668,3.7109,3.8359,3.6456,3.4643,0.0,0.0,0.0,0.0,0.0,0.0,0.0,0.0,0.0,2.8622,2.8332,2.8645,2.9815,3.3038,3.4732,3.4813,3.7896,3.9531,3.961,4.0897,4.1601,4.1816,4.2461,4.2871,4.3105,4.3516,4.3711,4.3711,4.3711,4.3711,4.3711,4.3711,4.3848,4.4082,4.4316,4.4531,4.4726,3.6196,3.6874,3.7005,3.629,3.5554,3.4092,3.1327,3.2386,3.3402,3.3001,3.5461,3.7131,3.6898,3.9466,4.0509,3.8706,4.0197,4.1172,4.1172,4.1172,4.0431,3.8706,4.0275,3.961,3.6121,3.7737,3.7484,3.5085,3.4829,3.4184,3.3203,3.293,3.2578,3.2266,3.3711,3.5234,3.6797,3.8496,3.957,4.0234,4.0898,4.1172,4.1172,4.1172,4.1172,4.1172,4.1172,4.1172,4.1172,4.1172,4.1172,4.1172,4.1172,4.1172,4.1172,4.1172,4.1172,4.1172,4.1172,4.1172,4.1172,4.1172,4.1172,4.1172,4.1172,4.1172,4.1172,4.1172,4.1172,4.0762,3.9453,3.8887,3.8359,3.7559,3.7383,3.7617,3.8379,3.7068,3.5381,0.0,0.0,0.0,2.6641,2.5932,0.0,0.0,0.0,0.0,2.9435,2.9184,2.9433,3.051,3.3143,3.5063,3.6358,3.7824,3.9198,4.0529,4.1346,4.1836,4.1953,4.2734,4.3125,4.3223,4.3555,4.3711,4.3711,4.3711,4.3769,4.3848,4.3848,4.4141,4.4551,4.4629,4.4883,4.5176,3.6818,3.8932,3.9854,3.7027,3.8738,3.8896,3.4346,3.7388,3.8195,3.2371,3.5198,3.7788,3.7788,3.9807,4.1094,4.0919,4.1094,4.1172,4.1172,4.1172,4.1094,4.0919,4.1094,4.1016,4.0607,4.0763,4.0143,3.8709,3.7565,3.6122,3.4492,3.334,3.3379,3.4434,3.5019,3.6621,3.8926,3.9121,3.9922,4.1055,4.1133,4.1172,4.1172,4.1172,4.1172,4.1172,4.1172,4.1172,4.1172,4.1172,4.1172,4.1172,4.1172,4.1172,4.1172,4.1172,4.1172,4.1172,4.1172,4.1172,4.1172,4.1172,4.1172,4.1172,4.1172,4.1172,4.1172,4.1172,4.1172,4.0762,3.9453,4.0117,4.0215,3.8184,3.8828,3.9746,4.0215,3.9129,3.8004,3.734,0.0,0.0,2.9346,2.629,0.0,0.0,2.6948,0.0,2.6743,2.6729,2.7,2.7649,3.1696,3.3046,3.1216,3.7632,4.0021,3.8231,4.0677,4.1992,4.2383,4.2851,4.3281,4.3652,4.3691,4.3711,4.3711,4.3711,4.3945,4.4336,4.4336,4.459,4.5019,4.541,4.5586,4.5664,3.9791,4.0549,4.0567,3.8511,3.8939,3.8114,3.3778,3.7032,3.8518,3.455,3.7445,3.9864,3.9864,4.0685,4.1172,4.1172,4.1172,4.1172,4.1172,4.1406,4.1543,4.1543,4.1543,4.1543,4.1543,4.1308,4.0664,3.9609,3.8066,3.6543,3.5098,3.459,3.5176,3.666,3.7363,3.8398,3.9648,4.0156,4.0684,4.1172,4.1172,4.1172,4.1172,4.1172,4.1172,4.1172,4.1172,4.1172,4.1172,4.1172,4.1172,4.1172,4.1172,4.1172,4.1172,4.1172,4.1172,4.1172,4.1172,4.1172,4.1172,4.1172,4.1172,4.1172,4.1172,4.1172,4.1172,4.1172,4.1172,4.1016,4.0488,4.0391,4.0293,3.9941,3.9883,4.0137,4.082,3.9336,3.8087,3.7843,0.0,0.0,0.0,3.0482,2.9321,2.9154,0.0,2.5916,2.816,2.8296,2.8411,2.8669,3.3602,3.5686,3.444,3.8962,4.0879,4.0224,4.1556,4.2402,4.2832,4.3262,4.3555,4.3711,4.3711,4.3711,4.373,4.4004,4.4238,4.4414,4.4687,4.5039,4.543,4.5605,4.584,4.6074,4.1875,4.1738,4.1106,3.9632,3.9685,3.8643,3.5054,3.7652,3.9577,3.79,3.9906,4.1484,4.1367,4.125,4.1172,4.1172,4.1172,4.123,4.1348,4.1641,4.1855,4.1973,4.1875,4.1797,4.1797,4.1504,4.1055,4.0449,3.8965,3.7793,3.6894,3.6504,3.7168,3.8711,3.918,3.9805,4.0488,4.0976,4.1172,4.1172,4.1172,4.1172,4.1172,4.1172,4.1172,4.1172,4.1172,4.125,4.1348,4.1348,4.1445,4.1523,4.1387,4.1348,4.1387,4.1504,4.1543,4.1523,4.1387,4.1348,4.1328,4.1211,4.1172,4.1172,4.1172,4.1172,4.1172,4.1172,4.1172,4.1172,4.1172,4.0684,4.0391,4.0742,4.0508,4.0391,4.0742,3.9485,3.8531,3.8531,3.6324,3.4728,3.4783,3.3302,3.181,3.0481,2.8342,2.7801,2.9544,2.9589,2.9989,3.0794,3.5226,3.7493,3.7213,3.9949,4.1562,4.1992,4.2422,4.2773,4.3086,4.3516,4.3711,4.3711,4.3711,4.3789,4.3926,4.4258,4.4551,4.4805,4.5098,4.5469,4.5859,4.5859,4.6055,4.6308,4.2266,4.2422,4.1875,4.0088,4.16,4.2159,3.955,4.0995,4.2342,4.2342,4.2342,4.2246,4.1836,4.1426,4.1172,4.1172,4.1172,4.1348,4.1758,4.1797,4.1992,4.2402,4.2031,4.1797,4.1797,4.1797,4.1797,4.1777,4.0898,4.0469,4.043,3.9141,3.9238,4.0469,4.0059,4.0586,4.1758,4.1348,4.1172,4.1172,4.1172,4.1172,4.1172,4.1172,4.1172,4.1172,4.1172,4.1445,4.1797,4.1797,4.207,4.2344,4.1933,4.1797,4.1875,4.2285,4.2402,4.2324,4.1894,4.1797,4.1699,4.1269,4.1172,4.1172,4.1172,4.1172,4.1172,4.1172,4.1172,4.1172,4.1172,4.1172,4.0879,4.0039,4.0605,4.0859,4.0039,3.9902,3.9902,3.9902,3.6434,3.4812,3.6851,3.3506,3.2059,3.3988,3.3315,3.1863,2.9743,2.9589,3.0888,3.3702,3.5857,3.7231,3.7709,4.0388,4.2012,4.2422,4.2851,4.3066,4.3086,4.3516,4.3711,4.3711,4.3711,4.3965,4.4394,4.4394,4.4902,4.5664,4.5664,4.5918,4.6289,4.6289,4.6289,4.6308,4.2324,4.2656,4.2826,4.2474,4.3065,4.2677,4.0315,4.1846,4.2707,4.1165,4.2111,4.2812,4.2695,4.2285,4.2031,4.2031,4.2031,4.209,4.2207,4.25,4.2734,4.2871,4.2734,4.2676,4.2676,4.2383,4.2383,4.2676,4.123,4.0684,4.0957,4.0234,4.0742,4.2226,4.1504,4.1426,4.1777,4.1348,4.1172,4.1172,4.1172,4.1172,4.1172,4.1172,4.1172,4.1211,4.1504,4.168,4.1836,4.2129,4.2324,4.2461,4.2617,4.2461,4.2246,4.2383,4.2422,4.2344,4.1914,4.1797,4.1699,4.1269,4.1172,4.1172,4.1172,4.1172,4.1172,4.1172,4.1172,4.1172,4.1172,4.1172,4.1094,4.082,4.0996,4.1074,4.0801,4.0762,4.0762,4.0762,3.9681,3.9185,3.9833,3.8198,3.6569,3.5316,3.4486,3.3391,3.194,3.2272,3.2728,3.3159,3.4818,3.6348,3.7727,3.9185,4.0933,4.2871,4.3008,4.3223,4.3516,4.3633,4.3711,4.3711,4.3711,4.3965,4.4414,4.4707,4.5156,4.5703,4.5996,4.6191,4.6308,4.6308,4.6308,4.6308,4.2344,4.2656,4.3027,4.3594,4.3711,4.2927,4.068,4.2243,4.2844,4.0596,4.2099,4.332,4.332,4.3066,4.2773,4.2461,4.2422,4.25,4.2656,4.293,4.3144,4.3301,4.3164,4.3086,4.3086,4.2812,4.2812,4.3086,4.2168,4.1855,4.2109,4.168,4.2051,4.3047,4.2187,4.1797,4.1777,4.1348,4.1172,4.1172,4.1172,4.1172,4.1191,4.1348,4.1406,4.1465,4.1894,4.2148,4.2324,4.2578,4.2773,4.2949,4.3223,4.3125,4.291,4.291,4.291,4.2812,4.2402,4.2285,4.2148,4.1562,4.1406,4.1367,4.1211,4.1172,4.1172,4.1172,4.1172,4.1172,4.1172,4.1172,4.1172,4.1172,4.1172,4.1172,4.1172,4.1172,4.1055,4.0723,4.0684,4.0684,4.0684,4.0215,3.9333,3.7858,3.7278,3.6755,3.6017,3.5086,3.5009,3.5958,3.7038,3.823,3.9449,4.0186,4.1449,4.332,4.332,4.3457,4.3711,4.3711,4.3711,4.3711,4.3887,4.4219,4.4668,4.5098,4.5527,4.5937,4.6191,4.6308,4.6308,4.6308,4.6308,4.6308,4.2142,4.222,4.2553,4.3555,4.3443,4.2576,4.0764,4.2224,4.2761,4.0764,4.2243,4.3526,4.3711,4.3526,4.3215,4.2578,4.2519,4.2695,4.3086,4.3125,4.3301,4.3691,4.332,4.3125,4.3125,4.3125,4.3125,4.3125,4.3516,4.3711,4.3691,4.3242,4.3027,4.2988,4.2148,4.1758,4.1719,4.1172,4.0997,4.1016,4.1036,4.1055,4.1094,4.1601,4.1836,4.1894,4.2324,4.2734,4.3086,4.3105,4.3379,4.3711,4.3711,4.3711,4.3711,4.3711,4.3711,4.3613,4.3183,4.3086,4.2871,4.2012,4.1777,4.166,4.1269,4.1172,4.1172,4.1172,4.1172,4.1172,4.1172,4.1172,4.1172,4.1172,4.1172,4.1172,4.1172,4.1172,4.0879,4.0078,3.998,3.998,3.998,3.998,4.0293,4.1035,4.1094,4.1094,4.1133,3.7877,3.7613,4.1152,4.1483,4.1911,4.2461,4.2728,4.3137,4.3711,4.3711,4.3711,4.3711,4.3711,4.3711,4.373,4.4199,4.4629,4.5058,4.5508,4.5918,4.6308,4.6308,4.6308,4.6308,4.6308,4.6308,4.6308,4.0536,4.0281,4.1024,4.3264,4.0782,3.9413,4.2409,4.189,4.1537,4.2761,4.189,4.1807,4.3526,4.2141,4.1732,4.3254,4.3398,4.3437,4.3555,4.3555,4.3594,4.3691,4.3613,4.3555,4.3555,4.3555,4.3555,4.3555,4.3652,4.3711,4.3691,4.293,4.2578,4.2539,4.1699,4.1328,4.123,3.9411,3.8706,3.8743,3.9037,3.9166,3.9382,4.1452,4.2285,4.2344,4.2773,4.2988,4.3125,4.3437,4.3633,4.3711,4.3711,4.3711,4.3711,4.3711,4.3711,4.3613,4.3183,4.3086,4.2871,4.2012,4.1562,4.1289,4.1191,4.1172,4.1172,4.1172,4.1172,4.1172,4.1172,4.1172,4.1172,4.1172,4.1172,4.1172,4.1172,4.1172,4.1094,4.0898,4.0879,4.0879,4.0879,4.0879,4.0684,4.0234,4.0195,4.0332,4.0664,3.9816,4.0067,4.1621,4.0696,4.1028,4.293,4.1635,4.188,4.3711,4.3711,4.3711,4.3711,4.3711,4.3711,4.373,4.4199,4.4629,4.5058,4.5508,4.5918,4.6308,4.6308,4.6308,4.6308,4.6308,4.6308,4.6308,3.9775,4.0428,4.1751,4.3366,4.1639,4.0427,4.189,4.1974,4.189,4.2141,4.1974,4.2326,4.3526,4.2576,4.2326,4.3609,4.3711,4.3711,4.3711,4.3711,4.3711,4.3711,4.3711,4.3711,4.3711,4.3711,4.3711,4.3711,4.3711,4.3711,4.3691,4.18,4.0914,4.0877,3.9074,3.8231,3.8152,3.6922,3.6546,3.6639,3.6829,3.7671,3.8879,4.054,4.1786,4.2773,4.3203,4.3359,4.3398,4.3633,4.3711,4.3711,4.3711,4.3711,4.3711,4.3711,4.3711,4.3652,4.3418,4.3359,4.3203,4.2539,4.1914,4.1465,4.1465,4.1308,4.1172,4.1172,4.1172,4.1172,4.1172,4.1172,4.1172,4.1172,4.1328,4.1465,4.1465,4.1621,4.1758,4.1758,4.1582,4.1465,4.1465,4.1289,4.1055,4.0781,4.0762,4.0957,4.1367,4.1582,4.1816,4.207,4.1542,4.1783,4.3086,4.2283,4.2493,4.3711,4.3711,4.3711,4.3711,4.3711,4.3828,4.4043,4.4492,4.4922,4.5351,4.5781,4.6094,4.6308,4.6308,4.6308,4.6308,4.6308,4.6308,4.6308,3.8786,4.052,4.2283,4.3112,4.2882,4.2243,4.1034,4.2141,4.2576,4.1034,4.2243,4.3361,4.3628,4.3361,4.3361,4.3691,4.3711,4.3711,4.3711,4.3711,4.3711,4.3711,4.3711,4.3711,4.3711,4.3711,4.3711,4.3711,4.3711,4.3507,4.306,4.0435,3.895,3.8533,3.5913,3.4734,3.4734,3.4474,3.4506,3.47,3.4749,3.6289,3.8701,3.9425,4.12,4.3223,4.3574,4.3711,4.3711,4.3711,4.3711,4.3711,4.3711,4.3711,4.3711,4.3711,4.3711,4.3711,4.3711,4.3652,4.3516,4.3164,4.248,4.1894,4.1894,4.1621,4.1367,4.1367,4.1308,4.1269,4.1269,4.1269,4.123,4.1094,4.1543,4.1855,4.1719,4.2129,4.2422,4.2422,4.2109,4.1894,4.1894,4.1562,4.1504,4.1875,4.1894,4.207,4.25,4.2871,4.293,4.2637,4.2969,4.3183,4.3183,4.3535,4.3711,4.3711,4.3711,4.3711,4.3711,4.3711,4.3926,4.4316,4.4805,4.5234,4.5625,4.6094,4.6308,4.6308,4.6308,4.6308,4.6308,4.6308,4.6308,4.6308,3.4999,3.6096,3.8097,4.0741,3.9368,3.9055,4.2659,4.1807,4.137,4.2927,4.1807,4.1537,4.3526,4.1974,4.1639,4.3526,4.3711,4.3711,4.3711,4.3711,4.3711,4.3711,4.3711,4.3711,4.3711,4.3711,4.3711,4.3711,4.3711,4.257,4.0418,3.9531,3.8053,3.5839,3.5311,3.5015,3.4966,3.3358,3.2668,3.2744,3.3117,3.464,3.7014,3.9334,4.1611,4.3613,4.3691,4.3711,4.3711,4.3711,4.3711,4.3711,4.3711,4.3711,4.3711,4.3711,4.3711,4.3711,4.3711,4.3437,4.3164,4.3105,4.2695,4.2324,4.2324,4.2285,4.2226,4.2226,4.1953,4.1699,4.1699,4.1699,4.1465,4.0742,4.1582,4.207,4.1367,4.1933,4.2422,4.2422,4.2363,4.2324,4.2324,4.2266,4.2266,4.2324,4.2324,4.2519,4.2949,4.3047,4.3203,4.3496,4.3574,4.3613,4.3613,4.3672,4.3711,4.3711,4.3711,4.3711,4.3711,4.3711,4.375,4.3867,4.4668,4.5058,4.5195,4.5976,4.6308,4.6308,4.6308,4.6308,4.6308,4.6308,4.6308,4.6308,3.3947,3.6486,3.8786,3.889,4.0026,4.0699,4.0041,4.0174,4.0259,4.0005,3.9055,3.88,3.9836,4.0174,4.068,4.1807,4.189,4.2409,4.3628,4.3711,4.3711,4.3711,4.3711,4.3711,4.3711,4.3711,4.3711,4.3711,4.2493,4.1166,3.9728,3.703,3.5084,3.374,3.2408,3.183,3.176,3.0909,3.0634,3.0803,3.0958,3.3339,3.677,3.7964,4.0596,4.3711,4.3711,4.3711,4.3711,4.3711,4.3711,4.3711,4.3711,4.3711,4.3711,4.3711,4.3711,4.3711,4.3711,4.3555,4.3418,4.3418,4.3086,4.2773,4.2773,4.2598,4.2422,4.2422,4.2266,4.2129,4.2129,4.2129,4.2012,4.1621,4.2246,4.2637,4.2246,4.2734,4.3105,4.3105,4.291,4.2773,4.2773,4.2558,4.2519,4.2754,4.2773,4.2969,4.3398,4.3418,4.3496,4.3691,4.3711,4.3711,4.3711,4.3711,4.3711,4.3711,4.3711,4.3711,4.3711,4.3711,4.3965,4.4433,4.4844,4.5293,4.5742,4.6133,4.6308,4.6308,4.6308,4.6308,4.6308,4.6308,4.6308,4.6308,3.3023,3.6899,3.953,3.7853,4.1432,4.3027,3.8512,3.9333,3.9621,3.7222,3.688,3.683,3.683,3.8374,3.948,3.948,3.948,4.0259,4.1974,4.2076,4.2595,4.3609,4.3711,4.3711,4.3711,4.3711,4.3711,4.3711,4.1453,3.9874,3.8896,3.4836,3.2464,3.1568,2.9868,2.9138,2.9152,2.9219,2.9379,2.9579,2.9579,3.2134,3.5967,3.5967,3.8885,4.2927,4.2927,4.3278,4.3628,4.3093,4.3278,4.3609,4.3093,4.3278,4.3711,4.3711,4.3711,4.3711,4.3711,4.3711,4.3711,4.3711,4.3457,4.3223,4.3223,4.2969,4.2715,4.2715,4.2656,4.2578,4.2578,4.2578,4.2519,4.2305,4.2812,4.3164,4.2949,4.3379,4.3711,4.3711,4.3418,4.3223,4.3223,4.291,4.2871,4.3203,4.3223,4.3359,4.3691,4.3711,4.3711,4.3711,4.3711,4.3711,4.3711,4.3711,4.3711,4.3711,4.3711,4.3711,4.3711,4.3711,4.4141,4.4883,4.498,4.5449,4.6172,4.6269,4.6308,4.6308,4.6308,4.6308,4.6308,4.6308,4.6308,4.6308,3.0924,3.4605,3.7853,3.8161,4.1927,4.409,4.1482,4.0966,3.996,3.7604,3.6958,3.683,3.683,3.6917,3.7089,3.7089,3.7089,3.7089,3.7261,3.7347,3.9225,4.3526,4.3711,4.3711,4.3711,4.3711,4.3711,4.3711,4.1453,3.9032,3.6642,3.408,3.1613,2.9219,2.9413,2.9446,2.9472,2.974,2.986,2.9887,2.9887,3.1376,3.3644,3.3644,3.6485,4.0511,4.0511,4.189,4.3361,4.1286,4.1974,4.3361,4.1202,4.1974,4.3711,4.3711,4.3711,4.3711,4.3711,4.3711,4.3711,4.3711,4.3691,4.3652,4.3652,4.3633,4.3613,4.3613,4.3301,4.3027,4.3027,4.3027,4.2773,4.1973,4.2871,4.3379,4.2578,4.3183,4.3711,4.3711,4.3672,4.3652,4.3652,4.3633,4.3633,4.3652,4.3652,4.3672,4.3711,4.3711,4.3711,4.3711,4.3711,4.3711,4.3711,4.3711,4.3711,4.3711,4.3711,4.3711,4.3711,4.3711,4.3984,4.4473,4.4863,4.5293,4.5742,4.6152,4.6308,4.6308,4.6308,4.6308,4.6308,4.6308,4.6308,4.6308,3.2631,3.5669,3.7942,3.8349,4.2287,4.4071,3.9983,3.9214,3.815,3.5561,3.3858,3.2746,3.2543,3.3819,3.4679,3.4679,3.4679,3.5288,3.6744,3.5446,3.614,3.931,4.0866,4.1621,4.1621,4.301,4.301,4.1621,3.9471,3.7036,3.4181,3.2279,3.0629,2.9325,2.9619,2.9753,2.9753,2.9873,2.9913,2.9913,2.9913,3.1315,3.3395,3.3395,3.5375,3.8118,3.8118,3.8715,3.931,3.8459,3.8715,3.9225,3.8374,3.9734,4.189,4.3278,4.3711,4.3711,4.3711,4.3711,4.3711,4.3711,4.3711,4.3711,4.3711,4.3711,4.3711,4.3711,4.3574,4.3457,4.3457,4.3457,4.3359,4.3027,4.3379,4.3594,4.3262,4.3496,4.3711,4.3711,4.3711,4.3711,4.3711,4.3711,4.3711,4.3711,4.3711,4.3711,4.3711,4.3711,4.3711,4.3711,4.3711,4.3711,4.3711,4.3711,4.3711,4.3711,4.3711,4.3848,4.4141,4.4141,4.4531,4.5195,4.5351,4.5664,4.6074,4.623,4.6308,4.6308,4.6308,4.6308,4.6308,4.6308,4.6308,4.6308,3.2799,3.5868,3.823,3.8621,4.2048,4.3315,3.8998,3.824,3.6916,3.3585,3.2231,3.1303,3.0298,3.1595,3.2552,3.2552,3.2465,3.3102,3.4659,3.3368,3.3749,3.6658,3.8392,3.976,4.0439,4.2125,4.22,4.0637,3.8559,3.6003,3.3113,3.1312,3.01,2.9633,2.982,2.9913,2.9913,2.9913,2.9913,2.9913,2.9913,3.087,3.2263,3.2263,3.3731,3.5793,3.6572,3.683,3.683,3.683,3.683,3.6658,3.5967,3.7861,4.0764,4.301,4.3711,4.3711,4.3711,4.3711,4.3711,4.3711,4.3711,4.3711,4.3711,4.3711,4.3711,4.3711,4.3711,4.3711,4.3711,4.3711,4.3711,4.3711,4.3711,4.3711,4.3711,4.3711,4.3711,4.3711,4.3711,4.3711,4.3711,4.3711,4.3711,4.3711,4.3711,4.3711,4.3711,4.3711,4.3711,4.3711,4.3711,4.3711,4.3711,4.3711,4.3769,4.3926,4.3769,4.4023,4.459,4.4453,4.4863,4.5683,4.5683,4.5918,4.6308,4.6308,4.6308,4.6308,4.6308,4.6308,4.6308,4.6308,4.6308,4.6308,3.0675,3.4713,3.8224,3.8861,4.0988,4.1798,3.9358,3.8679,3.6731,3.1863,3.3036,3.346,3.1058,3.0795,3.0795,3.0795,3.0528,3.0368,3.0368,3.0368,3.2341,3.6605,3.7107,3.8438,4.0786,4.1182,4.138,4.138,3.8981,3.6498,3.3695,3.1416,3.0207,2.9913,2.9913,2.9913,2.9913,2.9913,2.9913,2.9913,2.9913,2.9913,2.9913,2.9913,3.1301,3.3644,3.5967,3.6744,3.6744,3.6744,3.6744,3.6313,3.4082,3.6555,4.068,4.301,4.3691,4.3711,4.3711,4.3711,4.3711,4.3711,4.3711,4.3711,4.3711,4.3711,4.3711,4.3711,4.3711,4.3711,4.3711,4.3711,4.3711,4.3711,4.3711,4.3711,4.3711,4.3711,4.3711,4.3711,4.3711,4.3711,4.3711,4.3711,4.3711,4.3711,4.3711,4.3711,4.3711,4.3711,4.3711,4.3711,4.3711,4.3711,4.3711,4.3711,4.3945,4.4394,4.3926,4.418,4.5019,4.459,4.4883,4.5683,4.5683,4.5918,4.6308,4.6308,4.6308,4.6308,4.6308,4.6308,4.6308,4.6308,4.6308,4.6308,3.2933,3.4713,3.655,3.8637,3.963,3.9812,3.9084,3.7432,3.5638,3.3969,3.2867,3.183,3.0901,3.0795,3.0795,3.0795,3.0715,3.0662,3.0662,3.0662,3.1249,3.2565,3.4247,3.5444,3.6142,3.7942,3.7992,3.6316,3.5831,3.4245,3.1416,3.0921,3.0394,2.9913,2.9913,2.9913,2.9913,2.9913,2.9913,2.9913,2.9913,2.9913,2.9913,2.9913,3.0348,3.1048,3.1731,3.1997,3.1997,3.1997,3.1997,3.2174,3.3131,3.4329,3.6226,4.0174,4.1286,4.1639,4.3278,4.3711,4.3711,4.3711,4.3711,4.3711,4.3711,4.3711,4.3711,4.3711,4.3711,4.3711,4.3711,4.3711,4.3711,4.3711,4.3711,4.3711,4.3711,4.3711,4.3711,4.3711,4.3711,4.3711,4.3711,4.3711,4.3711,4.3711,4.3711,4.3711,4.3711,4.3711,4.3711,4.3711,4.3711,4.3867,4.4199,4.4199,4.4258,4.4394,4.4551,4.4922,4.5469,4.5351,4.5605,4.6113,4.6113,4.6191,4.6308,4.6308,4.6308,4.6308,4.6308,4.6308,4.6308,4.6308,4.6308,4.6308,3.2597,3.3996,3.5486,3.7189,3.7528,3.7528,3.7528,3.6236,3.4892,3.3787,3.3121,3.2426,3.1249,3.1142,3.1142,3.1142,3.1036,3.0969,3.0969,3.0969,3.1022,3.1142,3.2496,3.3596,3.4455,3.5924,3.6092,3.4649,3.4723,3.3326,3.0528,3.0595,3.0368,2.9913,2.9913,2.9913,2.9913,2.9913,2.9913,2.9913,2.9913,2.9913,2.9913,2.9913,2.9913,3.0003,3.0959,3.0705,3.0003,3.0959,3.0705,3.0348,3.269,3.3395,3.4329,3.897,4.0343,4.0764,4.3093,4.3711,4.3711,4.3711,4.3711,4.3711,4.3711,4.3711,4.3711,4.3711,4.3711,4.3711,4.3711,4.3711,4.3711,4.3711,4.3711,4.3711,4.3711,4.3711,4.3711,4.3711,4.3711,4.3711,4.3711,4.3711,4.3711,4.3711,4.3711,4.3711,4.3711,4.3711,4.3711,4.3711,4.3887,4.4121,4.4394,4.4726,4.4902,4.4902,4.498,4.5332,4.5918,4.5742,4.5898,4.6308,4.6308,4.6308,4.6308,4.6308,4.6308,4.6308,4.6308,4.6308,4.6308,4.6308,4.6308,4.6308,3.0768,3.2874,3.4718,3.4907,3.4966,3.4966,3.4966,3.4966,3.4233,3.1948,3.3591,3.4139,3.1948,3.1664,3.1664,3.1664,3.1423,3.1263,3.1263,3.1263,3.1383,3.1664,3.1664,3.2647,3.4537,3.4818,3.4966,3.4966,3.4733,3.3243,3.0782,3.0501,3.0207,2.9913,2.9913,2.9927,2.9953,2.9927,2.9927,2.9953,2.9927,2.9913,2.9913,2.9913,2.9913,3.0182,3.2351,3.1745,3.0272,3.2351,3.1657,3.0258,3.244,3.3131,3.3994,3.8357,3.9818,4.0511,4.2761,4.3526,4.3711,4.3711,4.3711,4.3711,4.3711,4.3711,4.3711,4.3711,4.3711,4.3711,4.3711,4.3711,4.3711,4.3711,4.3711,4.3711,4.3711,4.3711,4.3711,4.3711,4.3711,4.3711,4.3711,4.3711,4.3711,4.3711,4.3711,4.373,4.3769,4.3769,4.3789,4.3828,4.4238,4.4473,4.4512,4.5293,4.5683,4.5664,4.5312,4.5547,4.6289,4.5898,4.5937,4.6308,4.6308,4.6308,4.6308,4.6308,4.6308,4.6308,4.6308,4.6308,4.6308,4.6308,4.6308,4.6308,3.1076,3.1826,3.242,3.2489,3.2489,3.2489,3.2489,3.2489,3.2313,3.1758,3.2124,3.2313,3.1758,3.1664,3.1664,3.1664,3.161,3.157,3.157,3.157,3.1597,3.1664,3.1664,3.1921,3.2406,3.2461,3.2489,3.2489,3.2187,3.162,3.0782,3.0501,3.0207,2.9913,2.9913,3.0047,3.0247,3.002,3.0047,3.0247,3.0007,2.9913,2.9913,2.9913,2.9913,3.0003,3.0437,3.0348,3.0003,3.0526,3.0348,3.0003,3.0526,3.0705,3.1212,3.4067,3.614,3.8032,4.0427,4.2326,4.3711,4.3711,4.3711,4.3711,4.3711,4.3711,4.3711,4.3711,4.3711,4.3711,4.3711,4.3711,4.3711,4.3711,4.3711,4.3711,4.3711,4.3711,4.3711,4.3711,4.3711,4.3711,4.3711,4.3711,4.3711,4.3711,4.3711,4.3867,4.4238,4.4258,4.4394,4.4726,4.4844,4.5058,4.5391,4.5586,4.5683,4.5683,4.5918,4.6133,4.6289,4.6211,4.6211,4.6308,4.6308,4.6308,4.6308,4.6308,4.6308,4.6308,4.6308,4.6308,4.6308,4.6308,4.6308,4.6308,3.1169,3.1463,3.1664,3.1664,3.1664,3.1664,3.1664,3.1664,3.1664,3.1664,3.1664,3.1664,3.1664,3.1664,3.1664,3.1664,3.1664,3.1664,3.1664,3.1664,3.1664,3.1664,3.1664,3.1664,3.1664,3.1664,3.1664,3.1664,3.1236,3.0942,3.0782,3.0354,3.014,3.0127,3.0127,3.0287,3.0555,3.0394,3.0421,3.0555,3.0394,3.0327,3.0314,3.0181,3.0127,3.0114,2.9967,2.9913,2.9913,2.9913,2.9913,2.9913,2.9913,2.9913,3.0348,3.269,3.5027,3.7347,3.9649,4.1974,4.3711,4.3711,4.3711,4.3711,4.3711,4.3711,4.3711,4.3711,4.3711,4.3711,4.3711,4.3711,4.3711,4.3711,4.3711,4.3711,4.3711,4.3711,4.3711,4.3711,4.3711,4.3711,4.3711,4.3711,4.3711,4.3711,4.3906,4.4141,4.4394,4.459,4.4805,4.5019,4.5234,4.5449,4.5683,4.5879,4.5976,4.5976,4.6191,4.6308,4.6308,4.6308,4.6308,4.6308,4.6308,4.6308,4.6308,4.6308,4.6308,4.6308,4.6308,4.6308,4.6308,4.6308,4.6308,4.6308,3.1249,3.1503,3.1664,3.1664,3.1664,3.1664,3.1664,3.1664,3.1664,3.1664,3.1664,3.1664,3.1664,3.1664,3.1664,3.1664,3.1664,3.1664,3.1664,3.1664,3.1664,3.1664,3.1664,3.1664,3.1664,3.1664,3.1664,3.1664,3.1129,3.0862,3.0849,3.0314,3.0194,3.0434,3.0434,3.0595,3.0862,3.0808,3.0822,3.0862,3.0808,3.0795,3.0768,3.0528,3.0434,3.0408,3.0154,3.0034,2.9993,2.9993,2.9953,2.9913,2.9913,2.9913,3.0258,3.2263,3.4417,3.6744,3.9055,4.137,4.3195,4.3609,4.3711,4.3711,4.3711,4.3711,4.3711,4.3711,4.3711,4.3711,4.3711,4.3711,4.3711,4.3711,4.3361,4.3278,4.3628,4.3361,4.3278,4.3609,4.3711,4.3711,4.3711,4.3711,4.3711,4.3711,4.4141,4.4433,4.4492,4.4902,4.5176,4.5234,4.5586,4.5781,4.5781,4.6133,4.6308,4.6308,4.6308,4.6308,4.6308,4.6308,4.6308,4.6308,4.6308,4.6308,4.6308,4.6308,4.6308,4.6308,4.6308,4.6308,4.6308,4.6308,4.6308,4.6308,3.1557,3.1637,3.1664,3.1664,3.1664,3.1664,3.1664,3.1664,3.1664,3.1664,3.1664,3.1664,3.1664,3.1664,3.1664,3.1664,3.1664,3.1664,3.1664,3.1664,3.1664,3.1664,3.1664,3.1664,3.1664,3.1664,3.1664,3.1664,3.133,3.1169,3.1156,3.0822,3.0688,3.0742,3.0742,3.0889,3.1156,3.0902,3.0942,3.1142,3.0889,3.0795,3.0795,3.0755,3.0742,3.0728,3.0688,3.0515,3.0301,3.0301,3.0127,2.9913,2.9913,2.9913,3.0003,3.0258,3.1997,3.4329,3.6658,3.897,4.1202,4.3195,4.3711,4.3711,4.3711,4.3711,4.3711,4.3711,4.3711,4.3711,4.3711,4.3711,4.3711,4.3711,4.2057,4.1453,4.3443,4.1974,4.1453,4.3443,4.3711,4.3711,4.3711,4.3711,4.3711,4.3711,4.4141,4.4551,4.4922,4.5351,4.5742,4.6113,4.6191,4.6211,4.6211,4.6269,4.6308,4.6308,4.6308,4.6308,4.6308,4.6308,4.6308,4.6308,4.6308,4.6308,4.6308,4.6308,4.6308,4.6308,4.6308,4.6308,4.6308,4.6308,4.6308,4.6308,3.161,3.1664,3.1664,3.1664,3.1664,3.1664,3.1664,3.1664,3.1664,3.1664,3.1664,3.1664,3.1664,3.1664,3.1664,3.1664,3.1664,3.1664,3.1664,3.1664,3.1664,3.1664,3.1664,3.1664,3.1664,3.1824,3.1837,3.1664,3.137,3.1223,3.1223,3.0929,3.0875,3.1036,3.1036,3.1196,3.1463,3.133,3.1356,3.1463,3.133,3.1276,3.1263,3.1102,3.1036,3.1009,3.0849,3.0715,3.0595,3.0595,3.0515,3.0381,3.0221,3.0167,3.0127,2.9967,3.1568,3.3907,3.614,3.8545,4.0848,4.3093,4.3711,4.3711,4.3711,4.3711,4.3711,4.3711,4.3711,4.3711,4.3711,4.3711,4.3711,4.3711,4.1807,4.1118,4.3361,4.1723,4.1118,4.3443,4.3711,4.3808,4.4062,4.4082,4.418,4.4414,4.4863,4.5195,4.5371,4.5801,4.6113,4.6289,4.6308,4.6308,4.6308,4.6308,4.6308,4.6308,4.6308,4.6308,4.6308,4.6308,4.6308,4.6308,4.6308,4.6308,4.6308,4.6308,4.6308,4.6308,4.6308,4.6308,4.6308,4.6308,4.6308,4.6308]}]]